[[{"header":{"parameterUnit":"m.s-1","parameterCategory":1,"la1":30.6,"la2":28.766,"lo1":-90.7593,"lo2":-88.6598,"dy":0.0162,"dx":0.0183,"nx":116,"ny":114,"refTime":"2024-06-18T06:00:00:Z","depth":0,"parameterNumber":2,"parameterNumberName":"U-component_of_WINDS"},"data":[0.0,0.0,0.0,0.0,0.0,0.0,0.0,0.0,0.0,0.0,0.0,0.0,0.0,0.0,0.0,0.0,0.0,0.0,0.0,0.0,0.0,0.0,0.0,0.0,0.0,0.0,0.0,0.0,0.0,0.0,0.0,0.0,0.0,0.0,0.0,0.0,0.0,0.0,0.0,0.0,0.0,0.0,0.0,0.0,0.0,0.0,0.0,0.0,0.0,0.0,0.0,0.0,0.0,0.0,0.0,0.0,0.0,0.0,0.0,0.0,0.0,0.0,0.0,0.0,0.0,0.0,0.0,0.0,0.0,0.0,0.0,0.0,0.0,0.0,0.0,0.0,0.0,0.0,0.0,0.0,0.0,0.0,0.0,0.0,0.0,0.0,0.0,0.0,0.0,0.0,0.0,0.0,0.0,0.0,0.0,0.0,0.0,0.0,0.0,0.0,0.0,0.0,0.0,0.0,0.0,0.0,0.0,0.0,0.0,0.0,0.0,0.0,0.0,0.0,0.0,0.0,0.0,0.0,0.0,0.0,0.0,0.0,0.0,0.0,0.0,0.0,0.0,0.0,0.0,0.0,0.0,0.0,0.0,0.0,0.0,0.0,0.0,0.0,0.0,0.0,0.0,0.0,0.0,0.0,0.0,0.0,0.0,0.0,0.0,0.0,0.0,0.0,0.0,0.0,0.0,0.0,0.0,0.0,0.0,0.0,0.0,0.0,0.0,0.0,0.0,0.0,0.0,0.0,0.0,0.0,0.0,0.0,0.0,0.0,0.0,0.0,0.0,0.0,0.0,0.0,0.0,0.0,0.0,0.0,0.0,0.0,0.0,0.0,0.0,0.0,0.0,0.0,0.0,0.0,0.0,0.0,0.0,0.0,0.0,0.0,0.0,0.0,0.0,0.0,0.0,0.0,0.0,0.0,0.0,0.0,0.0,0.0,0.0,0.0,0.0,0.0,0.0,0.0,0.0,0.0,0.0,0.0,0.0,0.0,0.0,0.0,0.0,0.0,0.0,0.0,0.0,0.0,0.0,0.0,0.0,0.0,0.0,0.0,0.0,0.0,0.0,0.0,0.0,0.0,0.0,0.0,0.0,0.0,0.0,0.0,0.0,0.0,0.0,0.0,0.0,0.0,0.0,0.0,0.0,0.0,0.0,0.0,0.0,0.0,0.0,0.0,0.0,0.0,0.0,0.0,0.0,0.0,0.0,0.0,0.0,0.0,0.0,0.0,0.0,0.0,0.0,0.0,0.0,0.0,0.0,0.0,0.0,0.0,0.0,0.0,0.0,0.0,0.0,0.0,0.0,0.0,0.0,0.0,0.0,0.0,0.0,0.0,0.0,0.0,0.0,0.0,0.0,0.0,0.0,0.0,0.0,0.0,0.0,0.0,0.0,0.0,0.0,0.0,0.0,0.0,0.0,0.0,0.0,0.0,0.0,0.0,0.0,0.0,0.0,0.0,0.0,0.0,0.0,0.0,0.0,0.0,0.0,0.0,0.0,0.0,0.0,0.0,0.0,0.0,0.0,0.0,0.0,0.0,0.0,0.0,0.0,0.0,0.0,0.0,0.0,0.0,0.0,0.0,0.0,0.0,0.0,0.0,0.0,0.0,0.0,0.0,0.0,0.0,0.0,0.0,0.0,0.0,0.0,0.0,0.0,0.0,0.0,0.0,0.0,0.0,0.0,0.0,0.0,0.0,0.0,0.0,0.0,0.0,0.0,0.0,0.0,0.0,0.0,0.0,0.0,0.0,0.0,0.0,0.0,0.0,0.0,0.0,0.0,0.0,0.0,0.0,0.0,0.0,0.0,0.0,0.0,0.0,0.0,0.0,0.0,0.0,0.0,0.0,0.0,0.0,0.0,0.0,0.0,0.0,0.0,0.0,0.0,0.0,0.0,0.0,0.0,0.0,0.0,0.0,0.0,0.0,0.0,0.0,0.0,0.0,0.0,0.0,0.0,0.0,0.0,0.0,0.0,0.0,0.0,0.0,0.0,0.0,0.0,0.0,0.0,0.0,0.0,0.0,0.0,0.0,0.0,0.0,0.0,0.0,0.0,0.0,0.0,0.0,0.0,0.0,0.0,0.0,0.0,0.0,0.0,0.0,0.0,0.0,0.0,0.0,0.0,0.0,0.0,0.0,0.0,0.0,0.0,0.0,0.0,0.0,0.0,0.0,0.0,0.0,0.0,0.0,0.0,0.0,0.0,0.0,0.0,0.0,0.0,0.0,0.0,0.0,0.0,0.0,0.0,0.0,0.0,0.0,0.0,0.0,0.0,0.0,0.0,0.0,0.0,0.0,0.0,0.0,0.0,0.0,0.0,0.0,0.0,0.0,0.0,0.0,0.0,0.0,0.0,0.0,0.0,0.0,0.0,0.0,0.0,0.0,0.0,0.0,0.0,0.0,0.0,0.0,0.0,0.0,0.0,0.0,0.0,0.0,0.0,0.0,0.0,0.0,0.0,0.0,0.0,0.0,0.0,0.0,0.0,0.0,0.0,0.0,0.0,0.0,0.0,0.0,0.0,0.0,0.0,0.0,0.0,0.0,0.0,0.0,0.0,0.0,0.0,0.0,0.0,0.0,0.0,0.0,0.0,0.0,0.0,0.0,0.0,0.0,0.0,0.0,0.0,0.0,0.0,0.0,0.0,0.0,0.0,0.0,0.0,0.0,0.0,0.0,0.0,0.0,0.0,0.0,0.0,0.0,0.0,0.0,0.0,0.0,0.0,0.0,0.0,0.0,0.0,0.0,0.0,0.0,0.0,0.0,0.0,0.0,0.0,0.0,0.0,0.0,0.0,0.0,0.0,0.0,0.0,0.0,0.0,0.0,0.0,0.0,0.0,0.0,0.0,0.0,0.0,0.0,0.0,0.0,0.0,0.0,0.0,0.0,0.0,0.0,0.0,0.0,0.0,0.0,0.0,0.0,0.0,0.0,0.0,0.0,0.0,0.0,0.0,0.0,0.0,0.0,0.0,0.0,0.0,0.0,0.0,0.0,0.0,0.0,0.0,0.0,0.0,0.0,0.0,0.0,0.0,0.0,0.0,0.0,0.0,0.0,0.0,0.0,0.0,0.0,0.0,0.0,0.0,0.0,0.0,0.0,0.0,0.0,0.0,0.0,0.0,0.0,0.0,0.0,0.0,0.0,0.0,0.0,0.0,0.0,0.0,0.0,0.0,0.0,0.0,0.0,0.0,0.0,0.0,0.0,0.0,0.0,0.0,0.0,0.0,0.0,0.0,0.0,0.0,0.0,0.0,0.0,0.0,0.0,0.0,0.0,0.0,0.0,0.0,0.0,0.0,0.0,0.0,0.0,0.0,0.0,0.0,0.0,0.0,0.0,0.0,0.0,0.0,0.0,0.0,0.0,0.0,0.0,0.0,0.0,0.0,0.0,0.0,0.0,0.0,0.0,0.0,0.0,0.0,0.0,0.0,0.0,0.0,0.0,0.0,0.0,0.0,0.0,0.0,0.0,0.0,0.0,0.0,0.0,0.0,0.0,0.0,0.0,0.0,0.0,0.0,0.0,0.0,0.0,0.0,0.0,0.0,0.0,0.0,0.0,0.0,0.0,0.0,0.0,0.0,0.0,0.0,0.0,0.0,0.0,0.0,0.0,0.0,0.0,0.0,0.0,0.0,0.0,0.0,0.0,0.0,0.0,0.0,0.0,0.0,0.0,0.0,0.0,0.0,0.0,0.0,0.0,0.0,0.0,0.0,0.0,0.0,0.0,0.0,0.0,0.0,0.0,0.0,0.0,0.0,0.0,0.0,0.0,0.0,0.0,0.0,0.0,0.0,0.0,0.0,0.0,0.0,0.0,0.0,0.0,0.0,0.0,0.0,0.0,0.0,0.0,0.0,0.0,0.0,0.0,0.0,0.0,0.0,0.0,0.0,0.0,0.0,0.0,0.0,0.0,0.0,0.0,0.0,0.0,0.0,0.0,0.0,0.0,0.0,0.0,0.0,0.0,0.0,0.0,0.0,0.0,0.0,0.0,0.0,0.0,0.0,0.0,0.0,0.0,0.0,0.0,0.0,0.0,0.0,0.0,0.0,0.0,0.0,0.0,0.0,0.0,0.0,0.0,0.0,0.0,0.0,0.0,0.0,0.0,0.0,0.0,0.0,0.0,0.0,0.0,0.0,0.0,0.0,0.0,0.0,0.0,0.0,0.0,0.0,0.0,0.0,0.0,0.0,0.0,0.0,0.0,0.0,0.0,0.0,0.0,0.0,0.0,0.0,0.0,0.0,0.0,0.0,0.0,0.0,0.0,0.0,0.0,0.0,0.0,0.0,0.0,0.0,0.0,0.0,0.0,0.0,0.0,0.0,0.0,0.0,0.0,0.0,0.0,0.0,0.0,0.0,0.0,0.0,0.0,0.0,0.0,0.0,0.0,0.0,0.0,0.0,0.0,0.0,0.0,0.0,0.0,0.0,0.0,0.0,0.0,0.0,0.0,0.0,0.0,0.0,0.0,0.0,0.0,0.0,0.0,0.0,0.0,0.0,0.0,0.0,0.0,0.0,0.0,0.0,0.0,0.0,0.0,0.0,0.0,0.0,0.0,0.0,0.0,0.0,0.0,0.0,0.0,0.0,0.0,0.0,0.0,0.0,0.0,0.0,0.0,0.0,0.0,0.0,0.0,0.0,0.0,0.0,0.0,0.0,0.0,0.0,0.0,0.0,0.0,0.0,0.0,0.0,0.0,0.0,0.0,0.0,0.0,0.0,0.0,0.0,0.0,0.0,0.0,0.0,0.0,0.0,0.0,0.0,0.0,0.0,0.0,0.0,0.0,0.0,0.0,0.0,0.0,0.0,0.0,0.0,0.0,0.0,0.0,0.0,0.0,0.0,0.0,0.0,0.0,0.0,0.0,0.0,0.0,0.0,0.0,0.0,0.0,0.0,0.0,0.0,0.0,0.0,0.0,0.0,0.0,0.0,0.0,0.0,0.0,0.0,0.0,0.0,0.0,0.0,0.0,0.0,0.0,0.0,0.0,0.0,0.0,0.0,0.0,0.0,0.0,0.0,0.0,0.0,0.0,0.0,0.0,0.0,0.0,0.0,0.0,0.0,0.0,0.0,0.0,0.0,0.0,0.0,0.0,0.0,0.0,0.0,0.0,0.0,0.0,0.0,0.0,0.0,0.0,0.0,0.0,0.0,0.0,0.0,0.0,0.0,0.0,0.0,0.0,0.0,0.0,0.0,0.0,0.0,0.0,0.0,0.0,0.0,0.0,0.0,0.0,0.0,0.0,0.0,0.0,0.0,0.0,0.0,0.0,0.0,0.0,0.0,0.0,0.0,0.0,0.0,0.0,0.0,0.0,0.0,0.0,0.0,0.0,0.0,0.0,0.0,0.0,0.0,0.0,0.0,0.0,0.0,0.0,0.0,0.0,0.0,0.0,0.0,0.0,0.0,0.0,0.0,0.0,0.0,0.0,0.0,0.0,0.0,0.0,0.0,0.0,0.0,0.0,0.0,0.0,0.0,0.0,0.0,0.0,0.0,0.0,0.0,0.0,0.0,0.0,0.0,0.0,0.0,0.0,0.0,0.0,0.0,0.0,0.0,0.0,0.0,0.0,0.0,0.0,0.0,0.0,0.0,0.0,0.0,0.0,0.0,0.0,0.0,0.0,0.0,0.0,0.0,0.0,0.0,0.0,0.0,0.0,0.0,0.0,0.0,0.0,0.0,0.0,0.0,0.0,0.0,0.0,0.0,0.0,0.0,0.0,0.0,0.0,0.0,0.0,0.0,0.0,0.0,0.0,0.0,0.0,0.0,0.0,0.0,0.0,0.0,0.0,0.0,0.0,0.0,0.0,0.0,0.0,0.0,0.0,0.0,0.0,0.0,0.0,0.0,0.0,0.0,0.0,0.0,0.0,0.0,0.0,0.0,0.0,0.0,0.0,0.0,0.0,0.0,0.0,0.0,0.0,0.0,0.0,0.0,0.0,0.0,0.0,0.0,0.0,0.0,0.0,0.0,0.0,0.0,0.0,0.0,0.0,0.0,0.0,0.0,0.0,0.0,0.0,0.0,0.0,0.0,0.0,0.0,0.0,0.0,0.0,0.0,0.0,0.0,0.0,0.0,0.0,0.0,0.0,0.3124,0.0,0.0,0.0,0.0,0.0,0.0,0.0,0.0,0.0,0.0,0.0,0.0,0.0,0.0,0.0,0.0,0.0,0.0,0.0,0.0,0.0,0.0,0.0,0.0,0.058,0.066,0.0661,0.0807,0.1005,0.1246,0.1161,0.1219,0.1461,0.1403,0.1368,0.1368,0.1368,0.1574,0.2001,0.1937,0.2176,0.2682,0.2517,0.2394,0.2333,0.0,0.0,0.0,0.0,0.0,0.0,0.0,0.0,0.0,0.0,0.0,0.0,0.0,0.0,0.0,0.0,0.0,0.0,0.0,0.0,0.0,0.0,0.0,0.0,0.0,0.0,0.0,0.0,0.0,0.0,0.0,0.0,0.0,0.0,0.0,0.0,0.0,0.0,0.0,0.0,0.0,0.0,0.0,0.0,0.0,0.0,0.0,0.0,0.0,0.0,0.0,0.0,0.0,0.0,0.0,0.0,0.0,0.0,0.0,0.0,0.0,0.0,0.0,0.0,0.0,0.0,0.0,0.0,0.0,0.0,0.0,0.3557,0.0,0.0,0.0,0.0,0.0,0.0,0.0,0.0,0.0,0.0,0.0,0.0,0.0,0.0,0.0,0.0,0.0,0.0,0.0,0.0,0.0,0.0,0.0,0.0195,0.0331,0.0329,0.0583,0.0779,0.0862,0.083,0.0846,0.0931,0.0913,0.0899,0.0903,0.0899,0.121,0.1845,0.1788,0.2072,0.2672,0.2701,0.2647,0.2552,0.2671,0.0,0.0,0.0,0.0,0.0,0.0,0.0,0.0,0.0,0.0,0.0,0.0,0.0,0.0,0.0,0.0,0.0,0.0,0.0,0.0,0.0,0.0,0.0,0.0,0.0,0.0,0.0,0.0,0.0,0.0,0.0,0.0,0.0,0.0,0.0,0.0,0.0,0.0,0.0,0.0,0.0,0.0,0.0,0.0,0.0,0.0,0.0,0.0,0.0,0.0,0.0,0.0,0.0,0.0,0.0,0.0,0.0,0.0,0.0,0.0,0.0,0.0,0.0,0.4865,0.4979,0.5058,0.5058,0.5132,0.5218,0.4611,0.445,0.458,0.4233,0.0,0.0,0.0,0.0,0.0,0.0,0.0,0.0,0.0,0.0,0.0,0.0,0.0,0.0,0.0,0.0,0.0,0.0,0.0,0.0,0.0,0.0029,0.0055,0.0053,0.0093,0.0294,0.0697,0.0564,0.0644,0.1058,0.0964,0.0897,0.0897,0.0897,0.1008,0.1222,0.1489,0.1676,0.1776,0.1888,0.193,0.1946,0.2592,0.2869,0.2829,0.0,0.0,0.0,0.0,0.0,0.0,0.0,0.0,0.0,0.0,0.0,0.0,0.0,0.0,0.0,0.0,0.0,0.0,0.0,0.0,0.0,0.0,0.0,0.0,0.0,0.0,0.0,0.0,0.0,0.0,0.0,0.0,0.0,0.0,0.0,0.0,0.0,0.0,0.0,0.0,0.0,0.0841,0.1338,0.0,0.0,0.0,0.0,0.0,0.0,0.0,0.0,0.0,0.0,0.0,0.0,0.0,0.4958,0.5362,0.5515,0.5603,0.563,0.5761,0.5775,0.5684,0.5684,0.5748,0.5872,0.577,0.0,0.499,0.4593,0.0,0.0,0.0,0.0,0.0,0.0,0.0,0.0,0.0,0.0,0.0,0.0,0.0,0.0,0.0,0.0,0.0,0.0,0.0,0.0,0.0,0.0,0.0,0.0,0.0,0.0084,0.0295,0.0228,0.0267,0.047,0.0425,0.0396,0.0398,0.0399,0.0584,0.0984,0.1546,0.1782,0.1709,0.1779,0.1805,0.1812,0.2139,0.2429,0.2686,0.2866,0.0,0.0,0.0,0.0,0.0,0.0,0.0,0.0,0.0,0.0,0.0,0.0,0.0,0.0,0.0,0.0,0.0,0.0,0.0,0.0,0.0,0.0,0.0,0.0,0.0,0.0,0.0,0.0,0.0,0.0,0.0,0.0,0.0,0.0,0.0,0.0,0.0,0.0,0.0,0.0529,0.0987,0.1167,0.1423,0.1583,0.0,0.0,0.0,0.0,0.0,0.0,0.0,0.0,0.0,0.2735,0.3258,0.3644,0.3862,0.3999,0.4095,0.4169,0.4234,0.4262,0.431,0.4986,0.5334,0.5425,0.6106,0.6207,0.5847,0.5416,0.5176,0.5065,0.0,0.0,0.0,0.0,0.468,0.4877,0.0,0.0,0.0,0.0,0.0,0.0,0.0,0.0,0.0,0.0,0.0,0.0,0.0,0.0,0.0,0.0,0.0,0.0,0.0,0.0,0.0,0.0,0.0,0.0,0.0,0.0,0.0224,0.0675,0.1224,0.1442,0.1331,0.1343,0.1335,0.1349,0.1536,0.1907,0.2392,0.2722,0.275,0.2549,0.0,0.0,0.0,0.0,0.0,0.0,0.0,0.0,0.0,0.0,0.0,0.0,0.0,0.0,0.0,0.0,0.0,0.0,0.0,0.0,0.0,0.0,0.0,0.0,0.0,0.0,0.0,0.0,0.0,0.0,0.0,0.0,0.0,0.0,0.0,0.0,0.0,0.0469,0.0823,0.0815,0.1126,0.1333,0.0,0.0,0.0,0.0,0.0,0.0,0.1488,0.19,0.211,0.2052,0.2417,0.2645,0.2719,0.2809,0.2927,0.3071,0.3071,0.3141,0.3256,0.4151,0.4558,0.4643,0.5833,0.6137,0.5776,0.5885,0.5895,0.5802,0.543,0.5372,0.5484,0.5369,0.546,0.5644,0.0,0.0,0.0,0.0,0.0,0.0,0.0,0.0,0.0,0.0,0.0,0.0,0.0,0.0,0.0,0.0,0.0,0.0,0.0,0.0,0.0,0.0,0.0,0.0,0.0,0.0,0.0013,0.0042,0.0087,0.0103,0.0088,0.0091,0.0092,0.0123,0.0828,0.1461,0.2015,0.1781,0.1678,0.1681,0.1924,0.0,0.0,0.0,0.0,0.0,0.0,0.0,0.0,0.0,0.0,0.0,0.0,0.0,0.0,0.0,0.0,0.0,0.0,0.0,0.0,0.0,0.0,0.0,0.0,0.0,0.0,0.0,0.0,0.0,0.0,0.0,0.0,0.0,0.0,0.0,0.0,0.0,0.0,0.0059,0.0081,0.0,0.0,0.0,0.0,0.0084,0.0732,0.0818,0.0131,0.1612,0.2206,0.1654,0.244,0.3025,0.3353,0.3295,0.3374,0.3576,0.3576,0.3576,0.358,0.3646,0.3669,0.3739,0.494,0.4802,0.3882,0.5583,0.6171,0.5984,0.5833,0.5772,0.5793,0.5917,0.6084,0.6259,0.0,0.0,0.0,0.0,0.0,0.0,0.0,0.0,0.0,0.0,0.0,0.0,0.0,0.0,0.0,0.0,0.0,0.0,0.0,0.0,0.0,0.0,0.0,0.0,0.0,0.0,0.0,0.0,0.0,0.0,0.0,0.0,0.0,0.0017,0.0275,0.0506,0.0759,0.1526,0.1811,0.1728,0.174,0.1685,0.0,0.0,0.0,0.0,0.0,0.0,0.0,0.0,0.0,0.0,0.0,0.0,0.0,0.0,0.0,0.0,0.0,0.0,0.0,0.0,0.0,0.0,0.0,0.0,0.0,0.0,0.0,0.0,0.0,0.0,0.0,0.0,0.0,0.0,0.0,0.0,0.0,0.0,0.0,0.0,0.0,0.0,0.0,0.0,0.0244,0.0274,0.0021,0.0567,0.0799,0.0586,0.088,0.109,0.1222,0.1199,0.1202,0.1281,0.1281,0.1281,0.1304,0.2093,0.2442,0.2511,0.3718,0.3996,0.3661,0.4298,0.4901,0.5493,0.6132,0.6376,0.639,0.6444,0.6498,0.6566,0.0,0.0,0.0,0.0,0.0,0.0,0.0,0.0,0.0,0.0,0.0,0.0,0.0,0.0,0.0,0.0,0.0,0.0,0.0,0.0,0.0,0.0,0.0,0.0,0.0,0.0,0.0,0.0,0.0,0.0,0.0,0.0,0.0,0.0,0.0,0.0,0.0053,0.095,0.127,0.121,0.1318,0.1335,0.1292,0.0,0.0,0.0,0.0,0.0,0.0,0.0,0.0,0.0,0.0,0.0,0.0,0.0,0.0,0.0,0.0,0.0,0.0,0.0,0.0,0.0,0.0,0.0,0.0,0.0,0.0,0.0,0.0,0.0,0.0,0.0,0.0,0.0,0.0,0.0,0.0,0.0,0.0,0.0,0.0,0.0,0.0,0.0,0.0,0.0,0.0,0.0,0.0,0.0,0.0,0.0,0.0,0.0,0.0,0.0,0.0,0.0,0.0024,0.0834,0.119,0.1261,0.2471,0.2754,0.2446,0.3275,0.3754,0.4101,0.5215,0.5662,0.5644,0.5644,0.5905,0.6314,0.0,0.0,0.0,0.0,0.0,0.0,0.0,0.0,0.0,0.0,0.0,0.0,0.0,0.0,0.0,0.0,0.0,-0.0014,-0.0042,-0.0014,0.0,0.0,0.0,0.0,0.0,0.0,0.0,0.0,0.0,0.0,0.0,0.0,0.0,0.0,0.0,0.0,0.0,0.0,0.0,0.0046,0.0644,0.0793,0.0737,0.0,0.0,0.0,0.0,0.0,0.0,0.0,0.0,0.0,0.0,0.0,0.0,0.0,0.0,0.0,0.0,0.0,0.0,0.0,0.0,0.0,0.0,0.0,0.0,0.0,0.0,0.0,0.0,0.0,0.0,0.0,0.0,0.0,0.0,0.0,0.0,0.0,0.0,0.0,0.0,0.0,0.0,0.0,0.0,0.0,0.0,0.0,0.0,0.0,0.0,0.0,0.0,0.0,0.0,0.0,0.0,0.0,0.0,0.0,0.0,0.0072,0.1242,0.1075,0.0191,0.2523,0.2809,0.1878,0.3115,0.3594,0.36,0.36,0.4336,0.5497,0.0,0.0,0.0,0.0,0.0,0.0,0.0,0.0,0.0,0.0,0.0,0.0,0.0,0.0,0.0,0.0,0.0,-0.027,-0.0907,-0.0357,0.0,0.0,0.0,0.0,0.0,0.0,0.0,0.0,0.0,0.0,0.0,0.0,0.0,0.0,0.0,0.0,0.0,0.0,0.0,0.0018,0.0178,0.0228,0.0209,0.0,0.0,0.0,0.0,0.0,0.0,0.0,0.0,0.0,0.0,0.0,0.0,0.0,0.0,0.0,0.0,0.0,0.0,0.0,0.0,0.0,0.0,0.0,0.0,0.0,0.0,0.0,0.0,0.0,0.0,0.0,0.0,0.0,0.0,0.0,0.0,0.0,0.0,0.0,0.0,0.0,0.0,0.0,0.0,0.0,0.0,0.0,0.0,0.0,0.0,0.0,0.0,0.0,0.0,0.0,0.0,0.0,0.0,0.0,0.0,0.0026,0.0362,0.0308,0.0051,0.071,0.0798,0.0704,0.2777,0.3588,0.3595,0.3595,0.3813,0.4146,0.0,0.0,0.0,0.0,0.0,0.0,0.0,0.0,0.0,0.0,0.0,-0.0122,-0.0422,-0.0458,-0.0463,-0.0466,-0.0749,-0.1006,-0.1203,-0.1166,-0.116,-0.1214,-0.0872,-0.0664,-0.0672,-0.0235,0.0,0.0,0.0,0.0,0.0,0.0,0.0,0.0,0.0,0.0,0.0,0.0,0.0,0.0,0.0,0.0,0.0,0.0,0.0212,0.051,0.043,0.0636,0.0911,0.08,0.0,0.0,0.0,0.0,0.0,0.0,0.0,0.0,0.0,0.0,0.0,0.0,0.0,0.0,0.0,0.0,0.0,0.0,0.0,0.0,0.0,0.0,0.0,0.0,0.0,0.0,0.0,0.0,0.0,0.0,0.0,0.0,0.0,0.0,0.0,0.0,0.0,0.0,0.0,0.0,0.0,0.0,0.0,0.0,0.0,0.0,0.0,0.0,0.0,0.0,0.0,0.0,0.0,0.0,0.0,0.0,0.0,0.0,0.0,0.0,0.0,0.0,0.0,0.0,0.2852,0.2911,0.0,0.0,0.0,0.0,0.0,0.0,0.0,0.0,0.0,0.0,-0.0059,-0.0356,-0.1012,-0.114,-0.119,-0.1196,-0.184,-0.1977,-0.1367,-0.2329,-0.2928,-0.2949,-0.2228,-0.1818,-0.1822,-0.0889,-0.0402,-0.0403,-0.0403,-0.0403,-0.0403,-0.0276,-0.0212,-0.0191,-0.0064,0.0,0.0,0.0,0.0,0.0,0.0,0.0,0.0,0.0,0.0,0.0,0.0,0.0,0.0,0.0,0.0,0.0,0.0,0.0,0.0,0.0,0.0,0.0,0.0,0.0,0.0,0.0,0.0,0.0,0.0,0.0,0.0,0.0,0.0,0.0,0.0,0.0,0.0,0.0,0.0,0.0,0.0,0.0,0.0,0.0,0.0,0.0,0.0,0.0,0.0,0.0,0.0,0.0,0.0,0.0,0.0,0.0,0.0,0.0,0.0,0.0,0.0,0.0,0.0,0.0,0.0,0.0,0.0,0.0,0.0,0.0,0.0,0.0,0.0,0.0,0.0,0.0,0.012,0.1195,0.16,0.1741,0.0,0.0,0.0,0.0,0.0,0.0,0.0,0.0,0.0,0.0,-0.0422,-0.0783,-0.0925,-0.1369,-0.1711,-0.1817,-0.2205,-0.2513,-0.2704,-0.3723,-0.4013,-0.3343,-0.3252,-0.3219,-0.3207,-0.3001,-0.2909,-0.2911,-0.2911,-0.2911,-0.2889,-0.1901,-0.1459,-0.1415,-0.0444,0.0,0.0,0.0,0.0,0.0,0.0,0.0,0.0,0.0,0.0,0.0,0.0,0.0,0.0,0.0,0.0,0.0,0.0,0.0,0.0,0.0,0.0,0.0,0.0,0.0,0.0,0.0,0.0,0.0,0.0,0.0,0.0,0.0,0.0,0.0,0.0,0.0,0.0,0.0,0.0,0.0,0.0,0.0,0.0,0.0,0.0,0.0,0.0,0.0,0.0,0.0,0.0,0.0,0.0,0.0,0.0,0.0,0.0,0.0,0.0,0.0,0.0,0.0,0.0,0.0,0.0,0.0,0.0,0.0,0.0,0.0,0.0,0.0,0.0,0.0,0.0,0.0,0.0025,0.027,0.0342,0.0389,0.0,0.0,0.0,0.0,0.0,0.0,0.0,0.0,-0.0131,-0.0506,-0.0817,-0.1256,-0.1931,-0.2336,-0.2554,-0.2547,-0.2861,-0.3352,-0.4056,-0.482,-0.5131,-0.4871,-0.4537,-0.4342,-0.4346,-0.3849,-0.36,-0.3594,-0.3594,-0.3594,-0.3594,-0.2992,-0.2702,-0.268,-0.208,-0.1455,-0.0896,-0.0896,-0.0558,0.0,0.0,0.0,0.0,0.0,0.0,0.0,0.0,0.0,0.0,0.0,0.0,0.0,0.0,0.0,0.0,0.0,0.0,0.0,0.0,0.0,0.0,0.0,0.0,0.0,0.0,0.0,0.0,0.0,0.0,0.0,0.0,0.0,0.0,0.0,0.0,0.0,0.0,0.0,0.0,0.0,0.0,0.0,0.0,0.0,0.0,0.0,0.0,0.0,0.0,0.0,0.0,0.0,0.0,0.0,0.0,0.0,0.0,0.0,0.0,0.0,0.0,0.0,0.0,0.0,0.0,0.0,0.0,0.0,0.0,0.0,0.0,0.0,0.0,0.0,0.0,0.0,0.0,0.0,0.0,0.0,0.0,0.0,0.0,0.0,-0.0252,-0.0963,-0.1182,-0.1726,-0.293,-0.3284,-0.3425,-0.341,-0.3704,-0.4272,-0.5181,-0.5684,-0.6076,-0.6375,-0.5811,-0.548,-0.548,-0.4687,-0.4283,-0.4283,-0.4283,-0.4283,-0.4283,-0.4061,-0.395,-0.395,-0.3705,-0.3059,-0.2124,-0.1901,-0.1233,-0.0337,-0.009,0.0,0.0,0.0,0.0,0.0,0.0,0.0,0.0,0.0,0.0,0.0,0.0,0.0,0.0,0.0,0.0,0.0,0.0,0.0,0.0,0.0,0.0,0.0,0.0,0.0,0.0,0.0,0.0,0.0,0.0,0.0,0.0,0.0,0.0,0.0,0.0,0.0,0.0,0.0,0.0,0.0,0.0,0.0,0.0,0.0,0.0,0.0,0.0,0.0,0.0,0.0,0.0,0.0,0.0,0.0,0.0,0.0,0.0,0.0,0.0,0.0,0.0,0.0,0.0,0.0,0.0,0.0,0.0,0.0,0.0,0.0,0.0,0.0,0.0,0.0,0.0,0.0,0.0,0.0,0.0,0.0,0.0,0.0,-0.0226,-0.0844,-0.1489,-0.2168,-0.2845,-0.3519,-0.4082,-0.4486,-0.4778,-0.5162,-0.568,-0.6165,-0.6491,-0.6647,-0.6795,-0.6873,-0.6873,-0.6776,-0.6716,-0.6716,-0.6716,-0.6716,-0.6694,-0.5669,-0.5203,-0.5154,-0.4083,-0.3527,-0.3326,-0.2258,-0.1724,-0.15,-0.0426,0.0,0.0,0.0,0.0,0.0,0.0,0.0,0.0,0.0,0.0,0.0,0.0,0.0,0.0,0.0,0.0,0.0,0.0,0.0,0.0,0.0,0.0,0.0,0.0,0.0,0.0,0.0,0.0,0.0,0.0,0.0,0.0,0.0,0.0,0.0,0.0,0.0,0.0,0.0,0.0,0.0,0.0,0.0,0.0,0.0,0.0,0.0,0.0,0.0,0.0,0.0,0.0,0.0,0.0,0.0,0.0,0.0,0.0,0.0,0.0,0.0,0.0,0.0,0.0,0.0,0.0,0.0,0.0,0.0,0.0,0.0,0.0,0.0,0.0,0.0,0.0,0.0,0.0,0.0,0.0,0.0,0.0,0.0,-0.0248,-0.0924,-0.1587,-0.2231,-0.2833,-0.3562,-0.4105,-0.4382,-0.4833,-0.5234,-0.5545,-0.6144,-0.6559,-0.6695,-0.6965,-0.7098,-0.7098,-0.7098,-0.7098,-0.7098,-0.7098,-0.7098,-0.7098,-0.6605,-0.6384,-0.6362,-0.5863,-0.5265,-0.4576,-0.3371,-0.2437,-0.1746,-0.1255,-0.1053,-0.105,-0.104,-0.1361,-0.1718,-0.1147,-0.0863,0.0,-0.0882,-0.0853,-0.0663,-0.0161,0.0,-0.0121,-0.075,-0.1042,-0.1317,-0.2022,-0.2221,-0.2239,-0.2316,-0.2392,-0.2235,-0.1465,-0.1276,-0.1034,-0.018,-0.0681,-0.1272,-0.1281,-0.2089,-0.2739,-0.2741,-0.2801,-0.2854,-0.2844,-0.2795,-0.242,-0.157,-0.2153,-0.1915,-0.0172,0.0,0.0,0.0,0.0,0.0,0.0,0.0,0.0,0.0,0.0,0.0,0.0,0.0,0.0,0.0,0.0,0.0,0.0,0.0,0.0,0.0,0.0,0.0,0.0,0.0,0.0,0.0,0.0,0.0,0.0,0.0,0.0,0.0,0.0,0.0,0.0,0.0,0.0,0.0,0.0,0.0,-0.0248,-0.0953,-0.1458,-0.2068,-0.2915,-0.3636,-0.4119,-0.4267,-0.4746,-0.5119,-0.5307,-0.5974,-0.6457,-0.6627,-0.6897,-0.7058,-0.7098,-0.7098,-0.7098,-0.7098,-0.7098,-0.7098,-0.7098,-0.7098,-0.7098,-0.7098,-0.7098,-0.665,-0.5758,-0.4239,-0.3282,-0.2727,-0.2057,-0.1962,-0.221,-0.2172,-0.2532,-0.2918,-0.1877,-0.1564,-0.1647,-0.1792,-0.1753,-0.1515,-0.0888,-0.0707,-0.0916,-0.1808,-0.2247,-0.264,-0.3552,-0.3792,-0.3842,-0.4007,-0.4175,-0.4023,-0.3049,-0.2843,-0.2536,-0.1452,-0.208,-0.2829,-0.2829,-0.3835,-0.4647,-0.4686,-0.477,-0.4845,-0.4895,-0.4774,-0.4294,-0.3242,-0.3921,-0.3628,-0.146,-0.1281,-0.1127,-0.0727,-0.0674,-0.0494,-0.0031,0.0,0.0,0.0,0.0,0.0,0.0,0.0,0.0,0.0,0.0,0.0,0.0,0.0,0.0,0.0,0.0,0.0,0.0,0.0,0.0,0.0,0.0,0.0,0.0,0.0,0.0,0.0,0.0,0.0,0.0,0.0,0.0,0.0,0.0,0.0,-0.0216,-0.0823,-0.1037,-0.1674,-0.3128,-0.3833,-0.4274,-0.447,-0.4741,-0.497,-0.5096,-0.5669,-0.6154,-0.6484,-0.677,-0.6979,-0.7092,-0.7098,-0.7098,-0.7098,-0.7098,-0.7098,-0.7098,-0.7098,-0.7098,-0.7098,-0.7098,-0.7076,-0.6893,-0.4572,-0.4261,-0.5092,-0.275,-0.2385,-0.3237,-0.3114,-0.2997,-0.2771,-0.1696,-0.1807,-0.2471,-0.2471,-0.2471,-0.2465,-0.2436,-0.2515,-0.2704,-0.3119,-0.3381,-0.3593,-0.3758,-0.3798,-0.3864,-0.4131,-0.4333,-0.4479,-0.4429,-0.4427,-0.4422,-0.4363,-0.4408,-0.4439,-0.4439,-0.447,-0.4549,-0.4693,-0.4717,-0.4745,-0.488,-0.4795,-0.4686,-0.464,-0.4543,-0.4469,-0.4369,-0.447,-0.3952,-0.2547,-0.2431,-0.1725,-0.0093,0.0,0.0,0.0,0.0,0.0,0.0,0.0,0.0,0.0,0.0,0.0,0.0,0.0,0.0,0.0,0.0,0.0,0.0,0.0,0.0,0.0,0.0,0.0,0.0,0.0,0.0,0.0,0.0,0.0,0.0,0.0,0.0,0.0,0.0,0.0,-0.0069,-0.0274,-0.0694,0.0,0.0,0.0,0.0,0.0,-0.4673,-0.4963,-0.509,-0.5586,-0.5951,-0.6154,-0.6464,-0.6695,-0.6823,-0.6924,-0.7004,-0.7098,-0.7098,-0.7098,-0.7098,-0.7098,-0.7098,-0.7098,-0.7098,-0.7098,-0.7003,-0.5442,-0.5021,-0.5309,-0.4375,-0.4199,-0.4484,-0.4455,-0.4594,-0.4683,0.0,-0.3285,-0.3382,-0.3464,-0.344,-0.3272,-0.2788,-0.273,-0.3074,-0.433,-0.5378,-0.6167,-0.6391,-0.6619,-0.6846,-0.7115,-0.7299,-0.7187,-0.6305,-0.6079,-0.574,-0.4546,-0.5107,-0.5818,-0.5818,-0.6704,-0.7505,-0.7783,-0.7896,-0.7992,-0.8142,-0.8026,-0.7546,-0.6427,-0.7156,-0.7338,-0.6322,-0.523,0.0,-0.3987,-0.2939,-0.2102,-0.1693,-0.0617,0.0,0.0,0.0,0.0,0.0,0.0,0.0,0.0,0.0,0.0,0.0,0.0,0.0,0.0,0.0,0.0,0.0,0.0,0.0,0.0,0.0,0.0,0.0,0.0,0.0,0.0,0.0,0.0,0.0,0.0,0.0,0.0,0.0,0.0,0.0,0.0,0.0,0.0,0.0,0.0,0.0,0.0,0.0,-0.4862,-0.495,-0.5329,-0.564,-0.5849,-0.6057,-0.6273,-0.6438,-0.6485,-0.658,-0.6701,-0.6776,-0.683,-0.6884,-0.6938,-0.6965,-0.6965,-0.6965,-0.6965,-0.6872,-0.5719,-0.548,-0.5816,-0.5199,-0.5194,-0.5514,-0.5399,-0.5482,0.0,-0.4734,-0.4339,-0.4207,-0.4288,-0.4264,-0.4135,-0.3769,-0.3929,-0.4488,-0.5603,-0.6678,-0.7553,-0.7882,-0.8185,-0.8457,-0.8784,-0.8981,-0.8849,-0.7942,-0.7658,-0.7243,-0.5998,-0.6524,-0.7209,-0.7142,-0.8025,-0.8893,-0.9274,-0.941,-0.9537,-0.9758,-0.97,-0.9206,-0.8113,-0.8826,-0.9022,-0.803,-0.6919,0.0,-0.5704,-0.466,-0.3588,-0.2553,-0.1479,-0.0617,-0.0031,0.0,0.0,0.0,0.0,0.0,0.0,0.0,0.0,0.0,0.0,0.0,0.0,0.0,0.0,0.0,0.0,0.0,0.0,0.0,0.0,0.0,0.0,0.0,0.0,0.0,0.0,0.0,0.0,0.0,0.0,0.0,0.0,0.0,0.0,0.0,0.0,0.0,0.0,0.0,0.0,0.0,0.0,-0.4687,-0.4936,-0.5227,-0.5542,-0.5579,-0.5705,-0.5984,-0.5856,-0.5863,-0.6025,-0.6205,-0.6368,-0.6484,-0.6627,-0.6675,-0.6675,-0.6675,-0.6675,-0.6613,-0.5448,-0.5634,-0.6558,-0.5289,-0.5376,-0.6252,-0.5922,-0.5641,-0.5351,-0.5047,-0.4916,-0.4896,-0.4916,-0.495,-0.5031,-0.5371,-0.6042,-0.6756,-0.6897,-0.7263,-0.774,-0.8199,-0.8437,-0.8662,-0.9097,-0.9308,-0.9369,-0.9248,-0.9035,-0.8804,-0.8513,-0.8471,-0.8423,-0.8267,-0.8383,-0.8641,-0.9105,-0.92,-0.9349,-0.9731,-0.9707,-0.9618,-0.9612,-0.949,-0.943,-0.9424,-0.943,0.0,-0.7621,0.0,-0.6041,-0.2923,-0.2677,-0.1879,-0.0308,-0.0247,-0.0247,-0.0247,-0.0154,-0.0123,-0.0123,-0.0031,0.0,0.0,0.0,0.0,0.0,0.0,0.0,0.0,0.0,0.0,0.0,0.0,0.0,0.0,0.0,0.0,0.0,0.0,0.0,0.0,0.0,0.0,0.0,0.0,0.0,0.0,0.0,0.0,0.0,0.0,0.0,0.0,0.0,0.0,0.0,-0.4651,-0.4762,-0.4891,-0.5065,-0.5173,-0.5376,-0.5698,-0.5766,-0.5935,-0.6219,-0.6279,-0.632,-0.6354,-0.6395,-0.6396,-0.6396,-0.6396,-0.6396,-0.6369,-0.6074,-0.6113,-0.6356,-0.5873,-0.5834,-0.6059,-0.5984,-0.5626,-0.5193,-0.5365,-0.5128,-0.4802,-0.5151,-0.5634,-0.613,-0.6321,-0.6668,-0.706,-0.7346,-0.7821,-0.8309,-0.8533,-0.8872,-0.9233,-0.9435,-0.9435,-0.9369,-0.9248,-0.8954,-0.8595,-0.8092,-0.7984,-0.7868,-0.7472,-0.7916,-0.8423,-0.8641,-0.9056,-0.9471,-0.9744,-0.9758,-0.9697,-0.9618,-0.9666,-0.9666,-0.9564,-0.9646,0.0,0.0,-0.7925,-0.6884,-0.6193,-0.4977,-0.4088,-0.3658,-0.3658,-0.3658,-0.3658,-0.2462,-0.1848,-0.1848,-0.0586,0.0,0.0,0.0,0.0,0.0,0.0,0.0,0.0,0.0,0.0,0.0,0.0,0.0,0.0,0.0,0.0,0.0,0.0,0.0,0.0,0.0,0.0,0.0,0.0,0.0,0.0,0.0,0.0,0.0,0.0,0.0,0.0,0.0,0.0,0.0,0.0,-0.4117,-0.4336,-0.4794,-0.483,-0.4952,-0.5205,-0.527,-0.5416,-0.5603,-0.5715,-0.5766,-0.5766,-0.587,-0.5904,-0.5904,-0.5904,-0.5904,-0.5904,-0.5904,-0.5904,0.0,0.0,-0.566,-0.5725,-0.5572,-0.5315,-0.5045,-0.5214,-0.5291,-0.5345,-0.5818,-0.6287,-0.6709,-0.6926,-0.7197,-0.7486,-0.7875,-0.8269,-0.8642,-0.8927,-0.9239,-0.9517,-0.9666,-0.9544,-0.9356,-0.911,-0.8777,-0.8343,-0.774,-0.7617,-0.7482,-0.7006,-0.7509,-0.8045,-0.8255,-0.8791,-0.9313,-0.968,-0.9751,-0.9758,-0.9713,-0.9798,-0.9859,-0.9778,-0.9937,-1.0025,0.0,-0.8927,-0.8027,-0.7418,-0.6508,-0.5651,-0.4916,-0.4885,-0.4885,-0.4885,-0.3996,-0.3566,-0.3536,-0.2585,-0.1787,-0.111,-0.111,-0.071,0.0,0.0,0.0,0.0,0.0,0.0,0.0,0.0,0.0,0.0,0.0,0.0,0.0,0.0,0.0,0.0,0.0,0.0,0.0,0.0,0.0,0.0,0.0,0.0,0.0,0.0,-0.0565,0.0,0.0,0.0,0.0,0.0,0.0,-0.3629,-0.448,-0.4405,-0.4447,-0.4702,-0.4708,-0.4715,-0.4721,-0.4963,-0.5069,-0.5076,-0.5253,-0.5337,-0.5337,-0.5337,-0.5337,-0.5337,-0.5337,-0.5337,-0.5324,-0.516,-0.5209,-0.5337,0.0,-0.495,-0.493,-0.493,-0.5383,-0.6052,-0.6519,-0.6837,-0.7073,-0.7373,-0.7665,-0.7984,-0.8418,-0.8648,-0.8866,-0.9293,-0.9523,-0.9659,-0.9737,-0.9557,-0.9245,-0.8919,-0.8499,-0.8008,-0.7423,-0.7308,-0.7158,-0.6668,-0.7122,-0.7665,-0.7939,-0.8507,-0.9075,-0.9571,-0.9731,-0.9819,-0.9819,-0.9954,-1.0049,-1.0049,-1.0202,-1.0315,-1.0315,-1.0032,-0.9265,-0.7868,-0.7777,-0.7092,-0.5636,-0.5563,-0.5559,-0.5559,-0.5345,-0.5223,-0.5223,-0.5008,-0.418,-0.28,-0.2585,-0.1694,-0.0308,-0.0093,0.0,0.0,0.0,0.0,0.0,0.0,0.0,0.0,0.0,0.0,0.0,0.0,0.0,0.0,0.0,0.0,0.0,0.0,0.0,0.0,0.0,0.0,0.0,0.0,-0.0109,0.0,0.0,0.0,0.0,0.0,0.0,0.0,-0.351,-0.3522,-0.3879,-0.4687,-0.4708,-0.4755,-0.4862,-0.4916,-0.4943,-0.4943,-0.497,-0.4977,-0.4977,-0.4977,-0.4977,-0.4977,-0.4977,-0.4977,-0.499,-0.5063,-0.5117,-0.516,-0.5273,-0.5203,0.0,-0.5063,-0.5396,-0.5908,-0.6382,-0.7021,-0.7668,-0.7844,-0.8126,-0.8431,-0.8737,-0.896,-0.9179,-0.9483,-0.9673,-0.9731,-0.9673,-0.9298,-0.8906,-0.8628,-0.8049,-0.7416,-0.6919,-0.6817,-0.6641,-0.6064,-0.6777,-0.7532,-0.7801,-0.8439,-0.9109,-0.9677,-0.9886,-0.9981,-0.9981,-1.0148,-1.0243,-1.0243,-1.0263,-1.0315,0.0,-1.0261,-1.0107,-0.9816,-0.9785,-0.9601,-0.9137,-0.902,-0.8958,-0.8958,-0.7637,-0.6961,-0.6961,-0.5559,-0.4763,-0.4426,-0.3108,-0.2339,-0.2002,-0.0617,0.0,0.0,0.0,0.0,0.0,0.0,0.0,0.0,0.0,0.0,0.0,0.0,0.0,0.0,0.0,0.0,0.0,0.0,0.0,0.0,0.0,0.0,0.0,0.0,0.0,-0.014,0.0,0.0,0.0,0.0,0.0,0.0,-0.2688,-0.273,-0.3133,-0.4013,-0.4093,-0.4318,-0.4695,0.0,-0.4762,-0.4695,-0.4695,-0.4695,-0.4695,-0.4695,-0.4695,-0.4695,-0.4695,-0.4695,-0.4708,-0.4843,-0.4936,-0.5011,-0.5101,-0.5128,0.0,-0.5223,-0.5535,-0.5944,-0.628,-0.6981,-0.7753,-0.8065,-0.8309,-0.86,-0.9035,-0.9192,-0.9267,-0.9618,-0.9737,-0.9758,-0.9646,-0.9183,-0.8696,-0.8311,-0.7678,-0.7014,-0.6586,-0.6491,-0.6355,-0.5881,-0.6532,-0.721,-0.7405,-0.8074,-0.8798,-0.9388,-0.9673,-0.9846,-0.997,-1.0249,-1.0392,-1.0392,-1.046,-1.0507,-1.0507,-1.0507,-1.0439,-1.0322,-1.0315,-1.0209,-1.0021,-0.9947,-0.9873,-0.9792,-0.9049,-0.8653,-0.8647,-0.7825,-0.6996,-0.6171,-0.5403,-0.4576,-0.3658,-0.2002,-0.1295,-0.1233,-0.037,0.0,0.0,0.0,0.0,0.0,0.0,0.0,0.0,0.0,0.0,0.0,0.0,0.0,0.0,0.0,0.0,0.0,0.0,0.0,0.0,0.0,0.0,0.0,0.0,0.0,0.0,0.0,0.0,0.0,0.0,-0.1966,-0.2327,-0.3123,0.0,0.0,-0.4236,-0.4352,0.0,0.0,0.0,0.0,0.0,-0.4505,-0.4505,-0.4505,-0.4505,-0.4505,0.0,0.0,-0.4809,-0.4909,0.0,0.0,0.0,0.0,-0.5607,-0.5903,-0.6158,-0.6722,-0.74,-0.79,-0.8287,-0.8628,-0.9137,-0.9274,-0.9315,-0.9673,-0.9765,-0.9751,-0.9605,-0.911,-0.854,-0.8067,-0.7364,-0.6715,-0.6314,-0.6233,-0.6144,-0.5854,-0.6363,-0.6897,-0.7168,-0.7767,-0.8437,-0.9131,-0.9462,-0.9737,-1.0035,-1.0358,-1.0541,-1.0541,-1.0649,-1.0684,-1.0684,-1.0684,-1.0622,-1.0385,-1.0376,-1.027,-1.0116,-1.0049,-0.9961,-0.9839,-0.9805,-0.9792,-0.9792,-0.9792,-0.914,-0.7911,-0.7545,-0.6691,-0.5345,-0.372,-0.2831,-0.2401,-0.1079,-0.0339,0.0,0.0,0.0,0.0,0.0,0.0,0.0,0.0,0.0,0.0,0.0,0.0,0.0,0.0,0.0,0.0,0.0,0.0,0.0,0.0,0.0,0.0,0.0,0.0,0.0,0.0,0.0,0.0,0.0,0.0,0.0,0.0,0.0,0.0,-0.3414,-0.3424,0.0,0.0,0.0,0.0,0.0,0.0,-0.4505,-0.4505,-0.4505,0.0,0.0,0.0,0.0,0.0,0.0,0.0,0.0,0.0,-0.5419,-0.5521,-0.589,-0.62,-0.6505,-0.7039,-0.7885,-0.873,-0.8892,-0.9157,-0.943,-0.9578,-0.969,-0.9754,-0.9469,-0.8975,-0.8384,-0.7936,-0.7149,-0.6443,-0.6093,-0.6032,-0.5984,-0.5833,-0.6212,-0.6763,-0.7441,-0.7726,-0.8208,-0.9247,-0.9612,-0.9917,-1.0222,-1.0521,-1.0664,-1.0664,-1.0677,-1.0684,-1.0684,-1.0684,-1.0677,-1.065,-1.0548,-1.0466,-1.0453,-1.0157,-0.9977,-0.9994,-0.9859,-0.9792,-0.9792,-0.9792,-0.9731,-0.9542,-0.8063,-0.7327,-0.7083,-0.5406,-0.3843,0.0,-0.2339,-0.1387,0.0,0.0,0.0,0.0,0.0,0.0,0.0,0.0,0.0,0.0,0.0,0.0,0.0,0.0,0.0,0.0,0.0,0.0,0.0,0.0,0.0,0.0,0.0,0.0,0.0,0.0,0.0,0.0,0.0,0.0,0.0,0.0,0.0,-0.1902,-0.2642,-0.3204,0.0,0.0,0.0,0.0,0.0,0.0,-0.4505,-0.4505,-0.4505,0.0,0.0,0.0,0.0,0.0,0.0,0.0,0.0,0.0,0.0,-0.5532,-0.5613,-0.5926,-0.6327,-0.6404,-0.7046,-0.7844,-0.8384,-0.8743,-0.9049,-0.9381,-0.9578,-0.9646,-0.9435,-0.8954,-0.8369,-0.7807,-0.7076,-0.6409,-0.6072,-0.5993,-0.5991,-0.593,-0.6234,-0.6648,-0.7093,-0.729,-0.7655,-0.8439,-0.8832,-0.9232,-0.9808,-1.0103,-1.0393,-1.0657,-1.0684,-1.0684,-1.0684,-1.0684,-1.0684,-1.0684,-1.0663,-1.0588,-1.0493,-1.0378,-1.0197,-0.999,-0.9961,-0.9879,-0.9792,-0.9792,-0.9792,-0.9792,-0.914,-0.8836,-0.8745,-0.7118,-0.6045,0.0,-0.3321,-0.2094,-0.1418,-0.0401,0.0,0.0,0.0,0.0,0.0,0.0,0.0,0.0,0.0,0.0,0.0,0.0,0.0,0.0,0.0,0.0,0.0,0.0,0.0,0.0,0.0,0.0,0.0,0.0,0.0,0.0,0.0,0.0,0.0,0.0,0.0,-0.1136,-0.1877,-0.2536,-0.2899,0.0,0.0,0.0,0.0,0.0,0.0,0.0,0.0,0.0,0.0,0.0,0.0,0.0,0.0,0.0,0.0,0.0,0.0,0.0,0.0,0.0,-0.6069,-0.5964,-0.6363,-0.7027,-0.7811,-0.8301,-0.8669,-0.9069,-0.9327,-0.9442,-0.9286,-0.8866,-0.8342,-0.7678,-0.7035,-0.6444,-0.6079,-0.5993,-0.5993,-0.5993,-0.624,-0.6546,-0.685,-0.697,-0.7287,-0.804,-0.8391,-0.8811,-0.9523,-0.9798,-1.0109,-1.0548,-1.0637,-1.0684,-1.0684,-1.0684,-1.0684,-1.0684,-1.0684,-1.067,-1.0561,-1.0514,-1.0392,-1.015,-1.0062,-0.9961,-0.9859,-0.9812,-0.9792,-0.9792,-0.9792,-0.9792,-0.9731,-0.8587,-0.785,0.0,-0.4913,-0.3382,-0.237,-0.1202,-0.0432,0.0,0.0,0.0,0.0,0.0,0.0,0.0,0.0,0.0,0.0,0.0,0.0,0.0,0.0,0.0,0.0,0.0,0.0,0.0,0.0,0.0,0.0,0.0,0.0,0.0,0.0,0.0,0.0,0.0,0.0,-0.037,-0.1115,-0.1115,-0.1491,-0.2225,-0.2973,-0.3353,-0.345,0.0,0.0,0.0,0.0,0.0,0.0,0.0,0.0,-0.5392,0.0,0.0,0.0,0.0,0.0,0.0,0.0,0.0,0.0,0.0,-0.6035,-0.6457,-0.7185,-0.7832,-0.8362,-0.8635,-0.8961,-0.9152,-0.8953,-0.871,-0.8315,-0.7566,-0.7042,-0.6573,-0.6099,-0.5993,-0.5993,-0.5993,-0.6159,-0.643,-0.6837,-0.6911,-0.7269,-0.8355,-0.8608,-0.8933,-0.9537,-0.9704,-0.9944,-1.0256,-1.0548,-1.0684,-1.0684,-1.0684,0.0,-1.0684,-1.0684,-1.0684,-1.0684,-1.0568,-1.0487,-1.0487,-1.0163,-0.9984,-0.9984,-0.9859,-0.9792,-0.9792,-0.9792,-0.9792,-0.9792,-0.9792,-0.8867,0.0,-0.7357,-0.5433,-0.2493,-0.2493,-0.1448,0.0,0.0,0.0,0.0,0.0,0.0,0.0,0.0,0.0,0.0,0.0,0.0,0.0,0.0,0.0,0.0,0.0,0.0,0.0,0.0,0.0,0.0,0.0,0.0,0.0,0.0,0.0,0.0,0.0,0.0,-0.0118,-0.0349,-0.0948,-0.1313,-0.146,-0.234,-0.2962,-0.3338,-0.3578,-0.3987,0.0,0.0,0.0,0.0,-0.5185,-0.5351,-0.5392,0.0,0.0,0.0,0.0,0.0,0.0,0.0,0.0,0.0,0.0,0.0,0.0,-0.6219,-0.7014,-0.7834,-0.7923,-0.8267,-0.8519,-0.8235,-0.8024,-0.774,-0.719,-0.6878,-0.6607,-0.628,-0.6205,-0.6205,-0.6205,-0.6265,-0.6457,-0.6965,-0.7031,-0.7344,-0.824,-0.8554,-0.8967,-0.9643,-1.0218,-1.0556,-1.0582,-1.0663,-1.0684,-1.0684,-1.0684,-1.0684,-1.0684,-1.0684,-1.0684,-1.0684,-1.067,-1.0595,-1.0493,-1.0304,-1.0154,-0.9984,-0.9866,-0.9792,-0.9792,-0.9792,-0.9792,-0.9792,-0.9792,-0.9511,-0.8958,-0.785,-0.6778,-0.5617,-0.3382,-0.2187,-0.1571,-0.0432,0.0,0.0,0.0,0.0,0.0,0.0,0.0,0.0,0.0,0.011,0.0,0.0,0.0,0.0,0.0,0.0,0.0,0.0,0.0,0.0,0.0,0.0,0.0,0.0,0.0,0.0,0.0,0.0,0.0,0.0,-0.0536,-0.0766,-0.071,-0.1563,-0.2147,-0.2488,-0.3058,-0.3594,0.0,0.0,0.0,0.0,-0.526,-0.5358,-0.5294,0.0,0.0,0.0,0.0,0.0,0.0,0.0,0.0,0.0,0.0,0.0,0.0,0.0,-0.6329,-0.7054,-0.7263,-0.7631,-0.7913,-0.7692,-0.7577,-0.7394,-0.6924,-0.677,-0.6614,-0.6361,-0.63,-0.63,-0.63,-0.63,-0.6437,-0.6877,-0.6951,-0.7256,-0.8172,-0.8526,-0.898,-0.9778,-1.0387,-1.0684,-1.0568,-1.0656,-1.0684,-1.0684,-1.0684,-1.0684,-1.0684,-1.0684,-1.0684,-1.0684,-1.0684,-1.0677,-1.0582,-1.0378,-1.0236,-1.0103,-0.9893,-0.9792,-0.9792,-0.9792,-0.9792,-0.9792,-0.9792,-0.9792,0.0,-0.8714,-0.7942,-0.7205,-0.5158,-0.3597,-0.237,-0.1326,-0.0555,0.0,0.0,0.0,0.0,0.0,0.0,0.0,0.0,0.0307,0.0,0.0,0.0,0.0,0.0,0.0,0.0,0.0,0.0,0.0,0.0,0.0,0.0,0.0,0.0,0.0,0.0,0.0,0.0,0.0,0.0,0.0,-0.0018,-0.0698,-0.1047,-0.1164,-0.2537,-0.3248,0.0,0.0,0.0,0.0,-0.526,-0.5287,0.0,0.0,0.0,0.0,0.0,0.0,0.0,0.0,0.0,0.0,0.0,0.0,0.0,0.0,0.0,0.0,0.0,-0.7061,-0.7314,-0.7301,-0.7308,-0.7206,-0.6763,-0.6675,0.0,-0.6361,-0.63,-0.6313,-0.634,-0.634,-0.6423,-0.6742,-0.6797,-0.7156,-0.8213,-0.8621,-0.9122,-0.9967,-1.0319,-1.0466,-1.0324,-1.0561,-1.0684,-1.0684,-1.0684,-1.0684,-1.0684,-1.0684,-1.0684,-1.0684,-1.0684,-1.0684,-1.0684,-1.0439,-1.0322,-1.0308,-0.9978,-0.9798,-0.9792,-0.9792,-0.9792,0.0,-0.9792,-0.9792,-0.9792,-0.9792,-0.8927,-0.7545,-0.7454,-0.5464,-0.2647,-0.2554,-0.1448,0.0,0.0,0.0,0.0,0.0,0.0,0.0,0.0,0.0,0.0,0.0,0.0,0.0,0.0,0.0,0.0,0.0,0.0,0.0,0.0,0.0,0.0,0.0,0.0,0.0,0.0,0.0,0.0,0.0,0.0,0.0,0.0,-0.0174,-0.0564,-0.1116,-0.1467,-0.234,0.0,0.0,0.0,0.0,-0.53,-0.5287,0.0,0.0,0.0,0.0,-0.5063,-0.5096,0.0,0.0,0.0,0.0,0.0,0.0,0.0,0.0,-0.5566,-0.5725,-0.5867,0.0,-0.6512,-0.6376,-0.6457,-0.6532,0.0,-0.6464,-0.6498,-0.6334,-0.63,-0.6389,-0.6709,-0.6675,-0.6844,-0.758,-0.7702,-0.7986,-0.8859,-0.9628,-1.0195,-1.0495,-1.0691,-1.0745,-1.0629,-1.0644,-1.0684,-1.0684,-1.0684,-1.0684,-1.0684,-1.0684,-1.0684,-1.0684,-1.0684,-1.0684,-1.0684,-1.0534,-1.0385,-1.0308,-1.0055,-0.9907,-0.9792,-0.9792,-0.9792,-0.9792,-0.9792,-0.9792,-0.9792,-0.9792,-0.9572,-0.911,-0.7881,-0.6137,-0.418,-0.2954,-0.1448,0.0,0.0,0.0,0.0,0.0,0.0,0.0,0.0,0.0,0.0,0.0,0.0,0.0,0.0,0.0,0.0,0.0,0.0,0.0,0.0,0.0,0.0,0.0,0.0,0.0,0.0,0.0,0.0,0.0,0.0,0.0,0.0,0.0,-0.0212,-0.0622,-0.1297,-0.2386,0.0,0.0,0.0,-0.511,-0.5314,0.0,0.0,0.0,0.0,0.0,-0.4963,-0.5002,0.0,-0.5464,-0.5539,-0.5515,0.0,0.0,0.0,0.0,-0.5453,-0.5505,-0.5505,-0.5945,-0.6355,-0.6254,-0.6369,-0.6484,-0.6484,-0.6437,-0.6395,-0.6313,-0.63,-0.6396,-0.6756,-0.6789,-0.7033,-0.779,-0.7966,-0.8344,-0.9327,-1.0114,-1.0656,-1.0772,-1.0867,-1.0853,-1.0698,-1.0684,-1.0684,-1.0684,-1.0684,-1.0684,-1.0684,-1.0684,-1.0684,-1.0684,-1.0684,-1.0684,-1.0684,-1.0568,-1.0419,-1.0308,-1.0096,-0.994,-0.9792,-0.9792,-0.9792,-0.9792,-0.9792,-0.9792,-0.9792,-0.9792,-0.9792,-0.97,-0.8836,-0.7027,-0.4794,-0.3935,-0.2064,0.0,0.0,0.0,0.0,0.0,0.0,0.0,0.0,0.0,0.0,0.0,0.0,0.0,0.0,0.0,0.0,0.0,0.0,0.0,0.0,0.0,0.0,0.0,0.0,0.0,0.0,0.0,0.0,0.0,0.0,0.0,0.0,0.0,0.0,-0.0073,-0.1581,-0.2756,-0.3696,-0.4562,-0.5018,-0.516,-0.5328,0.0,0.0,0.0,0.0,0.0,0.0,0.0,0.0,-0.5521,-0.565,-0.561,-0.5705,0.0,0.0,0.0,0.0,0.0,-0.5481,-0.6008,-0.6539,-0.645,-0.6552,-0.6709,-0.6729,-0.6546,-0.6375,-0.6395,-0.6382,-0.6477,-0.6783,-0.6979,-0.729,-0.7837,-0.8108,-0.8622,-0.9677,-1.0299,-1.0711,-1.086,-1.088,-1.0826,-1.0698,-1.0684,-1.0684,-1.0684,-1.0684,-1.0684,-1.0684,-1.0684,-1.0684,-1.0684,-1.0684,-1.0684,-1.0684,-1.0595,-1.0453,-1.0342,-1.0123,-0.9974,-0.9825,-0.9798,-0.9792,-0.9792,0.0,0.0,-0.9792,-0.9792,-0.9792,-0.9792,-0.9792,-0.7947,-0.5253,-0.5008,-0.2985,-0.0339,0.0,0.0,0.0,0.0,0.0,0.0,0.0,0.0,0.0,0.0,0.0,0.0,0.0,0.0,0.0,0.0,0.0,0.0,0.0,0.0,0.0,0.0,0.0,0.0,0.0,0.0,0.0,0.0,0.0,0.0,0.0,0.0,0.0,-0.0075,-0.1716,-0.2601,-0.2963,-0.4441,-0.5182,-0.5358,-0.5385,0.0,0.0,0.0,0.0,0.0,0.0,0.0,0.0,-0.513,-0.5376,-0.5586,-0.5494,0.0,0.0,0.0,0.0,0.0,-0.5827,-0.6363,-0.6715,-0.6208,-0.6383,-0.6736,-0.6843,-0.6756,-0.6668,-0.6776,-0.6803,-0.6931,-0.738,-0.7794,-0.8199,-0.852,-0.9022,-0.9487,-0.992,-1.0278,-1.0582,-1.0704,-1.0725,-1.0711,-1.0691,-1.0684,-1.0684,-1.0684,-1.0684,-1.0684,-1.0684,-1.0684,-1.0684,-1.0684,-1.0684,-1.0684,-1.0684,-1.0664,-1.0609,-1.046,-1.031,-1.0161,-0.9981,-0.9852,-0.9792,-0.9792,0.0,-0.9792,-0.9792,-0.9792,-0.9792,-0.9792,-0.9792,-0.8653,-0.6844,-0.5437,-0.372,-0.191,0.0,0.0,0.0,0.0,0.0,0.0,0.0,0.0,0.0,0.0,0.0,0.0,0.0,0.0,0.0,0.0,0.0,0.0,0.0,0.0,0.0,0.0,0.0,0.0,0.0,0.0,0.0,0.0,0.0,0.0,0.0,-0.049,-0.0704,-0.0778,-0.2447,-0.3281,-0.3478,-0.4614,-0.5216,-0.5392,0.0,0.0,0.0,0.0,0.0,0.0,0.0,0.0,0.0,0.0,-0.5454,-0.5677,-0.5552,0.0,0.0,0.0,0.0,0.0,-0.5627,-0.6166,-0.6614,-0.6335,-0.683,-0.7398,-0.7384,-0.7292,-0.7204,-0.7278,-0.7269,-0.7377,-0.7749,-0.814,-0.8614,-0.9211,-0.968,-1.0046,-1.0224,-1.048,-1.0643,-1.0677,-1.0684,-1.0684,-1.0684,-1.0684,-1.0684,-1.0684,-1.0684,-1.0684,-1.0684,-1.0684,-1.0684,-1.0684,-1.0684,-1.0684,-1.0684,-1.0684,-1.0643,-1.0487,-1.0344,-1.0202,-0.9984,-0.9859,-0.9792,-0.9792,0.0,-0.9792,-0.9792,-0.9792,-0.9792,-0.9792,-0.9792,-0.8806,-0.7083,-0.4548,-0.2554,-0.1048,0.0,0.0,0.0,0.0,0.0,0.0,0.0,0.0,0.0,0.0,0.0,0.0,0.0,0.0,0.0,0.0,0.0,0.0,0.0,0.0,0.0,0.0,0.0,0.0,0.0,0.0,0.0,0.0,0.0,0.0,-0.0022,-0.0886,-0.1296,-0.1368,-0.3088,-0.3911,-0.4046,-0.4845,-0.525,-0.5392,0.0,0.0,0.0,0.0,0.0,0.0,0.0,0.0,0.0,0.0,0.0,0.0,0.0,0.0,0.0,-0.5545,-0.5474,-0.5474,-0.5576,-0.6074,-0.6552,-0.6593,-0.7188,-0.7817,-0.7902,-0.7753,-0.7651,-0.7821,-0.7889,-0.7946,-0.8135,-0.8472,-0.8974,-0.9836,-1.0148,-1.0363,-1.0473,-1.0622,-1.0684,-1.0684,-1.0684,-1.0684,-1.0684,-1.0684,-1.0684,-1.0684,-1.0684,-1.0684,-1.0684,-1.0684,-1.0684,-1.0684,-1.0684,-1.0684,-1.0684,-1.0684,-1.0643,-1.0487,-1.0344,-1.0202,-0.9984,-0.9859,-0.9792,-0.9792,-0.9792,-0.9792,-0.9792,-0.9792,-0.9792,-0.9792,-0.9792,-0.8593,-0.6503,-0.3996,-0.1756,0.0,0.0,0.0,0.0,0.0,0.0,0.0,0.0,0.0,0.0,0.0,0.0,0.0,0.0,0.0,0.0,0.0,0.0,0.0,0.0,0.0,0.0,0.0,0.0,0.0,0.0,0.0,0.0,0.0,0.0,0.0,-0.0022,-0.09,-0.1302,-0.1387,-0.3179,-0.3997,-0.4052,-0.4991,-0.5385,-0.5392,-0.5392,0.0,0.0,0.0,0.0,0.0,0.0,0.0,0.0,0.0,0.0,0.0,0.0,0.0,-0.58,-0.5779,-0.5677,-0.5681,-0.6122,-0.6457,-0.6715,-0.6837,-0.7011,-0.7364,-0.8104,-0.7934,-0.7794,-0.8486,-0.8716,-0.8777,-0.8656,-0.9022,-0.9594,-1.0324,-1.0383,-1.0363,-1.0473,-1.0622,-1.0684,-1.0684,-1.0684,-1.0684,-1.0684,-1.0684,-1.0684,-1.0684,-1.0684,-1.0684,-1.0684,-1.0684,-1.0684,-1.0684,-1.0684,-1.0684,-1.0684,-1.0684,-1.0643,-1.0487,-1.0344,-1.0202,-0.9984,-0.9859,-0.9792,-0.9792,-0.9792,-0.9792,-0.9792,-0.9792,-0.9792,-0.9792,-0.9792,-0.7856,-0.5039,-0.4824,-0.2708,0.0,0.0,0.0,0.0,0.0,0.0,0.0,0.0,0.0,0.0,0.0,0.0,0.0,0.0,0.0,0.0,0.0,0.0,0.0,0.0,0.0,0.0,0.0,0.0,0.0,0.0,0.0,0.0,0.0,0.0,-0.0335,-0.1008,-0.1799,-0.2496,-0.3161,-0.4337,-0.4919,-0.5012,-0.5282,-0.5446,-0.5511,-0.5433,-0.5287,0.0,0.0,0.0,0.0,0.0,0.0,0.0,0.0,-0.5223,-0.5525,-0.5539,-0.5718,-0.589,-0.5725,-0.563,-0.5647,-0.5818,-0.6329,-0.6789,-0.6675,-0.7154,-0.7776,-0.8213,-0.8282,-0.8452,-0.9015,-0.9178,-0.9252,-0.9352,-0.9544,-0.9842,-1.0399,-1.0403,-1.0397,-1.0602,-1.0683,-1.0684,-1.0684,-1.0684,-1.0684,-1.0684,-1.0684,-1.0684,-1.0684,-1.0684,-1.0684,-1.0684,-1.0684,-1.0684,-1.0684,-1.0684,-1.0684,-1.0684,-1.0684,-1.0643,-1.0487,-1.0344,-1.0249,-1.0181,-0.99,-0.9792,-0.9792,-0.9792,-0.9792,-0.9792,-0.9792,-0.9792,-0.9792,-0.9792,-0.7795,-0.4885,-0.4885,-0.2831,0.0,0.0,0.0,0.0,0.0,0.0,0.0,0.0,0.0,0.0,0.0,0.0,0.0,0.0,0.0,0.0,0.0,0.0,0.0,0.0,0.0,0.0,0.0,0.0,0.0,0.0,0.0,0.0,0.0,0.0,-0.0375,-0.1103,-0.1897,-0.2835,-0.3893,-0.4664,-0.5289,-0.5718,-0.5532,-0.5511,-0.5593,-0.5453,-0.5314,0.0,0.0,0.0,0.0,0.0,0.0,0.0,0.0,-0.5146,-0.5399,-0.5552,-0.5752,-0.591,-0.5772,-0.5793,-0.5879,-0.5831,-0.639,-0.6938,-0.6818,-0.74,-0.8094,-0.8411,-0.8601,-0.8879,-0.9469,-0.9591,-0.968,-0.9978,-0.9927,-0.9994,-1.0426,-1.0412,-1.0432,-1.0683,-1.0684,-1.0684,-1.0684,-1.0684,-1.0684,-1.0684,-1.0684,-1.0684,-1.0684,-1.0684,-1.0684,-1.0684,-1.0684,-1.0684,-1.0684,-1.0684,-1.0684,-1.0684,-1.0684,-1.0637,-1.0561,-1.0371,-1.0256,-1.0202,-0.9937,-0.9792,-0.9792,-0.9792,-0.9792,-0.9792,-0.9792,-0.9511,-0.9049,-0.9049,-0.7332,-0.4885,-0.4885,-0.3169,-0.071,0.0,0.0,0.0,0.0,0.0,0.0,0.0,0.0,0.0013,0.0,0.0,0.0,0.0,0.0,0.0,0.0,0.0,0.0,0.0,0.0,0.0,0.0,0.0,0.0,0.0,0.0,0.0,0.0,0.0,0.0,-0.0041,-0.0911,-0.1955,-0.3154,-0.3879,-0.4878,-0.5991,-0.5711,-0.5607,-0.5593,-0.546,-0.5399,-0.5378,0.0,0.0,0.0,0.0,0.0,0.0,0.0,-0.5009,-0.5038,-0.5775,-0.591,-0.5833,-0.5964,-0.624,-0.6477,-0.634,-0.6695,-0.7154,-0.7355,-0.7712,-0.8157,-0.8777,-0.8798,-0.8946,-0.9839,-0.999,-1.0109,-1.0439,-1.0218,-1.0116,-1.0446,-1.0493,-1.0548,-1.0664,-1.0684,-1.0684,-1.0684,-1.0684,-1.0684,-1.0684,-1.0684,-1.0684,-1.0684,-1.0684,-1.0684,-1.0684,-1.0684,-1.0684,-1.0684,-1.0684,-1.0684,-1.0684,-1.0684,-1.0684,-1.0684,-1.0419,-1.0202,-0.9984,-0.9859,-0.9792,-0.9792,-0.9792,-0.9792,-0.9792,-0.9792,-0.8867,-0.7393,-0.7393,-0.635,-0.4885,-0.4885,-0.3843,-0.2247,0.0,0.0,0.0,0.0,0.0,0.0,0.0,0.0,0.0478,0.0055,0.0,0.0,0.0,0.0,0.0,0.0,0.0,0.0,0.0,0.0,0.0,0.0,0.0,0.0,0.0,0.0,0.0,0.0,0.0,-0.0391,-0.1148,-0.2124,-0.3104,-0.4124,-0.5042,-0.561,-0.5842,-0.5671,-0.5607,-0.5607,-0.5559,-0.5494,-0.5392,0.0,0.0,0.0,0.0,0.0,0.0,0.0,0.0,0.0,-0.5616,-0.5976,-0.6239,-0.5949,-0.6159,-0.6477,-0.634,-0.6695,-0.7181,-0.7468,-0.8081,-0.8716,-0.9022,-0.9165,-0.9374,-1.0073,-1.029,-1.0385,-1.0473,-1.0419,-1.0426,-1.0622,-1.0561,-1.0548,-1.0664,-1.0684,-1.0684,-1.0684,-1.0684,-1.0684,-1.0684,-1.0684,-1.0684,-1.0684,-1.0684,-1.0684,-1.0684,-1.0684,-1.0684,-1.0684,-1.0684,-1.0684,-1.0684,-1.0684,-1.0663,-1.0555,-1.0371,-1.0256,-1.0202,-0.9944,-0.9792,-0.9792,-0.9792,-0.9792,-0.9792,-0.9792,-0.8867,-0.7393,-0.7393,-0.5678,-0.32,-0.32,-0.2156,-0.0679,0.0,0.0,0.0,0.0,0.0,0.0,0.0,0.0,0.0418,0.0042,0.0,0.0,0.0,0.0,0.0,0.0,0.0,0.0,0.0,0.0,0.0,0.0,0.0,0.0,0.0,0.0,0.0,0.0,0.0,-0.0334,-0.0985,-0.2074,-0.3133,-0.4188,-0.519,-0.5803,-0.6069,-0.5854,-0.5732,-0.5671,-0.561,-0.5552,-0.5487,0.0,0.0,0.0,0.0,0.0,0.0,0.0,0.0,0.0,-0.5539,-0.5852,-0.6124,-0.6028,-0.628,-0.66,-0.6716,-0.7095,-0.7574,-0.8,-0.8581,-0.9123,-0.9539,-0.9703,-0.9886,-1.0276,-1.0432,-1.0493,-1.0493,-1.0493,-1.0521,-1.0616,-1.0602,-1.0616,-1.0677,-1.0684,-1.0684,-1.0684,-1.0684,-1.0684,-1.0684,-1.0684,-1.0684,-1.0684,-1.0684,-1.0684,-1.0684,-1.0684,-1.0684,-1.0684,-1.0684,-1.0684,-1.0684,-1.0663,-1.0582,-1.0487,-1.0283,-1.0188,-1.0181,-0.99,-0.9792,-0.9792,-0.9792,-0.9792,-0.9761,-0.911,-0.7881,-0.6411,-0.6411,-0.479,-0.2493,-0.2493,-0.1848,-0.0894,0.0,0.0,0.3448,0.2841,0.0,0.0,0.0,0.0393,0.0,0.0,0.0,0.0,0.0,0.0,0.0,0.0,0.0,0.0,0.0,0.0,0.0,0.0,0.0,0.0,0.0,0.0,0.0,0.0,-0.0074,-0.0132,-0.017,-0.1471,-0.2667,-0.376,-0.4774,-0.5676,-0.643,-0.6093,-0.5883,-0.5752,-0.5637,-0.56,-0.5586,-0.5586,0.0,0.0,0.0,0.0,0.0,0.0,0.0,0.0,-0.5501,-0.5627,-0.5729,-0.6143,-0.6464,-0.6797,-0.7253,-0.7665,-0.8128,-0.877,-0.9089,-0.943,-1.0145,-1.0315,-1.0324,-1.048,-1.0514,-1.0514,-1.0514,-1.0514,-1.0514,-1.0514,-1.0629,-1.0684,-1.0684,-1.0684,-1.0684,-1.0684,-1.0684,-1.0684,-1.0684,-1.0684,-1.0684,-1.0684,-1.0684,-1.0684,-1.0684,-1.0684,-1.0684,-1.0684,-1.0684,-1.0684,-1.0684,-1.0568,-1.0487,-1.0466,-1.0157,-0.9977,-0.9994,-0.9852,-0.9792,-0.9792,-0.9792,-0.9792,-0.97,-0.8221,-0.6538,-0.4885,-0.4885,-0.3812,-0.2279,-0.2279,-0.2279,-0.2064,0.0,0.0,0.3728,0.3123,0.0,0.0,0.1143,0.0455,0.0,0.0,0.0,0.0,0.0,0.0,0.0,0.0,0.0,0.0,0.0,0.0,0.0,0.0,0.0,0.0,0.0,0.0,0.0,0.0,-0.0687,-0.11,-0.1304,-0.3293,-0.4367,-0.4672,-0.5725,-0.6172,-0.6086,-0.5813,-0.5613,-0.5494,-0.5573,-0.5532,-0.5446,-0.5446,-0.5405,0.0,0.0,0.0,0.0,0.0,0.0,0.0,-0.5552,-0.5745,-0.591,-0.5908,-0.6281,-0.677,-0.708,-0.7411,-0.7923,-0.89,-0.9395,-0.9781,-1.0188,-1.0315,-1.0351,-1.0616,-1.067,-1.067,-1.067,-1.067,-1.067,-1.067,-1.0664,-1.0684,-1.0684,-1.0684,-1.0684,-1.0684,-1.0684,-1.0684,-1.0684,-1.0684,-1.0684,-1.0684,-1.0684,-1.0684,-1.0684,-1.0684,-1.0684,-1.0684,-1.0684,-1.0684,-1.0684,-1.0568,-1.0432,-1.0324,-1.0109,-0.9954,-0.9839,-0.9805,-0.9792,-0.9792,-0.9792,-0.9792,-0.9761,-0.942,-0.7551,-0.4885,-0.4885,-0.3108,-0.0524,-0.0524,-0.0524,-0.0494,0.0,0.0,0.0,0.0,0.0,0.0,0.0,0.0,0.0,0.0,0.0,0.0,0.0,0.0,0.0,0.0,0.0,0.0,0.0,0.0,0.0,0.0,0.0,0.0,0.0,0.0,-0.0258,-0.0773,-0.1633,-0.1945,-0.1744,-0.4051,-0.5186,-0.5289,-0.6258,-0.6485,-0.6118,-0.582,-0.5579,-0.5405,-0.5545,-0.5518,-0.5392,-0.5392,-0.5303,-0.5158,-0.5045,0.0,0.0,0.0,0.0,0.0,0.0,0.0,-0.5739,-0.5856,-0.6186,-0.662,-0.7115,-0.7577,-0.8179,-0.9158,-0.9598,-0.9852,-1.0089,-1.0168,-1.0256,-1.0548,-1.067,-1.0684,-1.0684,-1.0684,-1.0684,-1.0684,-1.0684,-1.0684,-1.0684,-1.0684,-1.0684,-1.0684,-1.0684,-1.0684,-1.0684,-1.0684,-1.0684,-1.0684,-1.0684,-1.0684,-1.0684,-1.0684,-1.0684,-1.0684,-1.0649,-1.0609,-1.0609,-1.0392,-1.0243,-1.0136,-0.9981,-0.9866,-0.9792,-0.9792,-0.9792,-0.9792,-0.9792,-0.9792,-0.9792,-0.9792,-0.7856,-0.4885,-0.4885,-0.2893,0.0,0.0,0.0,0.0,0.0,0.0,0.0,0.0,0.0,0.0,0.0,0.0,0.0,0.0,0.0,0.0,0.0,0.0,0.0,0.0,0.0,0.0,0.0,0.0,0.0,0.0,0.0,0.0,0.0,-0.0133,-0.0635,-0.1542,-0.2579,-0.2868,-0.2466,-0.4626,-0.5698,-0.5891,-0.6572,-0.6654,-0.6279,-0.5892,-0.5586,-0.5365,-0.545,-0.5416,-0.5317,-0.5289,-0.5123,-0.4903,-0.4875,-0.497,-0.5096,-0.5096,0.0,0.0,0.0,0.0,-0.5423,-0.5809,-0.6044,-0.6334,-0.7015,-0.7736,-0.8505,-0.9354,-0.9693,-0.9832,-0.9981,-0.9984,-1.0096,-1.0399,-1.0575,-1.0657,-1.0717,-1.0684,-1.0684,-1.0684,-1.0684,-1.0684,-1.0684,-1.0684,-1.0684,-1.0684,-1.0684,-1.0684,-1.0684,-1.0684,-1.0684,-1.0684,-1.0684,-1.0684,-1.0684,-1.0697,-1.0683,-1.0683,-1.0534,-1.0453,-1.0453,-1.0157,-0.9984,-0.9984,-0.9866,-0.9792,-0.9792,-0.9792,-0.9792,-0.9792,-0.9792,-0.9792,-0.9792,-0.9792,-0.7856,-0.4885,-0.4885,-0.2893,0.0,0.0,0.0,0.0,0.0,0.0,0.0,0.0,0.0,0.0,0.0,0.0,0.0,0.0,0.0,0.0,0.0,0.0,0.0,0.0,0.0,0.0,0.0,0.0,0.0,0.0,0.0,0.0,0.0,-0.0631,-0.1081,-0.1341,-0.3026,-0.4213,-0.4935,-0.6021,-0.6667,-0.6886,-0.6766,-0.658,-0.6265,-0.5692,-0.5334,-0.5132,-0.5031,-0.4984,-0.495,-0.4845,-0.4836,-0.4889,-0.4769,-0.4882,-0.5096,-0.5096,-0.5237,0.0,0.0,0.0,-0.5207,-0.5555,-0.5664,-0.5804,-0.6313,-0.7342,-0.8478,-0.9247,-0.9618,-0.9832,-0.9981,-0.9984,-1.0069,-1.027,-1.0426,-1.0561,-1.0697,-1.0684,-1.0684,-1.0684,-1.0684,-1.0684,-1.0684,-1.0684,-1.0684,-1.0684,-1.0684,-1.0684,-1.0684,-1.0684,-1.0684,-1.0684,-1.0684,-1.0684,-1.0684,-1.0595,-1.0521,-1.0521,-1.0417,-1.0342,-1.0342,-1.0103,-0.9984,-0.9984,-0.9866,-0.9792,-0.9792,-0.9792,-0.9792,-0.9792,-0.9792,-0.9792,-0.9792,-0.9792,-0.7856,-0.4885,-0.4885,-0.2893,0.0,0.0,0.0,0.0,0.0,0.0,0.0,0.0,0.0,0.0,0.0,0.0,0.0,0.0,0.0,0.0,0.0,0.0,0.0,0.0,0.0,0.0,0.0,0.0,0.0,0.0,0.0,-0.019,-0.0606,-0.0932,-0.1657,-0.281,-0.354,-0.4736,-0.6359,-0.6752,-0.7222,-0.776,-0.7373,-0.6993,-0.6586,-0.592,-0.5426,-0.5096,-0.5029,-0.5173,-0.5359,-0.4877,-0.4945,-0.523,-0.4756,-0.4715,-0.4882,-0.497,-0.5092,-0.525,-0.5365,0.0,0.0,0.0,-0.5454,-0.5818,-0.677,-0.7525,-0.8235,-0.9179,-0.9476,-0.9639,-0.9839,-0.9893,-0.9934,-1.0089,-1.017,-1.0317,-1.0548,-1.0663,-1.0684,-1.0684,-1.0684,-1.0684,-1.0684,-1.0684,-1.0684,-1.0684,-1.0684,-1.0684,-1.0684,-1.0684,-1.0683,-1.0602,-1.0595,-1.0555,-1.048,-1.0412,-1.0403,-1.0403,-1.0229,-1.0116,-1.0116,-0.9967,-0.9893,-0.9893,-0.9819,-0.9792,-0.9792,-0.9792,-0.9792,-0.9792,-0.9792,-0.9792,-0.9792,-0.9792,-0.7856,-0.4885,-0.4885,-0.2893,0.0,0.0,0.0,0.0,0.0,0.0,0.0,0.0,0.0,0.0,0.0,0.0,0.0,0.0,0.0,0.0,0.0,0.0,0.0,0.0,0.0,0.0,0.0,0.0,0.0,0.0,0.0,-0.0344,-0.1086,-0.1282,-0.2202,-0.3903,-0.4052,-0.5127,-0.7045,-0.7181,-0.7655,-0.8418,-0.797,-0.7455,-0.6864,-0.6207,-0.5705,-0.5326,-0.5302,-0.5484,-0.5766,-0.5399,-0.5515,-0.5786,-0.5117,-0.4947,-0.5026,-0.497,-0.5051,-0.5187,-0.5294,-0.5196,0.0,0.0,0.0,-0.5677,-0.6878,-0.7364,-0.7828,-0.8873,-0.924,-0.943,-0.97,-0.9737,-0.9778,-0.9927,-0.9963,-1.0082,-1.0337,-1.0507,-1.0622,-1.0623,-1.0663,-1.0677,-1.0717,-1.065,-1.0663,-1.0663,-1.0629,-1.0609,-1.0609,-1.0609,-1.0561,-1.0446,-1.0439,-1.0424,-1.0315,-1.0243,-1.0222,-1.0222,-1.0042,-0.9961,-0.9961,-0.9846,-0.9792,-0.9792,-0.9792,-0.9792,-0.9792,-0.9792,-0.9792,-0.9792,-0.9792,-0.9792,-0.9792,-0.9792,-0.7856,-0.4885,-0.4885,-0.2893,0.0,0.0,0.0,0.0,0.0,0.0,0.0,0.0,0.0,0.0,0.0,0.0,0.0,0.0,0.0,0.0,0.0,0.0,0.0,0.0,0.0,0.0,0.0,0.0,0.0,0.0,0.0,0.0,-0.1086,-0.1792,-0.2632,-0.3621,-0.4562,-0.5674,-0.6931,-0.7373,-0.8027,-0.8858,-0.8438,-0.7753,-0.6877,-0.645,-0.6158,-0.5951,-0.5827,-0.5779,-0.5874,-0.6532,-0.6722,-0.658,-0.6093,-0.5919,0.0,0.0,0.0,-0.5358,-0.5166,-0.5031,-0.4916,0.0,0.0,0.0,-0.5883,-0.6512,-0.7168,-0.8124,-0.8777,-0.9274,-0.9551,-0.9618,-0.9659,-0.9771,-0.9913,-1.0021,-1.0004,-1.0202,-1.0344,-1.048,-1.0507,-1.0555,-1.0664,-1.0595,-1.0507,-1.0507,-1.0385,-1.0335,-1.0335,-1.0335,-1.0329,-1.0322,-1.0322,-1.0322,-1.0315,-1.0109,-1.0028,-1.0028,-0.9879,-0.9805,-0.9805,-0.9792,-0.9792,-0.9792,-0.9792,-0.9792,-0.9792,-0.9792,-0.9792,-0.9792,-0.9792,-0.9792,-0.9792,-0.9792,-0.7856,-0.4885,-0.4885,-0.2893,0.0,0.0,0.0,0.0,0.0,0.0,0.0,0.0,0.0,0.0,0.0,0.0,0.0,0.0,0.0,0.0,0.0,0.0,0.0,0.0,0.0,0.0,0.0,0.0,0.0,0.0,-0.0791,-0.1364,-0.2483,-0.2895,-0.3487,-0.431,-0.4662,-0.5413,-0.6532,-0.6959,-0.7441,-0.7943,-0.8192,-0.8038,-0.7567,-0.6858,-0.6512,-0.6444,-0.6295,-0.658,-0.7061,-0.6749,-0.7021,-0.7425,-0.6614,0.0,0.0,0.0,0.0,0.0,-0.5501,-0.5241,-0.5004,-0.483,-0.4889,-0.5143,-0.5714,-0.6254,-0.6831,-0.7638,-0.8308,-0.8832,-0.9082,-0.9447,-0.9704,-0.9693,-0.9771,-0.9873,-0.9873,-1.0114,-1.0329,-1.0344,-1.0358,-1.0378,-1.0432,-1.0392,-1.0358,-1.0358,-1.0342,-1.0315,-1.0315,-1.0315,-1.0243,-1.0109,-1.0103,-1.0055,-0.9992,-0.99,-0.9873,-0.9873,-0.9819,-0.9792,-0.9792,-0.9792,-0.9792,-0.9792,-0.9792,-0.9792,-0.9792,-0.9792,-0.9792,-0.9792,-0.9792,-0.9792,-0.9792,-0.9792,-0.7856,-0.4885,-0.4885,-0.2893,0.0,0.0,0.0,0.0,0.0,0.0,0.0,0.0,0.0,0.0,0.0,0.0,0.0,0.0,0.0,0.0,0.0,0.0,0.0,0.0,0.0,0.0,0.0,-0.0238,-0.0605,-0.1151,-0.1508,-0.2259,-0.3448,-0.3592,-0.4001,-0.4708,-0.4789,-0.5277,-0.6137,-0.6566,-0.6987,-0.741,-0.7709,-0.7875,-0.7898,-0.7278,-0.7,-0.7,-0.7,-0.7326,-0.7794,-0.7651,-0.7909,-0.8223,0.0,0.0,0.0,0.0,0.0,0.0,0.0,-0.5376,-0.493,-0.4748,-0.4882,-0.5193,-0.5555,-0.6035,-0.6614,-0.74,-0.7814,-0.8201,-0.8859,-0.9198,-0.9401,-0.951,-0.9646,-0.9737,-0.9785,-0.9992,-1.0141,-1.0195,-1.0202,-1.0222,-1.0308,-1.0236,-1.0202,-1.0202,-1.0161,-1.0127,-1.0127,-1.0127,-1.0086,-0.9947,-0.994,-0.99,-0.9798,-0.9792,-0.9792,-0.9792,-0.9792,-0.9792,-0.9792,-0.9792,-0.9792,-0.9792,-0.9792,-0.9792,-0.9792,-0.9792,-0.9792,-0.9792,-0.9792,-0.9792,-0.9792,-0.9792,-0.7856,-0.4885,-0.4885,-0.2893,0.0,0.0,0.0,0.0,0.0,0.0,0.0,0.0,0.0,0.0,0.0,0.0,0.0,0.0,0.0,0.0,0.0,0.0,0.0,0.0,-0.003,-0.0029,0.0,-0.0701,-0.1179,-0.1333,-0.2085,-0.2918,-0.3808,-0.3829,-0.4122,-0.4715,-0.497,-0.5342,-0.58,-0.6267,-0.6797,-0.7348,-0.7026,-0.7222,-0.7773,-0.7631,-0.759,-0.7645,-0.7891,-0.7932,-0.7997,-0.9264,-0.9413,0.0,-0.8919,-0.8669,0.0,-0.7641,0.0,0.0,0.0,-0.541,-0.4729,-0.4722,-0.4903,-0.5173,0.0,0.0,0.0,-0.7339,-0.7317,-0.7452,-0.8825,-0.8791,-0.8655,-0.9267,-0.9476,-0.9625,-0.9751,-0.9785,-0.9832,-0.9981,-0.9977,-1.0062,-1.0243,-1.0109,-0.9977,-0.9977,-0.9879,-0.9792,-0.9792,-0.9792,-0.9792,-0.9792,-0.9792,-0.9792,-0.9792,-0.9792,-0.9792,-0.9792,-0.9792,-0.9792,-0.9792,-0.9792,-0.9792,-0.9792,-0.9792,-0.9792,-0.9792,-0.9792,-0.9792,-0.9792,-0.9792,-0.9761,-0.9731,-0.9731,-0.7825,-0.4885,-0.4855,-0.2862,0.0,0.0,0.0,0.0,0.0,0.0,0.0,0.0,0.0,0.0,0.0,0.0,0.0,0.0,0.0,0.0,0.0,0.0,0.0,0.0,-0.0584,-0.0676,-0.0044,-0.0783,-0.1527,-0.2141,-0.2475,-0.3262,-0.4561,-0.4687,-0.4783,-0.4842,-0.5009,-0.5234,-0.5528,-0.5942,-0.6302,-0.6613,-0.6709,-0.6891,-0.7134,-0.6892,-0.7308,-0.809,-0.7821,-0.8214,-0.8954,-0.9001,0.0,0.0,0.0,-0.9111,-0.9043,0.0,-0.8162,-0.758,0.0,0.0,-0.5298,-0.5058,-0.5356,-0.57,-0.5474,0.0,0.0,0.0,0.0,0.0,-0.7567,-0.7773,-0.8045,-0.875,-0.8838,-0.894,-0.9415,-0.9591,-0.968,-0.9697,-0.9785,-0.9866,-0.9944,-0.9879,-0.9852,-0.9852,-0.9819,-0.9792,-0.9792,-0.9792,-0.9792,-0.9792,-0.9792,-0.9792,-0.9792,-0.9792,-0.9792,-0.9792,-0.9792,-0.9792,-0.9792,-0.9792,-0.9792,-0.9792,-0.9792,-0.9792,-0.9792,-0.9792,-0.9792,-0.9792,-0.9792,-0.9147,-0.8063,-0.8063,-0.6813,-0.4794,-0.363,-0.1879,0.0,0.0,0.0,0.0,0.0,0.0,0.0,0.0,0.0,0.0,0.0,0.0,0.0,0.0,0.0,0.0,0.0,0.0,0.0,0.0,-0.0465,-0.0696,-0.0554,-0.1327,-0.2197,-0.309,-0.3576,-0.4248,-0.5164,-0.5261,-0.525,-0.5101,-0.5105,-0.516,-0.5287,-0.5596,-0.5833,-0.6008,-0.6178,-0.639,-0.6627,-0.6341,-0.6906,-0.8029,-0.8206,-0.8621,-0.9117,-0.93,-0.9476,0.0,0.0,0.0,-0.9449,-0.9251,-0.8669,0.0,0.0,-0.6484,-0.5983,-0.5599,-0.5899,-0.6302,-0.5947,-0.6253,-0.6668,-0.6661,0.0,0.0,-0.7475,-0.7486,-0.7617,-0.837,-0.8506,-0.8634,-0.9022,-0.9273,-0.9442,-0.9503,-0.9639,-0.9724,-0.9785,-0.9792,-0.9792,-0.9792,-0.9792,-0.9792,-0.9792,-0.9792,-0.9792,-0.9792,-0.9792,-0.9792,-0.9792,-0.9792,-0.9792,-0.9792,-0.9792,-0.9792,-0.9792,-0.9792,-0.9792,-0.9792,-0.9792,-0.9792,-0.9792,-0.9792,-0.9792,-0.9792,-0.9792,-0.8897,-0.7362,-0.6656,-0.5376,-0.3812,-0.2862,-0.1479,0.0,0.0,0.0,0.0,0.0,0.0,0.0,0.0,0.0,0.0,0.0,0.0,0.0,0.0,0.0,0.0,0.0,0.0,-0.006,-0.0207,-0.0291,-0.0662,-0.1474,-0.2261,-0.3087,-0.3956,-0.4813,-0.5359,-0.5579,-0.5613,-0.5545,-0.5392,-0.5243,-0.5143,-0.5146,-0.5314,-0.5467,-0.5579,-0.5579,-0.5824,-0.6231,-0.6008,-0.6559,-0.7678,-0.8634,-0.892,0.0,0.0,-0.9907,-0.9503,-0.9859,-0.9839,-0.9652,-0.9598,-0.8933,0.0,0.0,-0.7319,-0.6803,-0.6302,-0.6573,0.0,-0.6682,-0.6803,-0.7107,0.0,-0.7068,0.0,-0.7872,-0.7577,-0.7296,-0.8049,-0.8281,-0.8397,-0.8601,-0.8907,-0.9152,-0.9288,-0.9435,-0.9618,-0.9765,-0.9792,-0.9792,-0.9792,-0.9792,-0.9792,-0.9792,-0.9792,-0.9792,-0.9792,-0.9792,-0.9792,-0.9792,-0.9792,-0.9792,-0.9792,-0.9792,-0.9792,-0.9792,-0.9792,-0.9792,-0.9792,-0.9792,-0.9792,-0.9792,-0.9792,-0.97,-0.9542,-0.9542,-0.8526,-0.6747,-0.5253,-0.3781,-0.2493,-0.231,-0.1326,0.0,0.0,0.0,0.0,0.0,0.0,0.0,0.0,0.0,0.0,0.0,0.0,0.0,0.0,0.0,0.0,0.0,0.0,-0.0441,-0.1505,-0.2063,-0.2507,-0.2885,-0.3503,-0.3905,-0.3993,-0.4284,-0.475,-0.5423,-0.5654,-0.5647,-0.5392,-0.547,-0.545,-0.5351,-0.5378,-0.5412,-0.544,-0.544,-0.5607,-0.5922,-0.6342,-0.6939,-0.7617,-0.7821,-0.8396,-0.9131,-0.9458,-0.9707,-0.9886,-0.9846,-0.9879,-0.9879,-0.9544,-0.9286,-0.9008,0.0,0.0,0.0,-0.7335,0.0,-0.7709,-0.7335,-0.7502,-0.7675,-0.7168,0.0,0.0,-0.6954,-0.6898,-0.706,-0.7491,-0.7468,-0.754,-0.8047,-0.8411,-0.8648,-0.8682,-0.9015,-0.941,-0.9737,-0.9792,-0.9792,-0.9792,-0.9792,-0.9792,-0.9792,-0.9792,-0.9792,-0.9792,-0.9792,-0.9792,-0.9792,-0.9792,-0.9792,-0.9792,-0.9792,-0.9792,-0.9792,-0.9792,-0.9792,-0.9792,-0.9792,-0.9792,-0.9792,-0.9792,-0.9079,-0.7881,-0.7881,-0.6198,-0.3444,-0.3106,-0.277,-0.237,-0.1017,-0.0278,0.0,0.0,0.0,0.0,0.0,0.0,0.0,0.0,0.0,0.0,0.0,0.0,0.0,0.0,0.0,-0.0268,-0.1017,-0.1042,-0.1565,-0.2977,-0.326,-0.3553,-0.4064,-0.4317,-0.4561,-0.4778,-0.5,-0.5286,-0.5698,-0.584,-0.5822,-0.5698,-0.5623,-0.5525,-0.5392,-0.5392,-0.5556,-0.5842,-0.5668,-0.5908,-0.6458,-0.6634,-0.7007,-0.7559,-0.8158,0.0,-0.9335,-0.9716,-0.9924,-0.9984,-1.0053,-1.0021,-0.9947,-0.953,-0.9362,0.0,0.0,-0.8703,-0.8723,0.0,-0.8267,-0.8479,0.0,0.0,-0.8174,-0.7794,0.0,0.0,0.0,-0.7197,-0.7141,-0.7611,-0.7377,-0.7253,-0.7804,-0.8045,-0.8201,-0.8376,-0.8716,-0.9008,-0.9239,-0.9462,-0.9598,-0.9598,-0.9598,-0.9632,-0.9707,-0.9683,-0.9717,-0.9785,-0.9792,-0.9792,-0.9792,-0.9792,-0.9792,-0.9792,-0.9792,-0.9792,-0.9792,-0.9792,-0.9792,-0.9792,-0.9792,-0.9792,-0.9761,-0.8958,-0.816,-0.7362,-0.6508,-0.476,-0.2493,-0.2493,-0.2002,-0.1171,-0.0339,0.0,0.0,0.0,0.0,0.0,0.0,0.0,0.0,0.0,0.0,0.0,0.0,0.0,0.0,0.0,-0.0291,-0.0965,-0.212,-0.2464,-0.3199,-0.4677,-0.4475,-0.4642,-0.549,-0.5283,-0.5337,-0.5795,-0.5976,-0.6052,-0.6052,-0.6052,-0.6025,-0.5964,-0.5745,-0.5573,-0.544,-0.544,-0.5733,-0.6226,-0.6035,-0.6396,-0.7148,-0.6932,-0.7212,-0.7866,-0.8832,-0.9186,-0.9267,-0.9927,-1.0073,-0.9961,-1.0202,-1.0215,-1.0042,-0.9652,-0.9478,-0.9356,-0.9096,-0.9164,0.0,0.0,0.0,0.0,0.0,0.0,0.0,0.0,0.0,-0.8147,0.0,0.0,0.0,-0.781,-0.7526,-0.7317,-0.7706,-0.7773,-0.7855,-0.8124,-0.8391,-0.8547,-0.854,-0.8899,0.0,-0.9233,-0.9259,-0.9347,-0.9469,-0.9456,-0.9517,-0.972,-0.9656,-0.9656,-0.9744,-0.9778,-0.9792,-0.9792,-0.9792,-0.9792,-0.9792,-0.9792,-0.9792,-0.9792,-0.9792,-0.9633,-0.9299,-0.8003,-0.7052,-0.6381,-0.5039,-0.3505,-0.2033,-0.2033,-0.1235,0.0,0.0,0.0,0.0,0.0,0.0,0.0,0.0,0.0,0.0,0.0,0.0,0.0,0.0,0.0,0.0,0.0,-0.1394,-0.2412,-0.2472,-0.3822,-0.5362,-0.6899,-0.6416,-0.6564,-0.7834,-0.7127,-0.6624,-0.658,-0.6375,-0.6272,-0.6272,-0.6272,-0.6124,-0.5827,-0.5793,-0.5705,-0.5579,-0.5579,-0.5739,-0.6045,-0.6314,-0.677,-0.7369,-0.7335,-0.8042,-0.9179,-0.9179,-0.8879,0.0,-0.9354,-0.9673,-0.9713,-1.0127,-1.0351,-1.0392,0.0,-1.0053,-1.009,0.0,-0.9612,-0.9805,0.0,0.0,0.0,0.0,0.0,0.0,0.0,-0.8947,0.0,0.0,0.0,-0.8036,-0.7566,0.0,0.0,0.0,0.0,0.0,-0.7672,-0.7898,0.0,-0.7905,-0.8194,-0.8471,-0.8594,-0.8825,-0.8967,-0.8987,-0.8865,-0.8981,-0.9401,-0.9163,-0.9183,-0.9612,-0.9724,-0.9792,-0.9792,-0.9792,-0.9792,-0.9792,-0.9792,-0.9792,-0.9792,-0.9792,-0.9049,-0.7667,-0.7484,-0.58,-0.3044,-0.2862,-0.1817,-0.0278,-0.0278,-0.0187,0.0,0.0,0.0,0.0,0.0,0.0,0.0,0.0,0.0,0.0,0.0,0.0,0.0,0.0,0.0,0.0,0.0,-0.0653,-0.1915,-0.3963,-0.4584,-0.5937,-0.8558,0.0,-0.789,0.0,0.0,-0.7276,-0.6945,-0.6816,-0.6729,-0.6654,-0.658,-0.6389,-0.609,-0.5888,-0.5732,-0.5607,-0.5607,-0.5935,-0.6546,-0.6886,-0.7444,-0.814,-0.8076,-0.8321,-0.877,-0.8879,-0.8723,0.0,-0.9781,-1.0256,-1.0238,-1.0365,-1.05,-1.0541,0.0,-0.9859,0.0,0.0,0.0,0.0,0.0,0.0,0.0,0.0,0.0,0.0,0.0,0.0,0.0,0.0,0.0,-0.7984,0.0,0.0,0.0,0.0,0.0,0.0,0.0,-0.7706,0.0,0.0,0.0,-0.7927,-0.8335,0.0,-0.8655,-0.8885,-0.877,-0.8859,-0.9247,-0.8974,-0.9001,-0.9456,-0.9618,-0.9704,-0.9792,-0.9792,-0.9792,-0.9792,-0.9792,-0.9792,-0.9792,-0.9792,-0.8958,-0.7357,-0.6381,-0.4698,-0.2431,-0.1479,-0.0651,0.0,0.0,0.0,0.0,0.0,0.0,0.0,0.0,0.0,0.0,0.0,0.0,0.0,0.0,0.0,0.0,0.0,0.0,0.0,0.0,-0.0871,-0.2493,-0.5217,-0.5997,0.0,0.0,-0.9704,-0.9136,0.0,0.0,-0.7966,-0.7682,-0.7398,0.0,-0.7276,-0.6965,-0.6695,-0.6464,-0.6117,-0.5915,-0.5895,-0.5831,-0.6207,-0.6985,-0.7428,-0.8097,-0.8832,-0.8804,-0.8872,-0.9015,-0.9103,-0.915,-0.9259,-1.015,-1.0583,-1.0704,-1.0595,-1.0656,-1.065,-1.0059,-0.9917,0.0,-0.9758,0.0,0.0,0.0,0.0,0.0,-0.9523,0.0,0.0,0.0,0.0,0.0,0.0,0.0,0.0,0.0,0.0,0.0,0.0,0.0,0.0,0.0,0.0,-0.7536,0.0,-0.7238,0.0,0.0,0.0,0.0,-0.8696,-0.854,-0.856,-0.8968,-0.8655,-0.8716,-0.9315,-0.9462,-0.9632,-0.9785,-0.9792,-0.9792,-0.9792,-0.9792,-0.9792,-0.9792,-0.9359,-0.8282,-0.6656,-0.5008,-0.3354,-0.1756,-0.0527,0.0,0.0,0.0,0.0,0.0,0.0,0.0,0.0,0.0,0.0,0.0,0.0,0.0,0.0,0.0,0.0,0.0,0.0,0.0,0.0,0.0,-0.3056,-0.5377,-0.5746,0.0,0.0,0.0,0.0,-1.0378,-1.0254,0.0,-0.896,-0.9139,0.0,-0.7787,0.0,-0.7479,-0.7011,-0.6884,-0.6484,-0.6409,-0.6661,-0.6396,-0.6559,-0.7125,-0.7909,-0.86,-0.9214,-0.9449,-1.0042,-1.0792,-1.0399,-1.0487,-1.0745,0.0,-1.0305,-1.0684,-1.0717,0.0,0.0,-1.0568,-1.0466,0.0,0.0,0.0,0.0,0.0,0.0,0.0,0.0,0.0,0.0,-0.8919,0.0,0.0,0.0,0.0,-0.8534,0.0,0.0,0.0,0.0,0.0,0.0,0.0,0.0,0.0,0.0,0.0,0.0,0.0,0.0,0.0,0.0,-0.7896,-0.7875,-0.8485,-0.8092,-0.8228,-0.9166,-0.9335,-0.9523,-0.9785,-0.9792,-0.9792,-0.9792,-0.9792,-0.9792,-0.9792,-0.8221,-0.6599,-0.4916,-0.3323,-0.1663,-0.0062,-0.0031,0.0,0.0,0.0,0.0,0.0,0.0,0.0,0.0,0.0,0.0,0.0,0.0,0.0,0.0,0.0,0.0,0.0,0.0,0.0,-0.0528,0.0,-0.3322,0.0,0.0,-0.9211,-1.0311,0.0,0.0,-1.09,-1.0453,-0.992,0.0,0.0,0.0,-0.8527,0.0,-0.8047,-0.7594,-0.7373,-0.6824,-0.6654,-0.6823,-0.6559,-0.6743,-0.7326,-0.8104,-0.877,-0.9362,-0.9704,-0.9988,-1.0163,-1.0116,-1.0514,-1.1056,0.0,-1.0644,-1.0684,-1.0684,-1.0786,0.0,-1.0677,-1.0575,-1.0473,-1.0371,-1.0177,-0.9977,-0.9954,-0.9981,0.0,0.0,0.0,-1.0059,-0.9456,0.0,0.0,0.0,0.0,0.0,0.0,0.0,0.0,0.0,0.0,0.0,0.0,0.0,0.0,0.0,0.0,0.0,0.0,0.0,0.0,0.0,0.0,-0.7862,-0.8142,-0.814,-0.8377,-0.8981,-0.934,-0.9578,-0.968,-0.9744,-0.9792,-0.9792,-0.9792,-0.9792,-0.9792,-0.816,-0.6538,-0.4855,-0.3231,-0.158,0.0,0.0,0.0,0.0,0.0,0.0,0.0,0.0,0.0,0.0,0.0,0.0,0.0,0.0,0.0,0.0,0.0,0.0,0.0,0.0,-0.0704,-0.1741,0.0,-0.4635,0.0,-0.9547,0.0,-1.0852,0.0,-1.2009,-1.143,-1.0772,-1.0555,0.0,-1.0073,-0.9616,0.0,0.0,0.0,-0.8344,-0.7916,-0.7421,-0.7175,-0.7215,-0.6954,-0.7076,-0.758,-0.8309,-0.892,-0.9451,-1.0055,-1.0305,-1.0304,-1.0405,-1.0765,0.0,0.0,-1.0901,-1.0759,0.0,-1.0752,-1.0819,-1.0718,-1.0656,-1.0575,-1.0575,-1.0405,-1.0177,-1.0177,-1.0143,-1.0069,-0.9913,-1.0086,0.0,-0.972,-0.9537,0.0,-0.8757,0.0,0.0,0.0,0.0,0.0,0.0,0.0,0.0,0.0,0.0,0.0,0.0,-0.6763,0.0,0.0,0.0,0.0,0.0,0.0,-0.7628,-0.7986,-0.7984,-0.8241,-0.8879,-0.9259,-0.9517,-0.968,-0.9744,-0.9792,-0.9792,-0.9792,-0.9511,-0.8927,-0.7301,-0.5647,-0.3999,-0.2354,-0.1031,0.0,0.0,0.0,0.0,0.0,0.0,0.0,0.0,0.0,0.0,0.0,0.0,0.0,0.0,0.0,0.0,0.0,0.0,-0.0027,-0.0119,-0.1988,-0.3471,0.0,-0.7043,-0.9612,-1.0121,-1.1482,-1.2508,-1.2975,-1.2615,0.0,-1.1322,-1.1254,0.0,0.0,-1.0405,-1.0349,-1.0349,0.0,0.0,0.0,-0.8169,-0.7932,-0.779,-0.7546,-0.7559,-0.7841,-0.8561,-0.9061,-0.9462,-1.0454,-1.1029,-1.1227,-1.122,-1.1308,-1.1396,-1.1281,-1.1097,-1.0914,-1.0765,-1.0711,-1.0711,-1.0698,-1.0698,-1.0698,-1.0691,-1.0622,-1.05,-1.0493,-1.0399,-1.0256,-1.0069,-1.0175,-1.0188,-0.9761,-0.9639,0.0,0.0,0.0,-0.8825,0.0,0.0,0.0,0.0,0.0,0.0,0.0,0.0,0.0,0.0,0.0,0.0,0.0,0.0,0.0,0.0,-0.7249,-0.7229,-0.7894,-0.7638,-0.7855,-0.8845,-0.9104,-0.939,-0.9758,-0.9792,-0.9798,-0.9792,-0.9731,-0.8927,-0.7388,-0.5621,-0.3968,-0.2436,-0.0752,0.0,0.0,0.0,0.0,0.0,0.0,0.0,0.0,0.0,0.0,0.0,0.0,0.0,0.0,0.0,0.0,0.0,0.0,0.0,-0.042,-0.1665,-0.2751,-0.4439,0.0,-0.8958,-1.0532,-1.231,-1.2775,-1.303,-1.3146,-1.2955,0.0,0.0,0.0,0.0,-1.1696,-1.109,-1.0745,-1.0745,-0.9897,0.0,-0.9179,-0.8289,-0.7885,-0.7952,-0.7678,-0.7638,-0.7834,-0.8364,-0.8954,-0.9598,-1.031,-1.1016,-1.1647,-1.1545,-1.1586,-1.1665,0.0,-1.1409,-1.1253,-1.1104,-1.1084,-1.1036,-1.0894,-1.086,-1.0833,-1.0725,-1.0697,-1.0636,-1.0527,-1.0466,-1.0405,-1.0263,-1.0331,-1.0412,-1.0297,-1.0131,-0.9886,0.0,0.0,0.0,0.0,0.0,0.0,0.0,0.0,0.0,0.0,0.0,0.0,0.0,0.0,0.0,-0.7206,0.0,0.0,-0.6872,-0.719,-0.7391,-0.7328,-0.7787,-0.8281,-0.8716,-0.9123,-0.9403,-0.949,-0.9785,-0.9907,-0.9792,-0.8617,-0.782,-0.7357,-0.4484,-0.2911,-0.2442,-0.0756,0.0,0.0,0.0,0.0,0.0,0.0,0.0,0.0,0.0,0.0,0.0,0.0,0.0,0.0,0.0,0.0,-0.0282,-0.1106,-0.1439,-0.1881,-0.2757,-0.4535,-0.6608,-0.8894,-1.0343,0.0,-1.2862,-1.3166,-1.3275,-1.3275,-1.318,0.0,-1.2651,0.0,0.0,-1.2111,-1.1782,-1.1502,-1.1306,-1.0561,0.0,-0.9571,0.0,-0.8309,-0.8133,-0.7878,-0.7776,-0.7834,-0.835,-0.8852,-0.9352,-1.0365,-1.1151,-1.1698,-1.1685,-1.1726,0.0,-1.1638,-1.1565,-1.1477,-1.1396,-1.1308,-1.1186,-1.107,-1.0968,-1.0901,-1.0813,-1.0738,-1.0704,-1.0616,-1.0595,-1.0575,-1.0493,-1.0527,-1.0595,-1.0595,-1.0419,-1.0186,-0.9808,-0.968,-0.949,0.0,0.0,0.0,0.0,0.0,0.0,0.0,0.0,0.0,0.0,0.0,0.0,0.0,-0.7272,0.0,-0.6546,-0.694,-0.7168,-0.7098,-0.7513,-0.7963,-0.8372,-0.8906,-0.9245,-0.9403,-0.9693,-0.9477,-0.8745,-0.785,-0.6686,-0.525,-0.3375,-0.2125,-0.1387,-0.0416,0.0,0.0,0.0,0.0,0.0,0.0,0.0,0.0,0.0,0.0,0.0,0.0,0.0,0.0,-0.0321,-0.0637,-0.1361,-0.3014,-0.3895,-0.4354,-0.4284,-0.7013,-0.9217,-0.9599,0.0,-1.2766,-1.2637,-1.3085,-1.3403,-1.3403,0.0,-1.3037,-1.2644,-1.2854,-1.2792,-1.2268,-1.2413,-1.2332,-1.1861,-1.1396,0.0,0.0,-0.9369,-0.8818,-0.8233,-0.8067,-0.7925,-0.7807,-0.8411,-0.8818,-0.9176,-1.0614,-1.1348,-1.1624,-1.1746,-1.1793,-1.178,-1.1638,-1.1584,-1.1584,-1.1584,-1.145,-1.1254,-1.1234,-1.1111,-1.0968,-1.0928,-1.0826,-1.0711,-1.0724,-1.0684,-1.0684,-1.0684,-1.0684,-1.0684,-1.0684,-1.0622,-1.0385,-0.9849,-0.9605,-0.9485,-0.9328,-0.9171,-0.9237,0.0,0.0,0.0,0.0,0.0,0.0,0.0,0.0,0.0,0.0,0.0,0.0,-0.6518,-0.6634,-0.6809,-0.6992,-0.7018,-0.7301,-0.7925,0.0,-0.8933,-0.9369,-0.9311,-0.8678,-0.7418,-0.6961,-0.5314,-0.2501,-0.2286,-0.1422,0.0,0.0,0.0,0.0,0.0,0.0,0.0,0.0,0.0,0.0,0.0,0.0,0.0,0.0,0.0,0.0,-0.2072,-0.3996,-0.5384,-0.5447,-0.7183,-0.8626,-0.8895,-0.9577,-1.0495,-1.1747,-1.2709,-1.3275,-1.3247,-1.3336,-1.3403,-1.3403,-1.3376,0.0,0.0,0.0,0.0,-1.3023,-1.2793,-1.2503,-1.2216,-1.1367,-1.063,0.0,-0.9163,-0.8479,-0.7896,-0.7966,-0.7871,-0.7665,-0.8255,-0.9089,-1.0093,-1.088,-1.1409,-1.1759,-1.1786,-1.1793,-1.178,-1.1638,-1.1584,-1.1584,-1.1584,-1.1586,-1.1518,-1.1396,-1.1335,-1.1274,-1.0995,-1.0894,-1.0846,-1.0725,-1.0684,-1.0684,-1.0684,-1.0684,-1.0684,-1.0684,-1.0671,-1.0622,-1.0392,-1.0229,-1.008,-0.9893,-0.9839,-0.9751,-0.9544,0.0,0.0,0.0,0.0,0.0,0.0,0.0,0.0,0.0,0.0,-0.7445,0.0,-0.6763,-0.6864,-0.6464,-0.6641,-0.7041,-0.7645,0.0,-0.837,-0.9199,-0.8125,-0.7496,0.0,-0.4698,-0.3065,-0.2478,-0.1102,-0.0288,0.0,0.0,0.0,0.0,0.0,0.0,0.0,0.0,0.0,0.0,0.0,0.0,0.0,0.0,0.0,0.0,-0.4687,-0.5696,-0.6755,-0.7876,-0.9071,-1.0311,-1.1688,-1.2127,-1.2396,-1.27,-1.299,-1.3139,-1.3064,-1.3261,-1.3403,-1.3403,-1.3403,-1.3403,-1.3403,-1.3336,-1.3288,-1.3288,-1.3078,0.0,-1.2683,-1.1793,-1.1083,-1.0481,-0.9537,-0.8791,-0.8275,-0.8088,-0.7898,-0.774,-0.8418,-0.93,-1.0349,-1.0948,-1.1382,-1.1698,-1.1891,-1.1952,-1.1945,-1.1877,-1.1803,-1.1692,-1.1692,-1.1644,-1.157,-1.1538,-1.1457,-1.1369,-1.1226,-1.1124,-1.1029,-1.0846,-1.0806,-1.0786,-1.0711,-1.0684,-1.0684,-1.0684,-1.0684,-1.0644,-1.0527,-1.0417,-1.0236,-1.0049,-0.9954,-0.9765,-0.9376,-0.9022,0.0,0.0,0.0,0.0,0.0,0.0,0.0,0.0,0.0,0.0,0.0,0.0,0.0,0.0,0.0,0.0,0.0,-0.7577,-0.8113,0.0,0.0,0.0,-0.6106,0.0,-0.2079,-0.1198,-0.0382,0.0,0.0,0.0,0.0,0.0,0.0,0.0,0.0,0.0,0.0,0.0,0.0,0.0,0.0,0.0,0.0,0.0,-0.7297,-0.7546,-0.8371,-1.0319,-1.0801,-1.1501,-1.3359,-1.3926,-1.3928,-1.3275,-1.3186,-1.3098,-1.2936,-1.324,-1.3492,-1.3492,-1.3464,-1.3451,-1.3451,-1.3417,-1.3403,-1.3403,-1.3288,-1.3193,-1.305,-1.2325,-1.1617,0.0,-1.0039,-0.9279,-0.8703,-0.8358,-0.8175,-0.8174,-0.8838,-0.9639,-1.046,-1.1023,-1.1402,-1.1735,-1.2002,-1.2098,-1.2098,-1.2098,-1.1986,-1.184,-1.184,-1.1789,-1.1631,-1.1631,-1.1565,-1.1436,-1.1402,-1.1342,-1.122,-1.1002,-1.0961,-1.0928,-1.0779,-1.0738,-1.0725,-1.0698,-1.0684,-1.0657,-1.0568,-1.0405,-1.0249,-1.0096,-0.992,-0.9686,-0.9267,-0.907,0.0,0.0,0.0,0.0,0.0,0.0,0.0,0.0,0.0,0.0,-0.6911,0.0,0.0,0.0,0.0,0.0,-0.7006,-0.7256,-0.7713,0.0,0.0,-0.5524,-0.4388,0.0,-0.1311,0.0,0.0,0.0,0.0,0.0,0.0,0.0,0.0,0.0,0.0,0.0,0.0,0.0,0.0,0.0,0.0,0.0,0.0,0.0,-0.9312,-1.1066,-1.2631,-1.2874,-1.3226,-1.3547,-1.3732,-1.4082,-1.4156,-1.3761,-1.3714,-1.3707,-1.3693,-1.3734,-1.3754,-1.3754,-1.3639,-1.3565,-1.3565,-1.3478,-1.3403,-1.3403,-1.339,-1.3308,-1.32,-1.2684,-1.2013,0.0,0.0,-0.9686,-0.871,-0.8784,-0.896,-0.9288,-0.9764,-1.0297,0.0,-1.1233,-1.1619,-1.2064,-1.2091,-1.2098,-1.2098,-1.2098,-1.2091,-1.2077,-1.2077,-1.1938,-1.1773,-1.1773,-1.1678,-1.1572,-1.1436,-1.1382,-1.1341,-1.122,-1.1179,-1.1145,-1.0934,-1.0894,-1.086,-1.0725,-1.0684,-1.0684,-1.0671,-1.048,-1.0276,-1.0295,-1.0025,-0.9686,-0.9267,-0.9462,-0.9456,0.0,0.0,0.0,0.0,0.0,0.0,0.0,0.0,0.0,0.0,-0.6512,0.0,0.0,-0.6375,-0.6437,-0.6722,-0.677,-0.6757,-0.6735,-0.4996,-0.3645,-0.2739,-0.1071,-0.0159,0.0,0.0,0.0,0.0,0.0,0.0,0.0,0.0,0.0,0.0,0.0,0.0,0.0,0.0,0.0,0.0,0.0,0.0,0.0,-1.213,-1.2766,-1.3424,-1.3783,-1.3844,-1.3916,-1.4282,-1.4437,-1.4444,-1.4272,-1.4089,-1.398,-1.398,-1.3856,-1.3795,-1.3795,-1.3747,-1.3714,-1.3714,-1.3578,-1.3539,-1.3539,-1.3451,-1.337,-1.3308,-1.2963,-1.2506,0.0,0.0,-1.0331,-0.9652,-0.9494,-0.9697,-1.0195,-1.0371,-1.0785,-1.1327,-1.1529,-1.1864,-1.2234,-1.2234,-1.2288,-1.2325,-1.2325,-1.2271,-1.2234,-1.2234,-1.2139,-1.1972,-1.1972,-1.1816,-1.157,-1.1545,-1.1531,-1.1497,-1.1348,-1.1336,-1.1267,-1.1118,-1.1077,-1.1043,-1.086,-1.0826,-1.0799,-1.0711,-1.0561,-1.0417,-1.0329,-1.0032,-0.9737,-0.9585,-0.9483,-0.9422,0.0,0.0,0.0,0.0,0.0,0.0,0.0,0.0,0.0,0.0,0.0,0.0,0.0,0.0,-0.6484,-0.6918,-0.7136,-0.7026,-0.651,0.0,-0.367,-0.25,-0.083,0.0,0.0,0.0,0.0,0.0,0.0,0.0,0.0,0.0,0.0,0.0,0.0,0.0,0.0,0.0,0.0,0.0,0.0,0.0,0.0,-1.3842,-1.3743,-1.377,-1.4333,-1.4207,-1.42,-1.4626,-1.4694,-1.4654,-1.459,-1.4394,-1.4238,-1.415,-1.4041,-1.393,-1.393,-1.3889,-1.3905,-1.3905,-1.3727,-1.3632,-1.3592,-1.3526,0.0,-1.3403,-1.3193,-1.2867,-1.242,-1.1658,-1.109,-1.0635,-1.0385,-1.0555,-1.1016,-1.1145,-1.1443,-1.1884,-1.1996,-1.225,-1.2526,-1.2526,-1.2549,-1.263,-1.2583,-1.2508,-1.2413,-1.2366,-1.2257,-1.2166,-1.2166,-1.1996,-1.1742,-1.1694,-1.1644,-1.1617,-1.1504,-1.1457,-1.1423,-1.1308,-1.1261,-1.1227,-1.1016,-1.0948,-1.0887,-1.0779,-1.0636,-1.0439,-1.0249,-1.0005,-0.9792,-0.9792,-0.9564,-0.9471,-0.971,0.0,0.0,0.0,0.0,0.0,0.0,0.0,-0.758,-0.7733,0.0,0.0,0.0,0.0,-0.7015,-0.7296,-0.7502,0.0,0.0,0.0,0.0,-0.2526,-0.0836,0.0,0.0,0.0,0.0,0.0,0.0,0.0,0.0,0.0,0.0,0.0,0.0,0.0,0.0,0.0,0.0,0.0,0.0,0.0,0.0,-1.4023,-1.4112,-1.4204,-1.4613,-1.4687,-1.4687,-1.4694,-1.4694,-1.4694,-1.4694,-1.4687,-1.4572,-1.4326,-1.4292,-1.4292,-1.4292,-1.4156,-1.4112,-1.4112,-1.3926,-1.3734,0.0,0.0,-1.3553,-1.3403,-1.3247,-1.3024,-1.2686,0.0,0.0,-1.1375,-1.1375,-1.1531,-1.1793,-1.2135,-1.2352,-1.2501,-1.2618,-1.2813,-1.2989,-1.2989,-1.2996,-1.2975,-1.2786,-1.2686,-1.2665,-1.2556,-1.2406,-1.2284,-1.2284,-1.222,-1.207,-1.1877,-1.1793,-1.1766,-1.1624,-1.1613,-1.1586,-1.143,-1.1389,-1.1355,-1.1234,-1.1056,-1.0914,-1.0914,-1.0677,-1.0405,-1.0082,-0.99,-0.9792,-0.9792,-0.9785,-0.9673,-0.926,0.0,0.0,0.0,0.0,0.0,0.0,-0.7482,-0.7093,-0.7556,0.0,0.0,0.0,0.0,-0.8145,-0.7821,-0.7672,0.0,-0.6721,-0.5079,0.0,-0.2526,-0.0845,0.0,0.0,0.0,0.0,0.0,0.0,0.0,0.0,0.0,0.0,0.0,0.0,0.0,0.0,0.0,0.0,0.0,0.0,0.0,0.0,-1.4496,-1.4529,-1.4525,-1.4667,-1.4828,-1.4896,-1.4896,-1.4977,-1.5004,-1.4909,-1.4896,-1.4821,-1.4624,-1.4509,-1.4441,0.0,-1.4312,-1.4231,0.0,-1.4082,-1.398,-1.3933,-1.3831,-1.366,-1.3559,-1.3505,-1.3336,-1.303,0.0,0.0,-1.2149,-1.2047,-1.2216,-1.2603,-1.2596,-1.2671,-1.286,-1.2907,-1.2955,-1.3003,-1.3003,-1.3003,-1.2996,-1.2948,-1.2888,-1.2868,-1.2712,-1.263,-1.2576,-1.2467,-1.24,-1.2338,-1.2189,-1.2074,-1.1959,-1.1809,-1.1726,-1.1698,-1.1586,-1.1545,-1.1511,-1.1355,-1.128,-1.1164,-1.0961,-1.0677,-1.0439,-1.0249,-1.0055,-0.9913,-0.9812,-0.9792,-0.9744,-0.9632,-0.9646,0.0,0.0,0.0,0.0,0.0,0.0,-0.7763,0.0,-0.781,0.0,0.0,0.0,0.0,0.0,0.0,0.0,0.0,-0.4801,0.0,-0.0808,-0.0254,0.0,0.0,0.0,0.0,0.0,0.0,0.0,0.0,0.0,0.0,0.0,0.0,0.0,0.0,0.0,0.0,0.0,0.0,0.0,0.0,-1.4814,-1.4828,-1.4841,-1.4896,-1.4984,-1.5098,-1.5098,-1.5173,-1.5153,-1.5112,-1.5098,-1.5011,-1.4916,-1.4774,-1.4658,-1.4559,-1.4462,-1.438,-1.438,-1.4238,-1.4129,-1.4119,-1.398,-1.3858,-1.3666,-1.3666,0.0,-1.3342,-1.3044,-1.2874,-1.2834,-1.2691,-1.28,-1.3125,-1.3024,-1.3037,-1.3166,-1.3166,-1.3166,-1.3166,-1.3166,-1.3166,-1.3159,-1.3105,-1.3084,-1.3064,-1.2868,-1.282,-1.2793,-1.2637,-1.2589,-1.2562,-1.2413,-1.2305,-1.2227,-1.1979,-1.1918,-1.1884,-1.1705,-1.1665,-1.1624,-1.1511,-1.1436,-1.1314,-1.0982,-1.0725,-1.0534,-1.0392,-1.0195,-0.9988,-0.9893,-0.9832,-0.9792,-0.9792,-0.97,-0.9503,-0.9226,0.0,0.0,0.0,0.0,0.0,0.0,-0.8277,-0.8325,0.0,0.0,0.0,0.0,0.0,-0.7329,-0.5362,-0.444,-0.3007,-0.0966,-0.0323,0.0,0.0,0.0,0.0,0.0,0.0,0.0,0.0,0.0,0.0,0.0,0.0,0.0,0.0,0.0,0.0,0.0,0.0,0.0,0.0,-1.5003,-1.503,-1.5025,-1.516,-1.5181,-1.5181,-1.5181,-1.5181,-1.5181,-1.5181,-1.5181,-1.5181,-1.5181,-1.5112,-1.493,-1.4735,-1.4624,0.0,-1.4529,-1.4394,-1.4251,-1.4109,-1.4139,-1.4014,-1.3815,-1.3815,-1.3741,-1.3599,-1.3349,-1.3275,-1.341,-1.3261,-1.3261,-1.3403,-1.3403,-1.3403,-1.3403,-1.3403,-1.3403,-1.3403,-1.3403,-1.3403,-1.3383,-1.3241,-1.3227,-1.3207,-1.3064,-1.3016,-1.2989,-1.28,-1.2706,-1.2679,-1.2576,-1.2528,-1.2461,-1.22,-1.2118,-1.2084,-1.1854,-1.1807,-1.178,-1.1638,-1.1511,-1.1321,-1.1009,-1.0819,-1.069,-1.0541,-1.0245,-1.0042,-0.999,-0.99,-0.9805,-0.9792,-0.9693,-0.949,-0.9226,0.0,0.0,0.0,0.0,0.0,-0.8094,-0.8601,-0.8926,0.0,0.0,0.0,0.0,0.0,-0.6365,-0.6738,-0.3997,-0.243,-0.2332,-0.079,0.0,0.0,0.0,0.0,0.0,0.0,0.0,0.0,0.0,0.0,0.0,0.0,0.0,0.0,0.0,0.0,0.0,0.0,0.0,0.0,-1.5126,-1.5133,-1.5147,-1.5174,-1.5181,-1.5181,-1.5181,-1.5181,-1.5181,-1.5181,-1.5181,-1.5181,-1.5181,-1.5153,-1.512,-1.5079,-1.4835,-1.464,-1.464,-1.4543,-1.4441,-1.4407,-1.4306,-1.4177,-1.4021,-1.4014,-1.3939,-1.3747,-1.3607,-1.3539,-1.3531,-1.3417,-1.3363,-1.3403,-1.3403,-1.3403,-1.3403,-1.3403,-1.3403,-1.3403,-1.3403,-1.3403,-1.3397,-1.3363,-1.3349,-1.3329,-1.3214,-1.3166,-1.3139,-1.2996,-1.2948,-1.2901,-1.2901,-1.2773,-1.2617,-1.2325,-1.2237,-1.2203,-1.2084,-1.2043,-1.1972,-1.178,-1.1586,-1.1375,-1.1301,-1.1049,-1.0819,-1.0664,-1.0521,-1.0285,-1.0062,-0.9988,-0.9927,-0.9812,-0.9605,-0.9396,-0.9234,-0.9001,0.0,0.0,-0.8832,-0.8913,-0.871,-0.9062,-0.9137,0.0,0.0,-0.9149,-0.8737,-0.6304,-0.4436,-0.338,-0.2809,-0.1873,-0.0592,-0.02,0.0,0.0,0.0,0.0,0.0,0.0,0.0,0.0,0.0,0.0,0.0,0.0,0.0,0.0,0.0,0.0,0.0,0.0,0.0,0.0,-1.5391,-1.5337,-1.5309,-1.5377,-1.5337,-1.5289,-1.5289,-1.5289,-1.5262,-1.5194,-1.5181,-1.5181,-1.5181,-1.5181,-1.5181,-1.5181,-1.4977,-1.4841,-1.4841,-1.4699,-1.4539,-1.4516,-1.4434,-1.4326,-1.4177,-1.4177,-1.4102,-1.3946,-1.3754,-1.3687,-1.368,-1.3531,-1.3505,-1.3505,-1.3431,-1.3403,-1.3403,-1.3403,-1.3403,-1.3403,-1.3403,-1.3403,-1.3403,-1.3403,-1.3403,-1.339,-1.3308,-1.3275,-1.3254,-1.3146,-1.3098,-1.3084,-1.3023,-1.2941,-1.2807,-1.2644,-1.2494,-1.2352,-1.2241,-1.2207,-1.2115,-1.1884,-1.1671,-1.1558,-1.1423,-1.1267,-1.1056,-1.0833,-1.0671,-1.0507,-1.0177,-1.0069,-0.9947,-0.9731,-0.9591,-0.9437,-0.9213,-0.9111,0.0,-0.8947,-0.9145,-0.9254,-0.915,-0.9408,-0.9456,-0.9144,-0.9327,0.0,-0.8509,-0.6858,-0.5152,-0.3481,-0.2087,-0.0917,0.0,0.0,0.0,0.0,0.0,0.0,0.0,0.0,0.0,0.0,0.0,0.0,0.0,0.0,0.0,0.0,0.0,0.0,0.0,0.0,0.0,0.0,-1.5593,-1.5533,-1.5486,-1.5566,-1.5533,-1.5445,-1.5445,-1.5445,-1.5391,-1.5235,-1.5215,-1.5208,-1.5181,-1.5181,-1.5181,-1.5181,-1.5119,-1.5051,-1.5051,-1.4862,-1.4674,-1.4584,-1.4557,-1.4475,-1.4333,-1.4312,-1.4238,-1.4153,-1.3953,-1.3835,-1.3829,-1.3687,-1.3605,-1.3585,-1.3492,-1.3424,-1.3403,-1.3403,-1.3403,-1.3403,-1.3403,-1.3403,-1.3403,-1.3403,-1.3403,-1.3403,-1.3403,-1.3403,-1.3383,-1.3254,-1.3248,-1.3227,-1.3105,-1.305,-1.303,-1.303,-1.2793,-1.2542,-1.2393,-1.2325,-1.223,-1.1965,-1.1827,-1.1732,-1.1511,-1.1423,-1.1321,-1.1036,-1.084,-1.0637,-1.0399,-1.0202,-0.9954,-0.9663,-0.9639,-0.9537,-0.926,0.0,-0.9281,-0.9281,-0.9417,-0.949,-0.9546,-0.9741,-0.9842,-0.972,-0.9822,-0.9322,-0.8088,-0.7765,-0.6805,-0.4971,-0.1998,-0.0266,0.0,0.0,0.0,0.0,0.0,0.0,0.0,0.0,0.0,0.0,0.0,0.0,0.0,0.0,0.0,0.0,0.0,0.0,0.0,0.0,0.0,0.0,-1.5593,-1.5573,-1.556,-1.5587,-1.5573,-1.5553,-1.5553,-1.5553,-1.5499,-1.5398,-1.5377,-1.5323,-1.5194,-1.5181,-1.5181,-1.5181,-1.516,-1.5147,-1.5147,-1.5018,-1.4923,-1.4903,-1.4774,-1.4586,-1.4482,-1.436,-1.4285,-1.4265,-1.4109,-1.4034,-1.4034,-1.3878,-1.37,-1.3585,-1.3565,-1.3519,-1.3403,-1.3403,-1.3403,-1.3403,-1.3403,-1.3403,-1.3403,-1.3403,-1.3403,-1.3403,-1.3403,-1.3403,-1.3397,-1.337,-1.3363,-1.3363,-1.3342,-1.3247,-1.318,-1.318,-1.3064,-1.2894,-1.2705,-1.2481,-1.2277,-1.223,-1.2026,-1.178,-1.1739,-1.1572,-1.1382,-1.1335,-1.107,-1.0826,-1.0683,-1.0426,-1.0148,-0.9805,-0.9758,-0.9686,-0.9417,0.0,-0.972,-0.972,-0.9819,-0.9967,-1.0127,-1.0213,-1.0202,-1.0175,-1.0195,-1.0121,-0.9887,-0.8542,-0.6954,-0.5125,-0.3239,-0.156,0.0,0.0,0.0,0.0,0.0,0.0,0.0,0.0,0.0,0.0,0.0,0.0,0.0,0.0,0.0,0.0,0.0,0.0,0.0,0.0,0.0,0.0,-1.5879,-1.5791,-1.575,-1.5859,-1.5791,-1.5723,-1.575,-1.5757,-1.5703,-1.5554,-1.5459,-1.5384,-1.5309,-1.5228,-1.5181,-1.5181,-1.5181,-1.5181,-1.5181,-1.512,-1.5098,-1.5023,-1.4903,-1.4794,-1.4593,-1.4489,-1.4414,-1.4414,-1.4265,-1.4197,-1.419,-1.4034,-1.3933,-1.3865,-1.3783,-1.3619,-1.3526,-1.3526,-1.3478,-1.3403,-1.3403,-1.3403,-1.3403,-1.3403,-1.3403,-1.3403,-1.3403,-1.3403,-1.3403,-1.3403,-1.3403,-1.3403,-1.3403,-1.3349,-1.3295,-1.3295,-1.318,-1.2969,-1.2733,-1.2591,-1.2488,-1.2332,-1.2182,-1.206,-1.1972,-1.1782,-1.1606,-1.1531,-1.1341,-1.1118,-1.0853,-1.0663,-1.0446,-1.0215,-1.0015,0.0,-0.9731,-0.9825,-0.9913,-0.9913,-1.0049,-1.0202,-1.0308,-1.0315,-1.0315,-1.0315,-1.0315,-1.0351,-1.0507,-0.9789,-0.8141,-0.5444,-0.2676,-0.0833,0.0,0.0,0.0,0.0,0.0,0.0,0.0,0.0,0.0,0.0,0.0,0.0,0.0,0.0,0.0,0.0,0.0,0.0,0.0,0.0,0.0,0.0,-1.6083,-1.5961,-1.59,-1.6056,-1.5954,-1.5915,-1.5949,-1.5956,-1.5901,-1.571,-1.5588,-1.5499,-1.5466,-1.5323,-1.5235,-1.5235,-1.5201,-1.5181,-1.5181,-1.5181,-1.5133,-1.5071,-1.5037,-1.4916,-1.4748,-1.4599,-1.4563,-1.4563,-1.4421,-1.4346,-1.4346,-1.4197,-1.4146,-1.4112,-1.3946,-1.3774,-1.3639,-1.3639,-1.3593,-1.3451,-1.3451,-1.3431,-1.3403,-1.3403,-1.3403,-1.3403,-1.3403,-1.3403,-1.3403,-1.3403,-1.3403,-1.3403,-1.3403,-1.3403,-1.3403,-1.3403,-1.3241,-1.3064,-1.2834,-1.2759,-1.2638,-1.2447,-1.2338,-1.2257,-1.2179,-1.1993,-1.1857,-1.1742,-1.1572,-1.1375,-1.111,-1.0887,-1.0677,-1.0521,0.0,-1.0105,-1.0035,-1.0078,-1.017,-1.017,-1.0344,-1.0453,-1.0512,-1.0519,-1.0519,-1.0519,-1.0519,-1.0582,-1.0812,-1.0826,-0.9228,-0.5709,-0.1968,0.0,0.0,0.0,0.0,0.0,0.0,0.0,0.0,0.0,0.0,0.0,0.0,0.0,0.0,0.0,0.0,0.0,0.0,0.0,0.0,0.0,0.0,0.0,-1.6083,-1.6069,-1.6062,-1.6083,-1.6069,-1.6062,-1.6062,-1.6112,-1.6058,-1.5908,-1.5874,-1.5771,-1.5587,-1.5486,-1.5391,-1.5391,-1.5262,-1.5181,-1.5181,-1.5181,-1.5174,-1.5167,-1.5085,-1.501,-1.5003,-1.4801,-1.4674,-1.4674,-1.457,-1.4496,-1.4489,-1.4346,-1.4204,-1.4119,-1.4061,-1.3966,-1.3781,-1.3781,-1.37,-1.3572,-1.3572,-1.3526,-1.3403,-1.3403,-1.3403,-1.3403,-1.3403,-1.3403,-1.3403,-1.3403,-1.3403,-1.3403,-1.3403,-1.3403,-1.3403,-1.3403,-1.3383,-1.3308,-1.3064,-1.284,-1.2686,-1.2665,-1.2494,-1.2284,-1.2277,-1.2193,-1.2077,-1.207,-1.1803,-1.1599,-1.1536,-1.1185,-1.0799,-1.0541,0.0,0.0,-1.0044,-1.0373,-1.0637,-1.0637,-1.0772,-1.0914,-1.1118,-1.1132,-1.1132,-1.1132,-1.1132,-1.1145,-1.1166,-1.1166,-0.9451,-0.5718,-0.196,0.0,0.0,0.0,0.0,0.0,0.0,0.0,0.0,0.0,0.0,0.0,0.0,0.0,0.0,0.0,0.0,0.0,0.0,0.0,0.0,0.0,0.0,0.0,-1.6083,-1.6083,-1.6083,-1.6083,-1.6083,-1.6083,-1.6083,-1.6083,-1.6062,-1.6051,-1.5962,-1.5881,-1.5778,-1.5642,-1.5506,-1.5506,-1.5411,-1.5323,-1.5323,-1.5235,-1.5181,-1.5181,-1.5133,-1.5099,-1.5099,-1.4957,-1.4882,-1.4882,-1.4726,-1.4559,-1.4509,-1.4455,-1.4353,-1.4211,-1.4211,-1.4129,-1.3987,-1.3987,-1.3899,-1.3714,-1.3714,-1.3687,-1.3619,-1.358,-1.3504,-1.3532,-1.3437,-1.3403,-1.3403,-1.3403,-1.3403,-1.3403,-1.3403,-1.3403,-1.3403,-1.3403,-1.3403,-1.3376,-1.3261,-1.3119,-1.2983,-1.2895,-1.2718,-1.2562,-1.2562,-1.2379,-1.2203,-1.2203,-1.2077,-1.1891,-1.1891,-1.1606,-1.132,-1.1328,0.0,-1.0799,-1.0751,-1.0779,-1.0826,-1.0826,-1.0989,-1.1138,-1.1193,-1.12,-1.12,-1.12,-1.12,-1.124,-1.1336,-0.9111,-0.7201,-0.5764,-0.2003,0.0,0.0,0.0,0.0,0.0,0.0,0.0,0.0,0.0,0.0,0.0,0.0,0.0,0.0,0.0,0.0,0.0,0.0,0.0,0.0,0.0,0.0,0.0,-1.6083,-1.6083,-1.6083,-1.6083,-1.6083,-1.6083,-1.6083,-1.6083,-1.6083,-1.6083,-1.6037,-1.5976,-1.5976,-1.5791,-1.571,-1.571,-1.5527,-1.5411,-1.5411,-1.5269,-1.5181,-1.5181,-1.5181,-1.5181,-1.5181,-1.5086,-1.5038,-1.5038,-1.4882,-1.476,-1.4652,-1.4557,-1.4462,-1.4367,-1.4319,-1.4245,-1.4143,-1.4143,-1.4055,-1.3869,-1.3869,-1.3842,-1.3788,-1.3693,-1.3653,-1.3639,-1.358,-1.3539,-1.3532,-1.3485,-1.3471,-1.3464,-1.3417,-1.3403,-1.3403,-1.3403,-1.3403,-1.3403,-1.3403,-1.3322,-1.3248,-1.3105,-1.2915,-1.28,-1.28,-1.261,-1.2427,-1.2427,-1.2271,-1.2173,-1.2173,-1.1925,-1.1775,-1.1786,-1.1455,-1.1191,-1.1268,-1.1192,-1.1103,-1.1056,-1.1219,-1.1342,-1.1342,-1.1342,-1.1342,-1.1342,-1.1342,-1.1369,-1.1525,-0.8497,-0.6513,-0.5876,-0.2673,-0.067,0.0,0.0,0.0,0.0,0.0,0.0,0.0,0.0,0.0,0.0,0.0,0.0,0.0,0.0,0.0,0.0,0.0,0.0,0.0,0.0,0.0,0.0,-1.6083,-1.6083,-1.6083,-1.6083,-1.6083,-1.6083,-1.6083,-1.6083,-1.6083,-1.6083,-1.6083,-1.6083,-1.6083,-1.5996,-1.5901,-1.5901,-1.5588,-1.5411,-1.5411,-1.5269,-1.5181,-1.5181,-1.5181,-1.5181,-1.5181,-1.5181,-1.5181,-1.5181,-1.5085,-1.5017,-1.501,-1.4658,-1.4516,-1.4509,-1.4367,-1.4299,-1.4299,-1.4299,-1.4211,-1.4119,-1.4119,-1.398,-1.3802,-1.3802,-1.3802,-1.3802,-1.3795,-1.3795,-1.3774,-1.3639,-1.3592,-1.3565,-1.3451,-1.3403,-1.3403,-1.3403,-1.3403,-1.3403,-1.3403,-1.3403,-1.3363,-1.3214,-1.3105,-1.3003,-1.3003,-1.284,-1.2693,-1.2693,-1.2494,-1.2291,-1.2291,-1.2207,-1.205,-1.182,-1.1793,-1.1692,-1.1436,-1.1525,-1.1565,-1.1416,-1.1531,-1.1584,-1.1584,-1.1584,-1.1584,-1.1584,-1.1584,-1.1651,-1.1786,-0.9948,-0.7998,-0.6064,-0.4113,-0.2117,-0.0038,0.0,0.0,0.0,0.0,0.0,0.0,0.0,0.0,0.0,0.0,0.0,0.0,0.0,0.0,0.0,0.0,0.0,0.0,0.0,0.0,0.0,-1.6083,-1.6083,-1.6083,-1.6083,-1.6083,-1.6083,-1.6083,-1.6083,-1.6083,-1.6083,-1.6083,-1.6083,-1.6083,-1.6042,-1.6064,-1.6064,-1.5881,-1.5635,-1.5425,-1.5371,-1.5296,-1.5187,-1.5181,-1.5181,-1.5181,-1.5181,-1.5181,-1.5181,-1.514,-1.5065,-1.5017,-1.4875,-1.4719,-1.4509,-1.4468,-1.4394,-1.4299,-1.4299,-1.4272,-1.4231,-1.4231,-1.4204,-1.415,-1.4048,-1.4,-1.3987,-1.3835,-1.3795,-1.3788,-1.3747,-1.3734,-1.3707,-1.3565,-1.3485,-1.3403,-1.3403,-1.3403,-1.3403,-1.3403,-1.3403,-1.339,-1.3342,-1.322,-1.3152,-1.3152,-1.3037,-1.2895,-1.2895,-1.2739,-1.2596,-1.2596,-1.2393,-1.221,-1.2162,-1.206,-1.1965,-1.1914,-1.1941,-1.1948,-1.1907,-1.1941,-1.1968,-1.1968,-1.1968,-1.1968,-1.1968,-1.1968,-1.1989,-1.203,-1.0185,-0.8136,-0.6064,-0.4109,-0.2107,-0.0038,0.0,0.0,0.0,0.0,0.0,0.0,0.0,0.0,0.0,0.0,0.0,0.0,0.0,0.0,0.0,0.0,0.0,0.0,0.0,0.0,0.0,-1.6083,-1.6083,-1.6083,-1.6083,-1.6083,-1.6083,-1.6083,-1.6083,-1.6083,-1.6083,-1.6083,-1.6083,-1.6083,-1.6083,-1.6083,-1.6083,-1.599,-1.5799,-1.5513,-1.5499,-1.5432,-1.5276,-1.5269,-1.5242,-1.5181,-1.5181,-1.5181,-1.5181,-1.5181,-1.514,-1.5098,-1.4997,-1.4869,-1.4692,-1.4631,-1.4523,-1.438,-1.438,-1.4353,-1.4299,-1.4299,-1.4299,-1.4292,-1.4197,-1.4163,-1.415,-1.4055,-1.3977,-1.3971,-1.3953,-1.3849,-1.3781,-1.37,-1.3605,-1.3566,-1.3505,-1.3492,-1.3478,-1.3417,-1.3403,-1.3403,-1.3403,-1.3329,-1.3261,-1.3261,-1.3193,-1.3084,-1.3084,-1.2922,-1.282,-1.282,-1.2623,-1.2467,-1.2467,-1.2338,-1.2254,-1.22,-1.2186,-1.2166,-1.2104,-1.2098,-1.2098,-1.2098,-1.2098,-1.2098,-1.2098,-1.2098,-1.2125,-1.2186,-1.1045,-0.9089,-0.6194,-0.4973,-0.2944,-0.0039,0.0,0.0,0.0,0.0,0.0,0.0,0.0,0.0,0.0,0.0,0.0,0.0,0.0,0.0,0.0,0.0,0.0,0.0,0.0,0.0,0.0,-1.6083,-1.6083,-1.6083,-1.6083,-1.6083,-1.6083,-1.6083,-1.6083,-1.6083,-1.6083,-1.6083,-1.6083,-1.6083,-1.6083,-1.6083,-1.6083,-1.6003,-1.586,-1.5621,-1.5607,-1.5539,-1.5438,-1.5432,-1.5357,-1.5208,-1.5187,-1.5181,-1.5181,-1.5181,-1.5181,-1.5181,-1.5098,-1.503,-1.501,-1.4821,-1.4626,-1.4529,-1.4529,-1.4455,-1.434,-1.4326,-1.4319,-1.4319,-1.4306,-1.4299,-1.4299,-1.4299,-1.4299,-1.4278,-1.4136,-1.3987,-1.3822,-1.3822,-1.3808,-1.3774,-1.3646,-1.3605,-1.3572,-1.3464,-1.3424,-1.3417,-1.3403,-1.3403,-1.3403,-1.3403,-1.3295,-1.3234,-1.3234,-1.3118,-1.3023,-1.3023,-1.2854,-1.2713,-1.2713,-1.263,-1.2501,-1.2366,-1.2338,-1.2277,-1.2173,-1.2145,-1.2139,-1.2139,-1.2139,-1.2139,-1.2139,-1.2139,-1.22,-1.2298,-1.2325,-1.0487,-0.642,-0.631,-0.428,-0.0039,0.0,0.0,0.0,0.0,0.0,0.0,0.0,0.0,0.0,0.0,0.0,0.0,0.0,0.0,0.0,0.0,0.0,0.0,0.0,0.0,0.0,-1.6083,-1.6083,-1.6083,-1.6083,-1.6083,-1.6083,-1.6083,-1.6083,-1.6083,-1.6083,-1.6083,-1.6083,-1.6083,-1.6083,-1.6083,-1.6083,-1.6049,-1.5967,-1.5818,-1.5805,-1.5744,-1.5546,-1.5539,-1.5472,-1.5364,-1.5242,-1.5181,-1.5181,-1.5181,-1.5181,-1.5181,-1.5153,-1.5126,-1.5017,-1.4936,-1.4835,-1.4647,-1.4647,-1.4626,-1.4586,-1.4516,-1.4468,-1.4455,-1.434,-1.4299,-1.4299,-1.4299,-1.4299,-1.4292,-1.4265,-1.415,-1.4021,-1.4021,-1.3939,-1.3795,-1.3761,-1.3754,-1.372,-1.3578,-1.358,-1.3553,-1.3431,-1.3403,-1.3403,-1.3403,-1.3376,-1.3349,-1.3349,-1.3234,-1.3166,-1.3166,-1.305,-1.2908,-1.2908,-1.2921,-1.2894,-1.286,-1.2712,-1.2584,-1.2589,-1.2481,-1.2406,-1.2406,-1.2406,-1.2406,-1.2406,-1.2406,-1.242,-1.2454,-1.2569,-1.0667,-0.6422,-0.6397,-0.4384,-0.004,0.0,0.0,0.0,0.0,0.0,0.0,0.0,0.0,0.0,0.0,0.0,0.0,0.0,0.0,0.0,0.0,0.0,0.0,0.0,0.0,0.0,-1.6083,-1.6083,-1.6083,-1.6083,-1.6083,-1.6083,-1.6083,-1.6083,-1.6083,-1.6083,-1.6083,-1.6083,-1.6083,-1.6083,-1.6083,-1.6083,-1.6083,-1.6049,-1.6017,-1.601,-1.59,-1.575,-1.5744,-1.5669,-1.552,-1.5438,-1.533,-1.5181,-1.5181,-1.5181,-1.5181,-1.5181,-1.5147,-1.5119,-1.5119,-1.4991,-1.4848,-1.4848,-1.4808,-1.4687,-1.4606,-1.4618,-1.4611,-1.4536,-1.4509,-1.4509,-1.4509,-1.4462,-1.4387,-1.4326,-1.4245,-1.4183,-1.4183,-1.4122,-1.4048,-1.3973,-1.3953,-1.3919,-1.3727,-1.3639,-1.3565,-1.3532,-1.3458,-1.3403,-1.3403,-1.3403,-1.3403,-1.3403,-1.3336,-1.3281,-1.3281,-1.32,-1.3105,-1.3105,-1.3043,-1.3003,-1.3003,-1.2895,-1.284,-1.284,-1.2773,-1.2718,-1.2718,-1.2718,-1.2718,-1.2718,-1.2718,-1.2718,-1.2718,-1.28,-1.135,-0.806,-0.7018,-0.494,-0.1665,-0.0529,0.0,0.0,0.0,0.0,0.0,0.0,0.0,0.0,0.0,0.0,0.0,0.0,0.0,0.0,0.0,0.0,0.0,0.0,0.0,0.0,-1.6083,-1.6083,-1.6083,-1.6083,-1.6083,-1.6083,-1.6083,-1.6083,-1.6083,-1.6083,-1.6083,-1.6083,-1.6083,-1.6083,-1.6083,-1.6083,-1.6083,-1.6083,-1.6083,-1.6083,-1.6029,-1.5949,-1.5942,-1.5874,-1.5676,-1.5627,-1.5527,-1.5221,-1.5221,-1.5208,-1.5181,-1.5181,-1.5181,-1.5181,-1.5181,-1.512,-1.5011,-1.5011,-1.4936,-1.4769,-1.4741,-1.4735,-1.4735,-1.4708,-1.4694,-1.4694,-1.4694,-1.4613,-1.4529,-1.4387,-1.434,-1.4333,-1.4306,-1.4299,-1.4278,-1.4193,-1.4109,-1.4075,-1.3876,-1.3754,-1.3695,-1.3632,-1.3566,-1.3471,-1.3444,-1.3417,-1.3403,-1.3403,-1.3403,-1.3403,-1.3403,-1.3295,-1.3214,-1.3214,-1.3152,-1.3077,-1.3077,-1.3057,-1.3037,-1.3037,-1.3016,-1.3003,-1.3003,-1.3003,-1.3003,-1.3003,-1.3003,-1.3003,-1.3003,-1.3023,-1.2052,-0.9854,-0.7681,-0.5538,-0.3385,-0.1145,0.0,0.0,0.0,0.0,0.0,0.0,0.0,0.0,0.0,0.0,0.0,0.0,0.0,0.0,0.0,0.0,0.0,0.0,0.0,0.0,-1.6083,-1.6083,-1.6083,-1.6083,-1.6083,-1.6083,-1.6083,-1.6083,-1.6083,-1.6083,-1.6083,-1.6083,-1.6083,-1.6083,-1.6083,-1.6083,-1.6083,-1.6083,-1.6083,-1.6083,-1.6076,-1.6049,-1.6049,-1.603,-1.5874,-1.5874,-1.5676,-1.5377,-1.5377,-1.5309,-1.5181,-1.5181,-1.5181,-1.5181,-1.5181,-1.5174,-1.5153,-1.5153,-1.514,-1.5113,-1.4991,-1.4936,-1.4923,-1.4794,-1.4694,-1.4694,-1.4694,-1.4681,-1.464,-1.4536,-1.4482,-1.4462,-1.434,-1.4299,-1.4299,-1.4278,-1.4272,-1.4238,-1.4082,-1.4071,-1.398,-1.3802,-1.3754,-1.3707,-1.3585,-1.3498,-1.3403,-1.3403,-1.3403,-1.3403,-1.3403,-1.3383,-1.337,-1.337,-1.3356,-1.3342,-1.3342,-1.3268,-1.3186,-1.3186,-1.3077,-1.3003,-1.3003,-1.3003,-1.3003,-1.3003,-1.3003,-1.3003,-1.3003,-1.3118,-1.2156,-0.9891,-0.7752,-0.5591,-0.3343,-0.113,0.0,0.0,0.0,0.0,0.0,0.0,0.0,0.0,0.0,0.0,0.0,0.0,0.0,0.0,0.0,0.0,0.0,0.0,0.0,0.0,-1.6083,-1.6083,-1.6083,-1.6083,-1.6083,-1.6083,-1.6083,-1.6083,-1.6083,-1.6083,-1.6083,-1.6083,-1.6083,-1.6083,-1.6083,-1.6083,-1.6083,-1.6083,-1.6083,-1.6083,-1.6083,-1.6083,-1.6083,-1.6049,-1.603,-1.603,-1.5872,-1.5655,-1.5493,-1.5377,-1.5309,-1.5221,-1.5181,-1.5181,-1.5181,-1.5181,-1.5181,-1.5181,-1.5181,-1.5174,-1.516,-1.5086,-1.5079,-1.5011,-1.4991,-1.4977,-1.4896,-1.4869,-1.4841,-1.4692,-1.4593,-1.4579,-1.4518,-1.4489,-1.4421,-1.4421,-1.436,-1.4285,-1.4217,-1.418,-1.4098,-1.3987,-1.3862,-1.3781,-1.372,-1.3653,-1.36,-1.3437,-1.3403,-1.3403,-1.3403,-1.3403,-1.3403,-1.3403,-1.3403,-1.3403,-1.3403,-1.3342,-1.3302,-1.3302,-1.3247,-1.3207,-1.3207,-1.3207,-1.3207,-1.3207,-1.3207,-1.3207,-1.3207,-1.3268,-1.2301,-1.005,-0.7849,-0.5616,-0.3358,-0.1135,0.0,0.0,0.0,0.0,0.0,0.0,0.0,0.0,0.0,0.0,0.0,0.0,0.0,0.0,0.0,0.0,0.0,0.0,0.0,0.0]},{"header":{"parameterUnit":"m.s-1","parameterCategory":1,"la1":30.6,"la2":28.766,"lo1":-90.7593,"lo2":-88.6598,"dy":0.0162,"dx":0.0183,"nx":116,"ny":114,"refTime":"2024-06-18T06:00:00:Z","depth":0,"parameterNumber":3,"parameterNumberName":"V-component_of_WINDS"},"data":[0.0,0.0,0.0,0.0,0.0,0.0,0.0,0.0,0.0,0.0,0.0,0.0,0.0,0.0,0.0,0.0,0.0,0.0,0.0,0.0,0.0,0.0,0.0,0.0,0.0,0.0,0.0,0.0,0.0,0.0,0.0,0.0,0.0,0.0,0.0,0.0,0.0,0.0,0.0,0.0,0.0,0.0,0.0,0.0,0.0,0.0,0.0,0.0,0.0,0.0,0.0,0.0,0.0,0.0,0.0,0.0,0.0,0.0,0.0,0.0,0.0,0.0,0.0,0.0,0.0,0.0,0.0,0.0,0.0,0.0,0.0,0.0,0.0,0.0,0.0,0.0,0.0,0.0,0.0,0.0,0.0,0.0,0.0,0.0,0.0,0.0,0.0,0.0,0.0,0.0,0.0,0.0,0.0,0.0,0.0,0.0,0.0,0.0,0.0,0.0,0.0,0.0,0.0,0.0,0.0,0.0,0.0,0.0,0.0,0.0,0.0,0.0,0.0,0.0,0.0,0.0,0.0,0.0,0.0,0.0,0.0,0.0,0.0,0.0,0.0,0.0,0.0,0.0,0.0,0.0,0.0,0.0,0.0,0.0,0.0,0.0,0.0,0.0,0.0,0.0,0.0,0.0,0.0,0.0,0.0,0.0,0.0,0.0,0.0,0.0,0.0,0.0,0.0,0.0,0.0,0.0,0.0,0.0,0.0,0.0,0.0,0.0,0.0,0.0,0.0,0.0,0.0,0.0,0.0,0.0,0.0,0.0,0.0,0.0,0.0,0.0,0.0,0.0,0.0,0.0,0.0,0.0,0.0,0.0,0.0,0.0,0.0,0.0,0.0,0.0,0.0,0.0,0.0,0.0,0.0,0.0,0.0,0.0,0.0,0.0,0.0,0.0,0.0,0.0,0.0,0.0,0.0,0.0,0.0,0.0,0.0,0.0,0.0,0.0,0.0,0.0,0.0,0.0,0.0,0.0,0.0,0.0,0.0,0.0,0.0,0.0,0.0,0.0,0.0,0.0,0.0,0.0,0.0,0.0,0.0,0.0,0.0,0.0,0.0,0.0,0.0,0.0,0.0,0.0,0.0,0.0,0.0,0.0,0.0,0.0,0.0,0.0,0.0,0.0,0.0,0.0,0.0,0.0,0.0,0.0,0.0,0.0,0.0,0.0,0.0,0.0,0.0,0.0,0.0,0.0,0.0,0.0,0.0,0.0,0.0,0.0,0.0,0.0,0.0,0.0,0.0,0.0,0.0,0.0,0.0,0.0,0.0,0.0,0.0,0.0,0.0,0.0,0.0,0.0,0.0,0.0,0.0,0.0,0.0,0.0,0.0,0.0,0.0,0.0,0.0,0.0,0.0,0.0,0.0,0.0,0.0,0.0,0.0,0.0,0.0,0.0,0.0,0.0,0.0,0.0,0.0,0.0,0.0,0.0,0.0,0.0,0.0,0.0,0.0,0.0,0.0,0.0,0.0,0.0,0.0,0.0,0.0,0.0,0.0,0.0,0.0,0.0,0.0,0.0,0.0,0.0,0.0,0.0,0.0,0.0,0.0,0.0,0.0,0.0,0.0,0.0,0.0,0.0,0.0,0.0,0.0,0.0,0.0,0.0,0.0,0.0,0.0,0.0,0.0,0.0,0.0,0.0,0.0,0.0,0.0,0.0,0.0,0.0,0.0,0.0,0.0,0.0,0.0,0.0,0.0,0.0,0.0,0.0,0.0,0.0,0.0,0.0,0.0,0.0,0.0,0.0,0.0,0.0,0.0,0.0,0.0,0.0,0.0,0.0,0.0,0.0,0.0,0.0,0.0,0.0,0.0,0.0,0.0,0.0,0.0,0.0,0.0,0.0,0.0,0.0,0.0,0.0,0.0,0.0,0.0,0.0,0.0,0.0,0.0,0.0,0.0,0.0,0.0,0.0,0.0,0.0,0.0,0.0,0.0,0.0,0.0,0.0,0.0,0.0,0.0,0.0,0.0,0.0,0.0,0.0,0.0,0.0,0.0,0.0,0.0,0.0,0.0,0.0,0.0,0.0,0.0,0.0,0.0,0.0,0.0,0.0,0.0,0.0,0.0,0.0,0.0,0.0,0.0,0.0,0.0,0.0,0.0,0.0,0.0,0.0,0.0,0.0,0.0,0.0,0.0,0.0,0.0,0.0,0.0,0.0,0.0,0.0,0.0,0.0,0.0,0.0,0.0,0.0,0.0,0.0,0.0,0.0,0.0,0.0,0.0,0.0,0.0,0.0,0.0,0.0,0.0,0.0,0.0,0.0,0.0,0.0,0.0,0.0,0.0,0.0,0.0,0.0,0.0,0.0,0.0,0.0,0.0,0.0,0.0,0.0,0.0,0.0,0.0,0.0,0.0,0.0,0.0,0.0,0.0,0.0,0.0,0.0,0.0,0.0,0.0,0.0,0.0,0.0,0.0,0.0,0.0,0.0,0.0,0.0,0.0,0.0,0.0,0.0,0.0,0.0,0.0,0.0,0.0,0.0,0.0,0.0,0.0,0.0,0.0,0.0,0.0,0.0,0.0,0.0,0.0,0.0,0.0,0.0,0.0,0.0,0.0,0.0,0.0,0.0,0.0,0.0,0.0,0.0,0.0,0.0,0.0,0.0,0.0,0.0,0.0,0.0,0.0,0.0,0.0,0.0,0.0,0.0,0.0,0.0,0.0,0.0,0.0,0.0,0.0,0.0,0.0,0.0,0.0,0.0,0.0,0.0,0.0,0.0,0.0,0.0,0.0,0.0,0.0,0.0,0.0,0.0,0.0,0.0,0.0,0.0,0.0,0.0,0.0,0.0,0.0,0.0,0.0,0.0,0.0,0.0,0.0,0.0,0.0,0.0,0.0,0.0,0.0,0.0,0.0,0.0,0.0,0.0,0.0,0.0,0.0,0.0,0.0,0.0,0.0,0.0,0.0,0.0,0.0,0.0,0.0,0.0,0.0,0.0,0.0,0.0,0.0,0.0,0.0,0.0,0.0,0.0,0.0,0.0,0.0,0.0,0.0,0.0,0.0,0.0,0.0,0.0,0.0,0.0,0.0,0.0,0.0,0.0,0.0,0.0,0.0,0.0,0.0,0.0,0.0,0.0,0.0,0.0,0.0,0.0,0.0,0.0,0.0,0.0,0.0,0.0,0.0,0.0,0.0,0.0,0.0,0.0,0.0,0.0,0.0,0.0,0.0,0.0,0.0,0.0,0.0,0.0,0.0,0.0,0.0,0.0,0.0,0.0,0.0,0.0,0.0,0.0,0.0,0.0,0.0,0.0,0.0,0.0,0.0,0.0,0.0,0.0,0.0,0.0,0.0,0.0,0.0,0.0,0.0,0.0,0.0,0.0,0.0,0.0,0.0,0.0,0.0,0.0,0.0,0.0,0.0,0.0,0.0,0.0,0.0,0.0,0.0,0.0,0.0,0.0,0.0,0.0,0.0,0.0,0.0,0.0,0.0,0.0,0.0,0.0,0.0,0.0,0.0,0.0,0.0,0.0,0.0,0.0,0.0,0.0,0.0,0.0,0.0,0.0,0.0,0.0,0.0,0.0,0.0,0.0,0.0,0.0,0.0,0.0,0.0,0.0,0.0,0.0,0.0,0.0,0.0,0.0,0.0,0.0,0.0,0.0,0.0,0.0,0.0,0.0,0.0,0.0,0.0,0.0,0.0,0.0,0.0,0.0,0.0,0.0,0.0,0.0,0.0,0.0,0.0,0.0,0.0,0.0,0.0,0.0,0.0,0.0,0.0,0.0,0.0,0.0,0.0,0.0,0.0,0.0,0.0,0.0,0.0,0.0,0.0,0.0,0.0,0.0,0.0,0.0,0.0,0.0,0.0,0.0,0.0,0.0,0.0,0.0,0.0,0.0,0.0,0.0,0.0,0.0,0.0,0.0,0.0,0.0,0.0,0.0,0.0,0.0,0.0,0.0,0.0,0.0,0.0,0.0,0.0,0.0,0.0,0.0,0.0,0.0,0.0,0.0,0.0,0.0,0.0,0.0,0.0,0.0,0.0,0.0,0.0,0.0,0.0,0.0,0.0,0.0,0.0,0.0,0.0,0.0,0.0,0.0,0.0,0.0,0.0,0.0,0.0,0.0,0.0,0.0,0.0,0.0,0.0,0.0,0.0,0.0,0.0,0.0,0.0,0.0,0.0,0.0,0.0,0.0,0.0,0.0,0.0,0.0,0.0,0.0,0.0,0.0,0.0,0.0,0.0,0.0,0.0,0.0,0.0,0.0,0.0,0.0,0.0,0.0,0.0,0.0,0.0,0.0,0.0,0.0,0.0,0.0,0.0,0.0,0.0,0.0,0.0,0.0,0.0,0.0,0.0,0.0,0.0,0.0,0.0,0.0,0.0,0.0,0.0,0.0,0.0,0.0,0.0,0.0,0.0,0.0,0.0,0.0,0.0,0.0,0.0,0.0,0.0,0.0,0.0,0.0,0.0,0.0,0.0,0.0,0.0,0.0,0.0,0.0,0.0,0.0,0.0,0.0,0.0,0.0,0.0,0.0,0.0,0.0,0.0,0.0,0.0,0.0,0.0,0.0,0.0,0.0,0.0,0.0,0.0,0.0,0.0,0.0,0.0,0.0,0.0,0.0,0.0,0.0,0.0,0.0,0.0,0.0,0.0,0.0,0.0,0.0,0.0,0.0,0.0,0.0,0.0,0.0,0.0,0.0,0.0,0.0,0.0,0.0,0.0,0.0,0.0,0.0,0.0,0.0,0.0,0.0,0.0,0.0,0.0,0.0,0.0,0.0,0.0,0.0,0.0,0.0,0.0,0.0,0.0,0.0,0.0,0.0,0.0,0.0,0.0,0.0,0.0,0.0,0.0,0.0,0.0,0.0,0.0,0.0,0.0,0.0,0.0,0.0,0.0,0.0,0.0,0.0,0.0,0.0,0.0,0.0,0.0,0.0,0.0,0.0,0.0,0.0,0.0,0.0,0.0,0.0,0.0,0.0,0.0,0.0,0.0,0.0,0.0,0.0,0.0,0.0,0.0,0.0,0.0,0.0,0.0,0.0,0.0,0.0,0.0,0.0,0.0,0.0,0.0,0.0,0.0,0.0,0.0,0.0,0.0,0.0,0.0,0.0,0.0,0.0,0.0,0.0,0.0,0.0,0.0,0.0,0.0,0.0,0.0,0.0,0.0,0.0,0.0,0.0,0.0,0.0,0.0,0.0,0.0,0.0,0.0,0.0,0.0,0.0,0.0,0.0,0.0,0.0,0.0,0.0,0.0,0.0,0.0,0.0,0.0,0.0,0.0,0.0,0.0,0.0,0.0,0.0,0.0,0.0,0.0,0.0,0.0,0.0,0.0,0.0,0.0,0.0,0.0,0.0,0.0,0.0,0.0,0.0,0.0,0.0,0.0,0.0,0.0,0.0,0.0,0.0,0.0,0.0,0.0,0.0,0.0,0.0,0.0,0.0,0.0,0.0,0.0,0.0,0.0,0.0,0.0,0.0,0.0,0.0,0.0,0.0,0.0,0.0,0.0,0.0,0.0,0.0,0.0,0.0,0.0,0.0,0.0,0.0,0.0,0.0,0.0,0.0,0.0,0.0,0.0,0.0,0.0,0.0,0.0,0.0,0.0,0.0,0.0,0.0,0.0,0.0,0.0,0.0,0.0,0.0,0.0,0.0,0.0,0.0,0.0,0.0,0.0,0.0,0.0,0.0,0.0,0.0,0.0,0.0,0.0,0.0,0.0,0.0,0.0,0.0,0.0,0.0,0.0,0.0,0.0,0.0,0.0,0.0,0.0,0.0,0.0,0.0,0.0,0.0,0.0,0.0,0.0,0.0,0.0,0.0,0.0,0.0,0.0,0.0,0.0,0.0,0.0,0.0,0.0,0.0,0.0,0.0,0.0,0.0,0.0,0.0,0.0,0.0,0.0,0.0,0.0,0.0,0.0,0.0,0.0,0.0,0.0,0.0,0.0,0.0,0.0,0.0,0.0,0.0,0.0,0.0,0.0,0.0,0.0,0.0,0.0,0.0,0.0,0.0,0.0,0.0,0.0,0.0,0.0,0.0,0.0,0.0,0.0,0.0,0.0,0.0,0.0,0.0,0.0,0.0,0.0,0.0,0.0,0.0,0.0,0.0,1.7774,0.0,0.0,0.0,0.0,0.0,0.0,0.0,0.0,0.0,0.0,0.0,0.0,0.0,0.0,0.0,0.0,0.0,0.0,0.0,0.0,0.0,0.0,0.0,0.0,1.0844,1.0996,1.1426,1.1456,1.1636,1.2045,1.1661,1.1655,1.206,1.1634,1.1403,1.1403,1.1403,1.2007,1.3288,1.2863,1.3498,1.5115,1.4272,1.3619,1.3233,0.0,0.0,0.0,0.0,0.0,0.0,0.0,0.0,0.0,0.0,0.0,0.0,0.0,0.0,0.0,0.0,0.0,0.0,0.0,0.0,0.0,0.0,0.0,0.0,0.0,0.0,0.0,0.0,0.0,0.0,0.0,0.0,0.0,0.0,0.0,0.0,0.0,0.0,0.0,0.0,0.0,0.0,0.0,0.0,0.0,0.0,0.0,0.0,0.0,0.0,0.0,0.0,0.0,0.0,0.0,0.0,0.0,0.0,0.0,0.0,0.0,0.0,0.0,0.0,0.0,0.0,0.0,0.0,0.0,0.0,0.0,2.0237,0.0,0.0,0.0,0.0,0.0,0.0,0.0,0.0,0.0,0.0,0.0,0.0,0.0,0.0,0.0,0.0,0.0,0.0,0.0,0.0,0.0,1.0859,1.1719,1.1912,1.2378,1.3394,1.3347,1.3337,1.3488,1.3216,1.3019,1.3014,1.2858,1.2859,1.3016,1.3172,1.401,1.5516,1.5247,1.5802,1.7176,1.7488,1.7259,1.6523,1.5752,0.0,0.0,0.0,0.0,0.0,0.0,0.0,0.0,0.0,0.0,0.0,0.0,0.0,0.0,0.0,0.0,0.0,0.0,0.0,0.0,0.0,0.0,0.0,0.0,0.0,0.0,0.0,0.0,0.0,0.0,0.0,0.0,0.0,0.0,0.0,0.0,0.0,0.0,0.0,0.0,0.0,0.0,0.0,0.0,0.0,0.0,0.0,0.0,0.0,0.0,0.0,0.0,0.0,0.0,0.0,0.0,0.0,0.0,0.0,0.0,0.0,0.0,0.0,2.7503,2.8236,2.8778,2.8778,2.9201,2.9781,2.6318,2.5236,2.5808,2.4005,0.0,0.0,0.0,0.0,0.0,0.0,0.0,0.0,0.0,0.0,0.0,0.0,0.0,0.0,0.0,0.0,0.0,0.0,0.0,1.1758,1.2617,1.3359,1.4414,1.6055,1.5507,1.5388,1.6157,1.4755,1.3891,1.3827,1.3168,1.3133,1.3916,1.466,1.5514,1.6439,1.8534,1.9655,1.9921,2.144,2.2064,2.1827,1.8018,1.6272,1.6042,0.0,0.0,0.0,0.0,0.0,0.0,0.0,0.0,0.0,0.0,0.0,0.0,0.0,0.0,0.0,0.0,0.0,0.0,0.0,0.0,0.0,0.0,0.0,0.0,0.0,0.0,0.0,0.0,0.0,0.0,0.0,0.0,0.0,0.0,0.0,0.0,0.0,0.0,0.0,0.0,0.0,1.791,1.9759,0.0,0.0,0.0,0.0,0.0,0.0,0.0,0.0,0.0,0.0,0.0,0.0,0.0,2.8121,3.0311,3.1275,3.1775,3.1929,3.2779,3.2856,3.2237,3.2237,3.2702,3.3513,3.2936,0.0,2.8393,2.5964,0.0,0.0,0.0,0.0,0.0,0.0,0.0,0.0,0.0,0.0,0.0,0.0,0.0,0.0,0.0,0.0,0.0,0.0,0.0,0.0,0.0,1.5352,1.625,1.8008,1.7344,1.7031,1.7419,1.6717,1.6287,1.6243,1.5893,1.6128,1.6987,1.7417,1.8467,2.025,2.229,2.3291,2.3336,2.4114,2.4465,2.4386,2.2476,2.0521,1.8596,1.7303,0.0,0.0,0.0,0.0,0.0,0.0,0.0,0.0,0.0,0.0,0.0,0.0,0.0,0.0,0.0,0.0,0.0,0.0,0.0,0.0,0.0,0.0,0.0,0.0,0.0,0.0,0.0,0.0,0.0,0.0,0.0,0.0,0.0,0.0,0.0,0.0,0.0,0.0,0.0,1.8664,2.1266,2.2509,2.2651,2.2288,0.0,0.0,0.0,0.0,0.0,0.0,0.0,0.0,0.0,3.0306,3.1158,3.2138,3.3253,3.4102,3.476,3.5223,3.5608,3.5841,3.5914,3.5905,3.6092,3.6434,3.6366,3.5199,3.316,3.0618,2.9352,2.8816,0.0,0.0,0.0,0.0,2.6544,2.7659,0.0,0.0,0.0,0.0,0.0,0.0,0.0,0.0,0.0,0.0,0.0,0.0,1.6836,1.7422,1.8398,2.0156,1.9492,1.9102,1.9336,1.8711,1.832,1.832,1.832,1.875,1.9609,2.0273,2.1639,2.3779,2.5205,2.5897,2.5942,2.6176,2.6294,2.6293,2.6283,2.4574,2.1626,2.0248,1.8824,1.7313,0.0,0.0,0.0,0.0,0.0,0.0,0.0,0.0,0.0,0.0,0.0,0.0,0.0,0.0,0.0,0.0,0.0,0.0,0.0,0.0,0.0,0.0,0.0,0.0,0.0,0.0,0.0,0.0,0.0,0.0,0.0,0.0,0.0,0.0,0.0,0.0,0.0,2.2065,2.4322,2.4908,2.5796,2.5708,0.0,0.0,0.0,0.0,0.0,0.0,3.0628,3.1349,3.247,3.4157,3.4838,3.5331,3.5795,3.6454,3.719,3.7962,3.7962,3.8309,3.8926,3.8881,3.8874,3.8864,3.8743,3.834,3.7527,3.47,3.343,3.301,3.0894,3.0467,3.1003,3.0547,3.0968,3.1808,0.0,0.0,0.0,0.0,0.0,0.0,0.0,0.0,0.0,0.0,0.0,1.6016,1.7734,1.9414,2.1094,2.2852,2.2227,2.207,2.2891,2.0625,1.9219,1.9219,1.9219,1.9648,2.0508,2.2891,2.4609,2.5586,2.6484,2.6914,2.6953,2.7773,2.8164,2.8164,2.8113,2.7031,2.5075,2.2625,2.1027,1.9968,1.7394,0.0,0.0,0.0,0.0,0.0,0.0,0.0,0.0,0.0,0.0,0.0,0.0,0.0,0.0,0.0,0.0,0.0,0.0,0.0,0.0,0.0,0.0,0.0,0.0,0.0,0.0,0.0,0.0,0.0,0.0,0.0,0.0,0.0,0.0,0.0,0.0,0.0,0.0,2.6875,2.9805,0.0,0.0,0.0,0.0,3.0625,3.1945,3.331,3.4375,3.4337,3.5126,3.6955,3.6912,3.7652,3.931,3.9394,3.9818,4.0624,4.0624,4.0624,4.0663,4.0657,4.0655,4.0688,4.0599,4.0576,4.0321,3.6805,3.4888,3.4048,3.3083,3.2737,3.2852,3.3664,3.4507,3.5269,0.0,0.0,0.0,1.0312,1.0312,1.0508,1.1055,1.1875,1.293,1.4336,1.6016,1.7969,2.0273,2.1055,2.2109,2.3828,2.2695,2.2031,2.2344,2.0977,2.0625,2.1719,2.1758,2.2695,2.4687,2.6172,2.7617,2.9062,2.9922,3.0625,3.1133,3.1445,3.1562,3.1562,3.1561,3.0894,2.96,2.6362,2.419,2.2747,2.0669,1.9145,0.0,0.0,0.0,0.0,0.0,0.0,0.0,0.0,0.0,0.0,0.0,0.0,0.0,0.0,0.0,0.0,0.0,0.0,0.0,0.0,0.0,0.0,0.0,0.0,0.0,0.0,0.0,0.0,0.0,0.0,0.0,0.0,0.0,0.0,0.0,0.0,0.0,3.1055,3.2695,0.0,3.1289,3.25,3.3398,3.3359,3.4413,3.5936,3.793,3.8511,3.9601,4.1324,4.1358,4.1626,4.2248,4.2249,4.2366,4.2676,4.2676,4.2676,4.2675,4.2605,4.2586,4.2582,4.2494,4.2469,4.2381,4.1104,3.9384,3.7451,3.652,3.6161,3.6238,3.6546,3.6853,3.7119,0.0,1.0312,0.0,1.0312,1.0312,1.0586,1.1484,1.2578,1.3906,1.5625,1.7617,1.9648,2.168,2.2383,2.3203,2.4297,2.3398,2.2852,2.3164,2.2383,2.2383,2.3477,2.4102,2.5508,2.7812,2.9023,3.0195,3.1328,3.2187,3.2891,3.3398,3.3398,3.3398,3.3398,3.3398,3.3086,3.2461,3.0024,2.7705,2.5479,2.3439,2.2421,2.1915,0.0,0.0,0.0,0.0,0.0,0.0,0.0,0.0,0.0,0.0,0.0,0.0,0.0,0.0,0.0,0.0,0.0,0.0,0.0,0.0,0.0,0.0,0.0,0.0,0.0,0.0,0.0,0.0,0.0,0.0,0.0,0.0,0.0,0.0,0.0,3.3555,3.3828,3.5391,3.6016,3.4844,3.5742,3.668,3.7266,3.8125,3.9336,4.1094,4.1719,4.2539,4.3672,4.3711,4.3711,4.3711,4.3711,4.3711,4.3711,4.3711,4.3711,4.3711,4.3664,4.3616,4.3614,4.3524,4.3467,4.3486,4.3431,4.2373,4.0731,3.9777,3.9202,3.8929,3.8929,3.893,3.8905,0.0,1.0312,1.0312,1.0312,1.0312,1.0625,1.1523,1.3047,1.4766,1.6562,1.9023,2.0937,2.1875,2.3437,2.4414,2.4453,2.4414,2.4766,2.5625,2.4844,2.4414,2.4531,2.6211,2.7969,2.9726,3.1406,3.2305,3.2344,3.3164,3.3555,3.3555,3.3555,3.3555,3.3555,3.3555,3.3555,3.3555,3.3516,3.1601,2.832,2.5656,2.5066,2.5497,0.0,0.0,0.0,0.0,0.0,0.0,0.0,0.0,0.0,0.0,0.0,0.0,0.0,0.0,0.0,0.0,0.0,0.0,0.0,0.0,0.0,0.0,0.0,0.0,0.0,0.0,0.0,0.0,0.0,0.0,0.0,0.0,0.0,3.1211,3.3984,3.582,3.5039,3.793,3.9336,3.7656,4.0508,4.2422,4.2422,4.3242,4.375,4.3789,4.3828,4.3828,4.3867,4.3867,4.3867,4.3867,4.3867,4.3867,4.3867,4.3867,4.3867,4.3867,4.3867,4.3867,4.3867,4.3771,4.3776,4.3828,4.3599,4.3581,4.3553,4.2542,4.1603,4.0896,4.0896,4.0825,4.0724,1.0312,1.0312,1.0312,1.0312,1.082,1.1523,1.2422,1.3984,1.5898,1.8281,1.9766,2.1406,2.3477,2.4102,2.4648,2.5273,2.4766,2.4764,2.557,2.4255,2.4609,2.7109,2.9492,3.1562,3.3242,3.3789,3.4648,3.5898,3.6758,3.7187,3.7187,3.7187,3.7187,3.7187,3.7187,3.7187,3.7148,3.6484,3.5312,3.3555,2.9726,2.7929,2.7382,0.0,0.0,0.0,0.0,0.0,0.0,0.0,0.0,0.0,0.0,0.0,0.0,0.0,0.0,0.0,0.0,0.0,0.0,0.0,0.0,0.0,0.0,0.0,0.0,0.0,0.0,0.0,0.0,0.0,0.0,0.0,3.3945,3.6523,3.5664,3.7422,3.918,4.0156,4.1133,4.1758,4.1914,4.2773,4.3359,4.3359,4.4141,4.4922,4.5547,4.6172,4.6836,4.7461,4.7461,4.7461,4.7461,4.7461,4.7461,4.7461,4.7461,4.7461,4.7461,4.7461,4.7461,4.7461,4.7459,4.7108,4.6523,4.6479,4.5735,4.4526,4.3466,4.2897,4.27,4.27,4.225,4.163,1.0312,1.0312,1.043,1.0781,1.125,1.1992,1.3203,1.4844,1.6758,1.9023,2.0703,2.2382,2.4176,2.4683,2.4957,2.5113,2.495,2.4902,2.5049,2.5129,2.6576,2.9663,3.198,3.3822,3.5189,3.5937,3.6836,3.7851,3.8359,3.8594,3.8594,3.8594,3.8594,3.8594,3.8594,3.8594,3.8555,3.8047,3.7539,3.6836,3.3984,3.207,3.0742,2.8672,2.7773,2.7495,2.6285,2.5344,2.4553,2.3658,0.0,0.0,0.0,0.0,0.0,0.0,0.0,0.0,0.0,0.0,0.0,0.0,0.0,0.0,0.0,0.0,0.0,0.0,0.0,0.0,0.0,0.0,0.0,0.0,3.6953,3.9336,3.9883,4.0859,4.1836,4.2812,4.293,4.3437,4.4687,4.4805,4.5078,4.582,4.6367,4.6836,4.7344,4.7851,4.8398,4.8867,4.8906,4.8906,4.8906,4.8906,4.8906,4.8906,4.8906,4.8906,4.8906,4.8906,4.8906,4.8906,4.8906,4.8594,4.8125,4.8125,4.7539,0.0,0.0,0.0,0.0,0.0,4.3148,4.2635,1.0312,1.0391,1.0703,1.1484,1.1758,1.2383,1.3867,1.5664,1.7422,1.9062,2.1484,2.3318,2.408,2.4857,2.505,2.4346,2.5128,2.547,2.5041,2.748,2.9896,3.2091,3.3989,3.5422,3.6282,3.788,3.8748,3.8865,3.8865,3.8865,3.8865,3.8866,3.8867,3.8867,3.8906,3.8906,3.8906,3.8906,3.8828,3.8672,3.7891,3.6484,3.4609,3.2226,3.168,3.1992,3.0469,2.8906,2.7461,2.6562,0.0,0.0,0.0,0.0,0.0,0.0,0.0,0.0,0.0,0.0,0.0,0.0,0.0,0.0,0.0,0.0,0.0,0.0,0.0,0.0,0.0,0.0,0.0,0.0,3.9922,4.1445,4.3828,4.4219,4.4219,4.4023,4.4062,4.4805,4.6445,4.6601,4.7226,4.8789,4.9062,4.918,4.918,0.0,0.0,0.0,0.0,4.9492,4.9492,4.9492,4.9492,4.9492,4.9492,4.9414,4.9336,4.9336,4.9258,4.918,4.918,4.9141,4.9062,4.9062,4.8984,4.8672,4.625,4.4766,4.3984,4.3812,4.376,4.3715,1.0312,1.0859,1.1406,1.1562,1.2734,1.3711,1.4062,1.6172,1.8125,1.9141,2.0933,2.2408,2.3224,2.3437,2.3727,2.4268,2.5687,2.7346,2.925,3.2365,3.4061,3.3937,3.6261,3.7989,3.8852,3.9221,3.9737,4.0364,4.0364,4.0364,4.0365,4.0502,4.0521,4.0522,4.0662,4.0703,4.0703,4.0703,4.0273,3.9648,3.9453,3.793,3.5625,3.4414,3.3242,3.2148,3.1836,3.1484,3.1055,3.0195,2.9687,2.9101,2.7344,2.5859,0.0,0.0,0.0,0.0,0.0,0.0,0.0,0.0,0.0,0.0,0.0,0.0,0.0,0.0,0.0,0.0,0.0,0.0,0.0,4.1211,4.3594,4.5469,4.668,4.7461,4.7383,4.5976,4.6406,4.7266,4.8281,4.8398,4.8555,4.8867,5.0156,5.0937,5.0937,5.2266,5.3008,5.3008,5.3008,5.3008,5.3008,5.3008,5.3008,5.3008,0.0,0.0,5.1953,5.1953,5.1562,5.0937,5.0937,5.0547,4.9961,4.9961,4.9531,4.8789,4.7578,4.6562,4.5703,4.4999,4.4725,4.4608,1.0859,1.1289,1.1875,1.2695,1.3555,1.4258,1.4687,1.6602,1.8476,1.972,2.1391,2.2778,2.3554,2.3988,2.4044,2.3613,2.5111,2.7177,2.9685,3.2614,3.4464,3.4935,3.746,3.9056,3.9488,3.9971,4.0387,4.0819,4.0819,4.0819,4.0819,4.0867,4.0887,4.0889,4.0963,4.1029,4.1084,4.1084,4.0895,4.0547,4.0547,3.9492,3.7812,3.6484,3.5195,3.4023,3.3594,3.3164,3.2656,3.1836,3.1562,3.125,2.9492,2.8359,2.7305,0.0,0.0,0.0,0.0,0.0,0.0,0.0,0.0,0.0,0.0,0.0,0.0,0.0,0.0,3.7812,3.9531,0.0,4.3008,4.4726,4.6094,4.7266,4.8125,4.8984,4.9062,4.7773,4.8008,4.8594,4.9453,4.9922,5.0312,5.0781,5.1992,5.2695,5.2695,5.3516,5.3984,5.3984,5.3984,5.3984,5.3984,5.3984,5.3984,5.3984,5.3984,5.3789,5.3359,5.3359,5.3125,5.2695,5.2695,5.2226,5.1406,5.0976,5.0312,4.9492,4.9062,4.8086,4.6914,4.6445,4.6016,4.5586,1.168,1.1992,1.25,1.3867,1.4258,1.4609,1.5273,1.6875,1.8475,1.982,2.1647,2.306,2.3647,2.4429,2.4567,2.3701,2.5158,2.7166,2.9668,3.2237,3.4349,3.5923,3.8312,3.9623,3.9623,4.0354,4.0752,4.0752,4.0752,4.0752,4.0752,4.0775,4.0786,4.0786,4.0809,4.0862,4.096,4.0971,4.1075,4.117,4.1172,4.0781,3.9961,3.8203,3.6992,3.6133,3.5273,3.4297,3.3281,3.2461,3.2187,3.1953,3.0547,3.0,2.9453,2.7539,2.7617,0.0,0.0,0.0,0.0,0.0,0.0,0.0,0.0,3.5039,3.5937,3.8711,4.0859,4.2656,4.418,4.5625,4.6953,4.8125,4.8359,4.8633,4.9531,5.0234,5.0351,4.9492,4.9375,4.9726,5.0586,5.1289,5.1992,5.2891,5.375,5.4258,5.4258,5.4414,5.4492,5.4492,5.4492,5.4492,5.4492,5.4492,5.4492,5.4492,5.4492,5.4414,5.4258,5.4258,5.4141,5.3984,5.3984,5.3516,5.2656,5.1953,5.1172,5.043,5.043,4.9492,4.8086,4.793,4.7305,4.6562,1.2578,1.332,1.3867,1.4062,1.4727,1.5273,1.5391,1.6875,1.8045,1.8184,2.0336,2.1885,2.1886,2.2618,2.3912,2.6022,2.7716,2.9751,3.2317,3.485,3.6696,3.77,3.9418,4.0396,4.0396,4.0492,4.0541,4.0541,4.0541,4.0541,4.0545,4.0661,4.0724,4.069,4.0773,4.0824,4.0841,4.0953,4.1018,4.1027,4.1131,4.1133,4.0859,3.9101,3.7891,3.7031,3.6172,3.4805,3.3281,3.2461,3.2187,3.2187,3.1953,3.1367,3.0859,3.1328,2.9961,2.8906,3.1641,3.332,3.4687,3.6328,3.6133,3.7187,0.0,4.3008,4.2344,4.5742,4.6055,4.6016,4.6992,4.7305,4.8242,5.0586,5.0976,5.1289,5.2148,5.2344,5.2109,5.1211,5.1133,5.1445,5.2344,5.25,5.293,5.3789,5.4648,5.5156,5.5156,5.5898,5.6328,5.6328,5.6328,5.6328,5.6328,5.6328,5.6328,5.6328,5.6328,5.5898,5.5156,5.5156,5.4726,5.3984,5.3984,5.3516,5.2695,5.2578,5.2031,5.1289,5.1289,5.0703,4.9805,4.9023,4.8203,4.7461,1.2734,1.3555,1.4258,1.4766,1.5156,1.5391,1.5391,1.6875,1.8162,1.861,2.0446,2.1682,2.1612,2.2335,2.3432,2.501,2.7588,2.9778,3.1349,3.4734,3.7081,3.7969,3.9627,4.0516,4.0516,4.0516,4.0516,4.0516,4.0516,4.0516,4.0516,4.0559,4.0595,4.0598,4.0594,4.0676,4.0759,4.0838,4.0943,4.1017,4.1074,4.108,4.0963,3.9713,3.8374,3.703,3.6232,3.5146,0.0,3.3699,3.327,3.2845,3.289,3.2344,3.1718,3.1983,3.2366,3.3529,3.7406,3.8373,3.8685,4.0402,4.0946,4.1776,4.4742,4.4982,4.5144,4.7187,4.8042,4.8577,4.8928,4.9722,5.0668,5.1763,5.2347,5.2813,5.3166,5.2777,5.217,5.1382,5.1244,5.1605,5.2617,5.3164,5.3828,5.4687,5.5547,5.6055,5.6055,5.6406,5.6601,5.6601,5.6601,5.6601,5.6601,5.6601,5.6601,5.6601,5.6601,5.6406,5.6055,5.6055,5.5859,5.5469,5.4961,5.4531,5.418,5.3672,5.293,5.2148,5.2148,5.1641,5.0781,4.9961,4.9101,4.8359,0.0,1.375,1.4648,1.5273,1.5391,1.5391,1.5391,1.6875,1.8201,1.8765,2.0534,2.1855,2.2232,2.2798,2.3509,2.4356,2.7087,2.9124,3.0003,3.3772,3.6504,3.7584,3.9242,4.0285,4.0516,4.0516,4.0516,4.0516,4.0516,4.0516,4.0516,4.0516,4.0516,4.0516,4.0516,4.0552,4.0649,4.0757,4.0845,4.0925,4.0964,4.0851,4.0486,3.9393,3.8002,3.6563,3.581,3.4535,3.3162,3.3155,3.2766,3.2269,3.2566,3.2414,3.2292,3.3115,3.5163,3.7759,4.0352,4.1271,4.1816,4.3095,4.4374,4.5408,4.5758,4.6476,4.7393,4.8377,4.9487,5.0311,5.0311,5.1224,5.2137,5.2565,5.3185,5.3688,5.3919,5.3224,5.2363,5.1617,5.1256,5.1474,5.248,5.3383,5.4363,5.5503,5.6207,5.656,5.6601,5.6601,5.6601,5.6601,5.6601,5.6601,5.6601,5.6601,5.6601,5.6601,5.6601,5.6601,5.6601,5.6601,5.6601,5.6562,5.5937,5.5508,5.5234,5.4609,5.3828,5.3047,5.2773,5.2305,5.1641,5.082,5.0,4.9258,0.0,1.4219,1.5352,1.5391,1.5391,1.5391,1.5391,1.6875,1.8006,1.795,2.0208,2.2359,2.3858,2.4032,2.4394,2.5192,2.689,2.8277,2.9088,3.2359,3.501,3.6657,3.8392,3.9704,4.0477,4.0516,4.0516,4.0516,4.0516,4.0516,4.0516,4.0516,4.0516,4.0516,4.0516,4.0519,4.0511,4.0721,4.0754,4.0738,4.0923,4.0437,3.9477,3.7723,3.6557,3.5713,3.492,3.245,2.9545,2.9545,2.9545,2.9663,3.0528,3.1305,3.2544,3.588,3.8641,4.0309,3.8803,4.0839,4.3344,4.3397,4.5262,4.7327,4.8195,4.9058,4.9922,5.0829,5.1021,5.1057,5.1057,5.1094,5.1675,5.3309,5.3582,5.3893,5.4744,5.4124,5.3231,5.2373,5.1597,5.1408,5.2239,5.3093,5.4388,5.6231,5.6393,5.6458,5.6601,5.6601,5.6601,5.6601,5.6601,5.6601,5.6601,5.6601,5.6601,5.6601,5.6601,5.6601,5.6601,5.6601,5.6601,5.6601,5.6562,5.6094,5.5312,5.5273,5.4765,5.3867,5.3047,5.2695,5.2578,5.168,5.0859,5.0156,0.0,0.0,1.5391,1.5391,1.5391,1.5391,1.5391,1.6875,1.8008,1.7967,2.0183,0.0,0.0,0.0,0.0,0.0,2.6585,2.8239,2.905,3.1778,3.3856,3.501,3.6661,3.7969,3.8819,3.9396,3.9977,4.0516,4.0516,4.0516,4.0516,4.0516,4.0516,4.0516,4.0516,4.0516,4.0492,4.0653,4.0707,4.067,4.0153,3.974,3.9355,3.8178,3.6115,3.3857,0.0,3.2098,3.0123,3.0114,2.9763,2.9428,3.0341,3.1209,3.2668,3.6581,3.9518,4.1576,4.2135,4.3958,4.5977,4.7082,4.8477,4.9757,5.0664,5.1124,5.1124,5.0381,5.017,5.0093,5.0093,5.0494,5.1369,5.3065,5.3838,5.4495,5.5302,5.4727,5.3691,5.2341,5.2365,5.2418,5.2197,5.2514,0.0,5.5286,5.5508,5.582,5.642,5.6559,5.6601,5.6601,5.6601,5.6601,5.6601,5.6601,5.6601,5.6601,5.6601,5.6601,5.6601,5.6601,5.6601,5.6601,5.6601,5.6445,5.6172,5.6172,5.5664,5.4765,5.3906,5.3203,5.2578,5.1719,5.1211,5.1016,0.0,0.0,0.0,1.5391,1.5391,0.0,0.0,0.0,0.0,0.0,0.0,0.0,0.0,0.0,0.0,0.0,0.0,2.7662,2.8162,3.0316,3.2086,3.3279,3.4353,3.5465,3.6626,3.6895,3.7434,3.8245,3.855,3.8857,3.9165,3.9473,3.9627,3.9627,3.9627,3.9627,3.9603,3.9747,3.978,3.9654,3.8833,3.8321,3.7882,3.6675,3.4489,0.0,3.1442,3.0513,2.9585,2.9573,2.9182,2.8964,3.0156,3.2144,3.4672,3.7632,4.031,4.2696,4.4701,4.6274,4.7812,4.9817,5.0933,5.1669,5.1975,5.182,5.113,4.9521,4.9139,4.8964,4.8698,4.9273,5.0433,5.2428,5.3197,5.4087,5.5516,5.5011,5.4105,5.3095,5.3099,5.3027,5.2554,5.2554,0.0,5.5135,5.5351,5.5666,5.6348,5.6465,5.6559,5.6601,5.6601,5.6601,5.6601,5.6601,5.6601,5.6601,5.6601,5.6601,5.6601,5.6601,5.6601,5.6601,5.6601,5.6601,5.6601,5.6601,5.6289,5.5664,5.4805,5.3945,5.3047,5.2187,5.168,5.1406,0.0,0.0,0.0,0.0,0.0,0.0,0.0,0.0,0.0,0.0,0.0,0.0,0.0,0.0,0.0,0.0,0.0,0.0,2.6582,2.8085,2.9739,3.1429,3.1542,3.2352,3.4048,3.3317,3.3356,3.4279,3.508,3.5885,3.6657,3.7465,3.7853,3.7853,3.7853,3.7853,3.7864,3.801,3.7983,3.7795,3.7046,3.6244,3.5231,3.3583,3.1888,3.0154,2.8621,2.797,2.7854,2.797,2.8162,2.8624,3.0269,3.4157,3.8315,3.9242,4.132,4.3893,4.6351,4.7697,4.8966,5.1428,5.262,5.2967,5.2115,5.1241,5.0091,4.8279,4.7889,4.762,4.6735,4.7389,4.8851,5.1308,5.1846,5.2851,5.5362,5.5049,5.4549,5.4511,5.3818,5.3313,5.3274,5.3313,0.0,5.5771,0.0,5.6003,5.6369,5.6382,5.6453,5.6562,5.6562,5.6562,5.6562,5.6601,5.6601,5.6601,5.6601,5.6601,5.6601,5.6601,5.6601,5.6601,5.6601,5.6601,5.6601,5.6601,5.6601,5.6523,5.5625,5.4805,5.3945,5.3047,5.2187,5.1445,0.0,0.0,0.0,0.0,0.0,0.0,0.0,0.0,0.0,0.0,0.0,0.0,0.0,0.0,0.0,0.0,0.0,0.0,2.6549,2.7005,2.7736,2.8816,2.9432,3.0586,3.2314,3.2699,3.366,3.5157,3.5385,3.5615,3.5808,3.6038,3.6157,3.6157,3.6157,3.6157,3.6122,3.6173,3.6167,3.6045,3.5217,3.4748,3.4472,3.4048,3.2009,2.9547,3.0429,2.9083,2.7236,2.9118,3.1849,3.4657,3.5734,3.7815,4.0165,4.1662,4.4355,4.7124,4.8394,5.0317,5.2197,5.351,5.351,5.2967,5.2115,5.0779,4.8899,4.5893,4.5278,4.4624,4.2512,4.4893,4.762,4.8851,5.1197,5.3544,5.5439,5.5516,5.517,5.4549,5.4818,5.4818,5.4241,5.4703,0.0,0.0,5.5294,5.5315,5.5986,5.6186,5.6258,5.6287,5.6287,5.6287,5.6287,5.6391,5.6454,5.6454,5.6559,5.6601,5.6601,5.6601,5.6601,5.6601,5.6601,5.6601,5.6601,5.6601,5.6601,5.6523,5.5625,5.5156,5.4765,5.3242,5.2578,5.2266,0.0,0.0,0.0,0.0,0.0,0.0,0.0,0.0,0.0,0.0,0.0,0.0,0.0,0.0,0.0,0.0,0.0,0.0,0.0,2.6083,2.6444,2.7277,2.739,2.8082,2.9426,2.989,3.0618,3.1577,3.2311,3.2699,3.2699,3.3077,3.3269,3.3269,3.3269,3.3269,3.3269,3.3269,3.3269,0.0,0.0,3.2202,3.2468,3.1701,3.024,2.8701,2.9662,3.0006,3.0314,3.2888,3.5542,3.8046,3.9277,4.0816,4.2589,4.4662,4.6894,4.9009,5.0625,5.2395,5.3972,5.4818,5.4126,5.289,5.1664,4.9779,4.7317,4.3893,4.3201,4.2431,3.9858,4.2585,4.5624,4.6817,4.9856,5.2818,5.4895,5.5478,5.5516,5.5088,5.5747,5.6093,5.5631,5.6357,5.6857,0.0,5.5774,5.5358,5.5877,5.6029,5.6122,5.6191,5.6194,5.6194,5.6194,5.6264,5.6293,5.6295,5.6386,5.6456,5.6512,5.6512,5.6558,5.6601,0.0,5.6601,5.6601,5.6601,5.6601,5.6562,5.6055,5.5625,5.5195,5.4219,5.3359,5.2617,0.0,0.0,0.0,0.0,0.0,0.0,0.0,0.0,0.0,2.1094,2.2266,2.3125,2.3242,2.4681,0.0,0.0,0.0,0.0,0.0,0.0,2.5722,2.642,2.5719,2.5712,2.6579,2.6618,2.6656,2.6774,2.8239,2.8934,2.8973,2.9695,3.0077,3.0077,3.0077,3.0077,3.0077,3.0077,3.0077,3.0,2.9355,2.9544,3.0077,0.0,2.8162,2.8047,2.8047,3.0624,3.4433,3.6969,3.8777,4.0242,4.1816,4.347,4.5278,4.774,4.9048,5.0279,5.2702,5.401,5.478,5.5401,5.4203,5.2433,5.0745,4.8202,4.5274,4.1966,4.1312,4.0465,3.7815,4.0392,4.347,4.5167,4.8399,5.163,5.428,5.5362,5.5862,5.5862,5.6632,5.717,5.717,5.7857,5.8313,5.8313,5.6896,5.6115,5.621,5.6222,5.6234,5.6281,5.617,5.6131,5.6131,5.6152,5.6164,5.6164,5.6183,5.6251,5.6376,5.6386,5.6459,5.6562,5.6601,5.6601,5.6601,5.6601,5.6601,5.6601,5.6601,5.6133,5.5469,5.5351,5.4336,5.3008,0.0,0.0,0.0,0.0,0.0,0.0,0.0,0.0,0.0,0.0,2.3359,2.3359,2.4102,2.5078,0.0,0.0,0.0,0.0,0.0,0.0,0.0,2.5581,2.5461,2.5764,2.6582,2.6618,2.6967,2.7662,2.797,2.8124,2.8124,2.8277,2.8316,2.8316,2.8316,2.8316,2.8316,2.8316,2.8316,2.8393,2.8896,2.9204,2.9355,2.9811,2.9506,0.0,2.8896,3.0701,3.3506,3.608,3.9815,4.3628,4.4628,4.6086,4.7817,4.9707,5.0818,5.189,5.378,5.4857,5.5362,5.4857,5.29,5.0668,4.8933,4.5504,4.1927,3.9238,3.8661,3.7661,3.4391,3.8311,4.2581,4.4239,4.8014,5.1823,5.5054,5.6247,5.6786,5.6786,5.755,5.8088,5.8088,5.8204,5.8313,0.0,5.8006,5.7874,5.7884,5.789,5.7564,5.6888,5.6155,5.5769,5.5769,5.5887,5.5936,5.5936,5.6131,5.6205,5.6232,5.636,5.6397,5.6449,5.6559,0.0,5.6601,5.6601,5.6601,5.6601,5.6601,5.6523,5.6289,5.5586,5.5117,5.4648,0.0,0.0,0.0,0.0,0.0,0.0,0.0,2.0781,2.25,2.418,2.4414,2.4609,2.5039,2.5469,2.5703,0.0,0.0,0.0,0.0,0.0,0.0,2.5444,2.544,2.563,2.5981,2.6403,2.6605,2.6541,0.0,2.7005,2.6541,2.6541,2.6541,2.6541,2.6541,2.6541,2.6541,2.6541,2.6541,2.6618,2.7467,2.8085,2.8508,2.8929,2.9083,0.0,2.9621,3.1391,3.3817,3.5503,3.9465,4.397,4.574,4.7124,4.862,5.1241,5.1967,5.239,5.4549,5.5401,5.5516,5.4703,5.2246,4.9476,4.7283,4.3547,3.9777,3.7234,3.6696,3.5927,3.3353,3.7046,4.0893,4.2128,4.5936,4.9894,5.3241,5.4857,5.6016,5.6907,5.8127,5.8934,5.8934,5.9319,5.9588,5.9588,5.9588,5.9204,5.8352,5.8313,5.7896,5.7016,5.6593,5.617,5.5708,5.5755,5.5817,5.5779,5.59,5.5971,5.6068,5.6108,5.6181,5.6287,5.6449,5.6508,5.651,5.6561,5.6601,5.6601,5.6601,5.6601,5.6562,5.6133,5.5703,5.5117,0.0,0.0,0.0,0.0,0.0,0.0,0.0,2.1211,2.3125,2.5,2.5664,2.6055,2.625,2.6094,2.5898,0.0,0.0,0.0,0.0,0.0,0.0,0.0,2.551,2.548,2.5434,0.0,0.0,2.5312,2.6006,0.0,0.0,0.0,0.0,0.0,2.5305,2.5305,2.5305,2.5305,2.5305,0.0,0.0,2.7274,2.7931,0.0,0.0,0.0,0.0,3.1695,3.3587,3.4811,3.8004,4.197,4.4658,4.6851,4.8933,5.1818,5.2428,5.2659,5.4857,5.5555,5.5478,5.4472,5.1664,4.8432,4.5898,4.1897,3.8084,3.5696,3.5234,3.4734,3.3199,3.6084,3.9242,4.0781,4.4047,4.7697,5.162,5.3664,5.5401,5.7093,5.8742,5.9781,5.9781,6.0396,6.0787,6.0787,6.0787,6.0242,5.8896,5.866,5.8242,5.7555,5.717,5.667,5.5978,5.5785,5.5708,5.5708,5.5708,5.574,5.5849,5.5899,5.6008,5.6152,5.6283,5.6374,5.6394,5.6513,5.6561,5.6601,5.6601,5.6601,5.6601,5.6601,5.6172,5.5469,0.0,0.0,0.0,0.0,0.0,0.0,0.0,2.2578,2.5078,2.7617,2.7305,2.7187,2.7969,2.7344,2.6562,0.0,0.0,0.0,0.0,0.0,0.0,0.0,0.0,0.0,0.0,0.0,0.0,2.5396,2.5474,0.0,0.0,0.0,0.0,0.0,0.0,2.5305,2.5305,2.5305,0.0,0.0,0.0,0.0,0.0,0.0,0.0,0.0,0.0,3.0538,3.1115,3.351,3.5161,3.6773,4.005,4.4859,4.951,5.0592,5.1933,5.3313,5.4318,5.5131,5.5318,5.3703,5.0736,4.7548,4.5009,4.0546,3.6427,3.4664,3.4318,3.4048,3.3083,3.5119,3.8234,4.22,4.3816,4.6547,5.2274,5.4511,5.6242,5.7973,5.9665,6.0671,6.0671,6.0748,6.0787,6.0787,6.0787,6.0748,6.0594,5.9819,5.9358,5.9281,5.7786,5.6945,5.6863,5.6093,5.5708,5.5708,5.5708,5.5719,5.5712,5.5827,5.5889,5.592,5.6146,5.6275,0.0,5.6397,5.6506,5.6601,5.6601,5.6601,5.6601,5.6601,5.6562,5.6367,0.0,0.0,0.0,0.0,0.0,0.0,2.0312,2.1914,2.3828,2.6406,2.6445,2.6367,2.6719,2.6875,2.6641,2.5781,0.0,0.0,0.0,0.0,0.0,0.0,0.0,0.0,0.0,0.0,2.5789,2.6234,2.6211,0.0,0.0,0.0,0.0,0.0,0.0,2.5305,2.5305,2.5305,0.0,0.0,0.0,0.0,0.0,0.0,0.0,0.0,0.0,0.0,3.1272,3.1734,3.3503,3.5654,3.6434,4.0089,4.4628,4.7548,4.9586,5.1318,5.3203,5.4318,5.4703,5.351,5.062,4.7312,4.4278,4.0004,3.6234,3.4548,3.4205,3.4087,3.3741,3.5353,3.7581,4.0358,4.1474,4.3551,4.8014,5.0087,5.2356,5.5626,5.7478,5.9132,6.0633,6.0787,6.0787,6.0787,6.0787,6.0787,6.0787,6.0473,6.005,5.9511,5.8858,5.8017,5.7022,5.667,5.6209,5.5708,5.5708,5.5708,5.5708,5.574,5.5789,5.5803,5.5955,5.6042,0.0,5.6308,5.6445,5.6506,5.6561,5.6601,5.6601,5.6601,5.6601,5.6484,0.0,0.0,0.0,0.0,0.0,1.8516,2.0,2.1602,2.3398,2.543,2.5937,2.6094,2.6094,2.6406,2.6367,2.5742,2.5703,0.0,0.0,0.0,0.0,0.0,0.0,0.0,0.0,0.0,2.603,2.6848,2.6794,2.6875,0.0,0.0,0.0,0.0,0.0,0.0,0.0,0.0,0.0,0.0,0.0,0.0,0.0,0.0,0.0,0.0,0.0,0.0,0.0,0.0,0.0,3.4311,3.3933,3.6203,3.9854,4.4158,4.6928,4.9163,5.1433,5.2895,5.3549,5.2664,5.0279,4.7158,4.3547,3.9773,3.6546,3.4587,3.4205,3.4205,3.4205,3.5391,3.7004,3.8973,3.9785,4.1593,4.5744,4.7586,4.9971,5.401,5.5747,5.7517,5.9819,6.0517,6.0787,6.0787,6.0787,6.0787,6.0787,6.0787,6.0512,5.9896,5.9627,5.8934,5.7747,5.7247,5.667,5.6093,5.5824,5.5708,5.5708,5.5708,5.5708,5.5719,5.5788,5.5857,0.0,5.6153,5.6305,5.6395,5.6511,5.6561,5.6601,5.6601,5.6601,5.6523,0.0,0.0,0.0,0.0,0.0,0.0,1.918,2.2187,2.4687,2.5586,2.6445,2.6992,2.6992,2.6211,2.5703,2.5703,2.5703,0.0,0.0,0.0,0.0,0.0,0.0,0.0,0.0,0.0,2.6091,2.6891,2.6891,2.7303,2.8076,2.7142,2.6704,2.6653,0.0,0.0,0.0,0.0,0.0,0.0,0.0,0.0,3.0385,0.0,0.0,0.0,0.0,0.0,0.0,0.0,0.0,0.0,0.0,3.4119,3.6385,4.0619,4.4274,4.7274,4.8971,5.0659,5.1736,5.0938,4.9394,4.7005,4.2773,3.9812,3.7276,3.4702,3.4205,3.4205,3.4205,3.493,3.635,3.8896,3.9319,4.1358,4.7235,4.8817,5.0664,5.4087,5.5208,5.6395,5.8165,5.9819,6.0787,6.0787,6.0787,0.0,6.0787,6.0787,6.0787,6.0787,5.9935,5.9473,5.9473,5.7824,5.6983,5.6983,5.6093,5.5708,5.5708,5.5708,5.5708,5.5708,5.5708,5.5784,0.0,5.5885,5.6105,5.639,5.639,5.6466,5.6601,5.6601,5.6601,5.6601,0.0,0.0,0.0,0.0,0.0,0.0,0.0,2.0703,2.2305,2.375,2.3672,2.3945,2.5117,2.4961,2.5039,2.5664,2.5703,0.0,0.0,0.0,0.0,0.0,0.0,0.0,0.0,2.6289,2.6992,2.7849,2.8969,2.9346,2.9065,2.9321,2.8479,2.6706,2.6399,2.5906,0.0,0.0,0.0,0.0,2.9311,3.0154,3.0385,0.0,0.0,0.0,0.0,0.0,0.0,0.0,0.0,0.0,0.0,0.0,0.0,3.5157,3.9777,4.4432,4.4932,4.6735,4.8159,4.6701,4.5509,4.3893,4.0777,3.9008,3.7469,3.5503,3.508,3.508,3.508,3.5308,3.6504,3.9627,4.0131,4.1781,4.6581,4.8509,5.0856,5.4862,5.8132,6.0056,6.0012,6.0473,6.0787,6.0787,6.0787,6.0787,6.0787,6.0787,6.0787,6.0787,6.0512,6.0089,5.9511,5.8434,5.7588,5.6983,5.6132,5.5708,5.5708,5.5708,5.5708,5.5708,5.5708,5.5717,5.5769,5.5857,5.5958,5.6087,5.6305,5.6442,5.6462,5.6561,5.6601,5.6601,0.0,0.0,0.0,0.0,0.0,0.0,0.0,2.0078,2.1484,2.25,2.25,2.2891,2.4258,2.4414,2.4766,2.5625,2.5703,0.0,0.0,0.0,0.0,0.0,0.0,0.0,2.5703,2.6211,2.7266,2.8789,2.98,3.0537,3.0968,3.1133,3.0001,2.774,2.7369,2.6515,0.0,0.0,0.0,0.0,2.9734,3.0192,2.9926,0.0,0.0,0.0,0.0,0.0,0.0,0.0,0.0,0.0,0.0,0.0,0.0,0.0,3.5892,4.0008,4.132,4.3278,4.4735,4.3624,4.297,4.1931,3.9396,3.8392,3.7507,3.5846,3.55,3.55,3.55,3.55,3.6388,3.9127,3.955,4.1281,4.6197,4.8355,5.1092,5.5631,5.9094,6.0787,5.9935,6.0435,6.0787,6.0787,6.0787,6.0787,6.0787,6.0787,6.0787,6.0787,6.0787,6.055,6.0012,5.8858,5.805,5.7478,5.6285,5.5708,5.5708,5.5708,5.5708,5.5708,5.5708,5.5708,0.0,5.5808,5.5844,5.5905,5.6131,5.6291,5.6395,5.6508,5.656,5.6601,0.0,0.0,0.0,0.0,0.0,0.0,0.0,2.0115,2.1758,2.1797,2.25,2.3359,2.4219,2.4297,2.4687,2.5625,0.0,0.0,0.0,0.0,0.0,0.0,0.0,0.0,2.5703,2.582,2.7109,2.9609,2.9844,3.1172,3.3476,3.2805,3.1467,2.9626,2.8638,2.7189,0.0,0.0,0.0,0.0,2.9734,2.9888,0.0,0.0,0.0,0.0,0.0,0.0,0.0,0.0,0.0,0.0,0.0,0.0,0.0,0.0,0.0,0.0,0.0,4.0046,4.135,4.1273,4.1312,4.0735,3.8354,3.7853,0.0,3.5846,3.55,3.5577,3.5731,3.5731,3.6311,3.8238,3.8546,4.0585,4.6428,4.8894,5.19,5.6709,5.8709,5.9358,5.855,5.9896,6.0787,6.0787,6.0787,6.0787,6.0787,6.0787,6.0787,6.0787,6.0787,6.0787,6.0787,5.9204,5.8352,5.8275,5.6588,5.5747,5.5708,5.5708,5.5708,0.0,5.5708,5.5708,5.5708,5.5708,5.5774,5.5899,5.5911,5.6102,5.6383,5.6387,5.6466,5.6601,0.0,0.0,0.0,0.0,0.0,0.0,0.0,0.0,0.0,0.0,2.1094,2.1797,2.332,2.3477,2.4062,0.0,0.0,0.0,0.0,0.0,0.0,0.0,0.0,0.0,2.5703,2.6992,2.832,2.9609,3.2226,3.3828,3.4414,3.5546,3.4448,3.1465,3.0551,2.8733,0.0,0.0,0.0,0.0,2.9964,2.9888,0.0,0.0,0.0,0.0,2.8896,2.9088,0.0,0.0,0.0,0.0,0.0,0.0,0.0,0.0,3.1465,3.2468,3.3276,0.0,3.6811,3.6161,3.6504,3.6808,0.0,3.6542,3.6734,3.5692,3.55,3.6119,3.8046,3.7853,3.8815,4.3128,4.382,4.5436,5.0082,5.4428,5.7819,5.971,6.0825,6.1133,6.0281,6.0556,6.0787,6.0787,6.0787,6.0787,6.0787,6.0787,6.0787,6.0787,6.0787,6.0787,6.0787,5.9742,5.8896,5.8275,5.7209,5.6362,5.5708,5.5708,5.5708,5.5708,5.5708,5.5708,5.5708,5.5708,5.5707,5.5745,5.5853,5.6032,5.6251,5.6368,5.6466,5.6601,0.0,0.0,0.0,0.0,0.0,0.0,0.0,0.0,0.0,0.0,0.0,2.1719,2.3008,2.3516,0.0,0.0,0.0,0.0,0.0,0.0,0.0,0.0,2.5703,2.5703,2.5703,2.7031,2.8516,3.0195,3.2461,3.4375,3.5898,3.6445,3.5273,3.2572,3.0089,2.8337,0.0,0.0,0.0,2.9165,3.0041,0.0,0.0,0.0,0.0,0.0,2.8239,2.8549,0.0,3.0888,3.1311,3.1077,0.0,0.0,0.0,0.0,3.0731,3.1118,3.1118,3.35,3.5927,3.5468,3.6003,3.6657,3.6657,3.6388,3.6038,3.5577,3.55,3.6157,3.8315,3.8627,4.0012,4.4321,4.5321,4.7475,5.2895,5.7357,6.0435,6.1287,6.1826,6.1749,6.0864,6.0787,6.0787,6.0787,6.0787,6.0787,6.0787,6.0787,6.0787,6.0787,6.0787,6.0787,6.0787,5.9935,5.9088,5.8275,5.744,5.6555,5.5708,5.5708,5.5708,5.5708,5.5708,5.5708,5.5708,5.5708,5.5708,5.5724,5.5789,5.5967,5.6202,5.6269,5.6447,5.6601,0.0,0.0,0.0,0.0,0.0,0.0,0.0,0.0,0.0,0.0,0.0,0.0,0.0,0.0,0.0,0.0,0.0,0.0,0.0,0.0,0.0,0.0,2.5703,2.582,2.6094,2.6836,2.8476,3.1094,3.2344,3.4453,3.7305,3.707,3.5781,3.3437,2.9254,2.7676,2.8196,2.8109,2.8547,2.9355,3.0118,0.0,0.0,0.0,0.0,0.0,0.0,0.0,0.0,3.1314,3.2045,3.1814,3.2352,0.0,0.0,0.0,0.0,0.0,3.0885,3.3965,3.6965,3.6465,3.7161,3.8046,3.8161,3.7004,3.5923,3.6038,3.608,3.6619,3.8469,3.9704,4.1474,4.459,4.6129,4.9053,5.5054,5.8594,6.0941,6.1787,6.1903,6.1595,6.0864,6.0787,6.0787,6.0787,6.0787,6.0787,6.0787,6.0787,6.0787,6.0787,6.0787,6.0787,6.0787,6.0089,5.9281,5.8467,5.7594,5.6747,5.5901,5.5747,5.5708,5.5708,0.0,0.0,5.5708,5.5708,5.5708,5.5708,5.5708,5.5883,5.6161,5.6183,5.6366,5.6561,0.0,0.0,0.0,0.0,0.0,0.0,0.0,0.0,0.0,0.0,0.0,0.0,0.0,0.0,0.0,0.0,0.0,0.0,0.0,0.0,0.0,2.5703,2.5703,2.6406,2.7851,2.8047,2.9375,3.1992,3.5039,3.6797,3.7344,4.0117,3.8945,3.4375,3.1437,2.973,2.9107,2.8958,2.939,3.0192,3.0346,0.0,0.0,0.0,0.0,0.0,0.0,0.0,0.0,2.928,3.0586,3.158,3.0962,0.0,0.0,0.0,0.0,0.0,3.3045,3.6203,3.8203,3.5318,3.6318,3.82,3.8934,3.8315,3.7815,3.855,3.8703,3.9434,4.1854,4.4201,4.6351,4.8317,5.1164,5.3977,5.6439,5.8478,6.0012,6.0902,6.1018,6.0941,6.0825,6.0787,6.0787,6.0787,6.0787,6.0787,6.0787,6.0787,6.0787,6.0787,6.0787,6.0787,6.0787,6.0671,6.0165,5.9319,5.8473,5.7627,5.6786,5.6055,5.5708,5.5708,0.0,5.5708,5.5708,5.5708,5.5708,5.5708,5.5708,5.5817,5.5989,5.6143,5.6283,5.6452,0.0,0.0,0.0,0.0,0.0,0.0,0.0,0.0,0.0,0.0,0.0,0.0,0.0,0.0,0.0,0.0,0.0,0.0,0.0,2.5703,2.6133,2.707,2.7109,2.7461,2.8281,2.9687,3.168,3.4258,3.6758,3.8476,3.9414,3.9059,3.6868,3.3155,3.088,2.9663,2.9247,2.9129,2.9583,3.0385,0.0,0.0,0.0,0.0,0.0,0.0,0.0,0.0,0.0,0.0,3.0929,3.2199,3.1388,0.0,0.0,0.0,0.0,0.0,3.1811,3.4968,3.7507,3.593,3.8857,4.2089,4.2012,4.1354,4.0854,4.1277,4.1358,4.1974,4.409,4.6163,4.8697,5.2241,5.4895,5.6973,5.8171,5.9435,6.0358,6.0748,6.0787,6.0787,6.0787,6.0787,6.0787,6.0787,6.0787,6.0787,6.0787,6.0787,6.0787,6.0787,6.0787,6.0787,6.0787,6.0787,6.0358,5.9473,5.8665,5.7857,5.6983,5.6093,5.5708,5.5708,0.0,5.5708,5.5708,5.5708,5.5708,5.5708,5.5708,5.5794,5.592,5.6222,5.6387,5.6514,0.0,0.0,0.0,0.0,0.0,0.0,0.0,0.0,0.0,0.0,0.0,0.0,0.0,0.0,0.0,0.0,0.0,0.0,0.0,2.5703,2.6406,2.793,2.8398,2.8984,2.9766,3.1758,3.4023,3.6601,3.8359,3.9883,4.1133,3.7763,3.4937,3.2549,3.0665,2.9705,2.9489,2.9448,2.9775,3.0385,0.0,0.0,0.0,0.0,0.0,0.0,0.0,0.0,0.0,0.0,0.0,0.0,0.0,0.0,0.0,3.1349,3.0846,3.0846,3.1423,3.4231,3.7042,3.7273,4.0896,4.4474,4.4816,4.397,4.3393,4.4355,4.4739,4.5205,4.6283,4.8048,5.0894,5.578,5.755,5.8583,5.9396,6.0242,6.0787,6.0787,6.0787,6.0787,6.0787,6.0787,6.0787,6.0787,6.0787,6.0787,6.0787,6.0787,6.0787,6.0787,6.0787,6.0787,6.0787,6.0787,6.0358,5.9473,5.8665,5.7857,5.6983,5.6093,5.5708,5.5708,5.5708,5.5708,5.5708,5.5708,5.5708,5.5708,5.5708,5.5827,5.5991,5.6264,5.6457,5.6601,0.0,0.0,0.0,0.0,0.0,0.0,0.0,0.0,0.0,0.0,0.0,0.0,0.0,0.0,0.0,0.0,0.0,0.0,0.0,2.5703,2.6133,2.7031,2.8633,3.0976,3.418,3.4414,3.5781,3.8398,4.0156,4.1094,4.1133,3.8388,3.6148,3.4347,3.2462,3.1151,3.0395,3.0334,3.0346,3.0385,3.0385,0.0,0.0,0.0,0.0,0.0,0.0,0.0,0.0,0.0,0.0,0.0,0.0,0.0,3.2891,3.2776,3.2199,3.2118,3.45,3.6504,3.8084,3.8896,4.0015,4.1897,4.5812,4.485,4.4201,4.8125,4.9591,4.9938,4.9245,5.1164,5.4236,5.855,5.8698,5.8583,5.9396,6.0242,6.0787,6.0787,6.0787,6.0787,6.0787,6.0787,6.0787,6.0787,6.0787,6.0787,6.0787,6.0787,6.0787,6.0787,6.0787,6.0787,6.0787,6.0787,6.0358,5.9473,5.8665,5.7857,5.6983,5.6093,5.5708,5.5708,5.5708,5.5708,5.5708,5.5708,5.5708,5.5708,5.5708,5.5896,5.6181,5.6199,5.638,5.6601,0.0,0.0,0.0,0.0,0.0,0.0,0.0,0.0,0.0,0.0,0.0,0.0,0.0,0.0,0.0,0.0,0.0,0.0,2.5703,2.5703,2.6328,2.7734,2.8945,3.0703,3.3086,3.5234,3.7617,4.0234,4.0898,4.0897,4.0183,3.7027,3.4872,3.3602,3.1736,3.1058,3.1202,3.0642,3.0692,3.1157,3.0615,2.9888,0.0,0.0,0.0,0.0,0.0,0.0,0.0,0.0,2.9621,3.1234,3.1311,3.2429,3.351,3.2468,3.1929,3.1926,3.2888,3.5892,3.8627,3.7853,4.0704,4.4244,4.6428,4.6971,4.7932,5.1125,5.2049,5.2472,5.3208,5.4126,5.5818,5.8973,5.8813,5.8775,6.0127,6.0589,6.0787,6.0787,6.0787,6.0787,6.0787,6.0787,6.0787,6.0787,6.0787,6.0787,6.0787,6.0787,6.0787,6.0787,6.0787,6.0787,6.0787,6.0787,6.0358,5.9473,5.8665,5.8127,5.7742,5.6324,5.5708,5.5708,5.5708,5.5708,5.5708,5.5708,5.5708,5.5708,5.5708,5.5904,5.6194,5.6194,5.6374,5.6601,0.0,0.0,0.0,0.0,0.0,0.0,0.0,0.0,0.0,0.0,0.0,0.0,0.0,0.0,0.0,0.0,0.0,0.0,2.5703,2.5703,2.6367,2.7812,2.8711,3.0117,3.2148,3.5,3.7773,4.0391,4.0937,4.0428,3.8891,3.62,3.4571,3.3839,3.2045,3.171,3.2429,3.1272,3.1157,3.1618,3.0731,3.0041,0.0,0.0,0.0,0.0,0.0,0.0,0.0,0.0,2.9278,3.0621,3.1388,3.2622,3.3625,3.2737,3.2852,3.3234,3.2965,3.6238,3.9473,3.8542,4.197,4.6052,4.7702,4.8779,5.0356,5.3703,5.4395,5.4895,5.6588,5.6478,5.6863,5.9127,5.905,5.9165,6.0589,6.0787,6.0787,6.0787,6.0787,6.0787,6.0787,6.0787,6.0787,6.0787,6.0787,6.0787,6.0787,6.0787,6.0787,6.0787,6.0787,6.0787,6.0787,6.0787,6.0517,5.9896,5.8819,5.8165,5.7857,5.6357,5.5708,5.5708,5.5708,5.5708,5.5708,5.5708,5.5717,5.5755,5.5755,5.5928,5.6194,5.6194,5.6356,5.6558,0.0,0.0,0.0,0.0,0.0,0.0,0.0,0.0,2.3437,2.4297,2.5156,0.0,0.0,0.0,0.0,0.0,0.0,0.0,2.5703,2.5703,2.6094,2.6953,2.7812,2.9492,3.2109,3.3828,3.5976,3.8594,4.0312,3.9844,3.7266,3.6317,3.5806,3.5603,3.388,3.3514,3.4087,3.2391,3.1695,3.1618,3.0769,3.0423,3.0308,0.0,0.0,0.0,0.0,0.0,0.0,0.0,2.8588,2.8662,3.2856,3.3625,3.3083,3.3933,3.5391,3.65,3.5731,3.7969,4.0704,4.1581,4.3739,4.6556,4.9938,5.0053,5.0899,5.5978,5.7022,5.7517,5.9204,5.8132,5.7555,5.9242,5.9511,5.9819,6.0671,6.0787,6.0787,6.0787,6.0787,6.0787,6.0787,6.0787,6.0787,6.0787,6.0787,6.0787,6.0787,6.0787,6.0787,6.0787,6.0787,6.0787,6.0787,6.0787,6.0787,6.0787,5.9088,5.7857,5.6983,5.6093,5.5708,5.5708,5.5708,5.5708,5.5708,5.5708,5.5784,5.592,5.592,5.6008,5.6194,5.6194,5.6275,5.64,0.0,0.0,0.0,0.0,0.0,0.0,0.0,0.0,2.4331,2.5195,2.5547,0.0,0.0,0.0,0.0,0.0,0.0,0.0,2.5703,2.5703,2.582,2.6055,2.75,2.8398,2.8555,3.1445,3.4492,3.7695,3.8203,3.7732,3.6271,3.5366,3.4823,3.4677,3.4122,3.3637,3.324,3.216,3.1695,3.1695,3.1426,3.0962,3.0385,0.0,0.0,0.0,0.0,0.0,0.0,0.0,0.0,0.0,3.1852,3.3891,3.5273,3.3737,3.493,3.65,3.5731,3.7969,4.0858,4.2354,4.5975,4.9591,5.1164,5.1813,5.3164,5.7126,5.8357,5.8896,5.9396,5.9088,5.9127,6.0242,5.9896,5.9819,6.0671,6.0787,6.0787,6.0787,6.0787,6.0787,6.0787,6.0787,6.0787,6.0787,6.0787,6.0787,6.0787,6.0787,6.0787,6.0787,6.0787,6.0787,6.0787,6.0787,6.0473,5.9858,5.8819,5.8165,5.7857,5.6395,5.5708,5.5708,5.5708,5.5708,5.5708,5.5708,5.5784,5.592,5.592,5.608,5.6354,5.6354,5.6443,5.6558,0.0,0.0,0.0,0.0,0.0,0.0,0.0,0.0,2.4723,2.5586,2.5703,2.5703,0.0,0.0,0.0,2.5703,2.5703,0.0,2.5703,2.5703,2.5859,2.6211,2.7226,2.8008,2.8555,3.1601,3.3867,3.5273,3.5937,3.5975,3.5416,3.5173,3.5369,3.5889,3.5797,3.5268,3.4311,3.3199,3.2506,3.216,3.1814,3.1388,3.0923,0.0,0.0,0.0,0.0,0.0,0.0,0.0,0.0,0.0,3.1311,3.308,3.4619,3.408,3.5503,3.7311,3.7846,4.0239,4.3089,4.5513,4.8663,5.1741,5.3928,5.4851,5.589,5.828,5.9165,5.9511,5.9511,5.9511,5.9665,6.0204,6.0127,6.0204,6.0748,6.0787,6.0787,6.0787,6.0787,6.0787,6.0787,6.0787,6.0787,6.0787,6.0787,6.0787,6.0787,6.0787,6.0787,6.0787,6.0787,6.0787,6.0787,6.0473,6.0012,5.9473,5.8319,5.778,5.7742,5.6324,5.5708,5.5708,5.5708,5.5708,5.5714,5.5745,5.5853,5.6001,5.6001,5.6163,5.639,5.639,5.6454,5.6516,0.0,0.0,2.0533,2.0625,0.0,0.0,0.0,2.402,2.4805,2.5586,2.5703,2.5703,0.0,0.0,0.0,2.5703,2.5703,2.5703,2.5703,2.5703,2.6094,2.6953,2.7226,2.8555,3.1055,3.332,3.3711,3.2187,3.3789,3.457,3.4609,3.5477,3.67,3.8175,3.8022,3.7423,3.635,3.4664,3.3471,3.2622,3.1968,3.1657,3.158,3.158,0.0,0.0,0.0,0.0,0.0,0.0,0.0,0.0,3.1198,3.1811,3.2388,3.4615,3.6542,3.8546,4.1004,4.347,4.6244,4.9899,5.1548,5.3313,5.7352,5.8313,5.855,5.9435,5.9627,5.9627,5.9627,5.9627,5.9627,5.9627,6.0281,6.0787,6.0787,6.0787,6.0787,6.0787,6.0787,6.0787,6.0787,6.0787,6.0787,6.0787,6.0787,6.0787,6.0787,6.0787,6.0787,6.0787,6.0787,6.0787,6.0787,5.9935,5.9473,5.9358,5.7786,5.6945,5.6863,5.6055,5.5708,5.5708,5.5708,5.5708,5.5724,5.5843,5.6026,5.6194,5.6194,5.6277,5.6438,5.6438,5.6438,5.6447,0.0,0.0,2.2506,2.3229,0.0,0.0,2.4935,2.5269,2.5508,2.5664,2.5703,2.5703,2.5703,2.5703,0.0,2.5703,2.5703,2.5703,2.5703,2.5703,2.6094,2.6953,2.8984,3.0937,3.2812,3.2773,3.2578,3.2187,3.3157,3.3615,3.3647,3.5002,3.6222,3.7208,3.706,3.6157,3.4625,3.2968,3.1734,3.0962,3.1503,3.1272,3.0692,3.0692,3.0462,0.0,0.0,0.0,0.0,0.0,0.0,0.0,3.1388,3.2583,3.3625,3.3506,3.5622,3.8392,4.0281,4.2166,4.4932,5.0313,5.328,5.5472,5.778,5.8313,5.8704,6.0204,6.0512,6.0512,6.0512,6.0512,6.0512,6.0512,6.0671,6.0787,6.0787,6.0787,6.0787,6.0787,6.0787,6.0787,6.0787,6.0787,6.0787,6.0787,6.0787,6.0787,6.0787,6.0787,6.0787,6.0787,6.0787,6.0787,6.0787,5.9935,5.9165,5.855,5.7517,5.6632,5.5978,5.5785,5.5708,5.5708,5.5708,5.5708,5.5714,5.5733,5.5938,5.6194,5.6194,5.636,5.656,5.656,5.656,5.656,0.0,0.0,0.0,0.0,0.0,0.0,0.0,0.0,2.5703,2.5703,2.5703,2.5703,2.5703,2.5703,0.0,0.0,2.5703,2.5703,2.5703,2.5703,2.6289,2.7578,3.0117,3.1523,3.1562,3.1562,3.1561,3.1475,3.1833,3.2676,3.3979,3.5905,3.7495,3.8703,3.8162,3.6776,3.4699,3.3006,3.1542,3.0462,3.1349,3.1195,3.0385,3.0385,2.9885,2.9157,2.8701,0.0,0.0,0.0,0.0,0.0,0.0,0.0,3.2545,3.3317,3.5084,3.7427,4.0354,4.297,4.6235,5.1774,5.4434,5.6055,5.7401,5.7665,5.8165,5.9819,6.0512,6.0787,6.0787,6.0787,6.0787,6.0787,6.0787,6.0787,6.0787,6.0787,6.0787,6.0787,6.0787,6.0787,6.0787,6.0787,6.0787,6.0787,6.0787,6.0787,6.0787,6.0787,6.0787,6.0787,6.0396,6.0165,6.0165,5.8934,5.8088,5.7671,5.6786,5.6132,5.5708,5.5708,5.5708,5.5708,5.5708,5.5708,5.5708,5.5708,5.5896,5.6194,5.6194,5.6371,5.6601,5.6601,5.6601,5.6601,0.0,0.0,0.0,0.0,0.0,0.0,0.0,0.0,0.0,2.5703,2.5703,2.5703,2.5703,2.5703,2.5703,0.0,0.0,0.0,2.5703,2.5859,2.6719,2.8437,3.0586,3.1211,3.0078,3.0468,3.0657,3.0703,3.0634,3.2177,3.5265,3.7174,3.9,4.063,3.9536,3.7738,3.5385,3.3311,3.158,3.0231,3.0811,3.0618,2.9962,2.9808,2.8964,2.7893,2.7739,2.8277,2.9088,2.9088,0.0,0.0,0.0,0.0,3.0657,3.3048,3.4276,3.5692,3.9658,4.3735,4.8082,5.3049,5.4972,5.5939,5.6786,5.6983,5.744,5.8973,5.9973,6.0633,6.0781,6.0787,6.0787,6.0787,6.0787,6.0787,6.0787,6.0787,6.0787,6.0787,6.0787,6.0787,6.0787,6.0787,6.0787,6.0787,6.0787,6.0787,6.0787,6.0666,6.0589,6.0589,5.9742,5.9281,5.9281,5.7786,5.6983,5.6983,5.6132,5.5708,5.5708,5.5708,5.5708,5.5708,5.5708,5.5708,5.5708,5.5708,5.5896,5.6194,5.6194,5.6371,5.6601,5.6601,5.6601,5.6601,0.0,0.0,0.0,0.0,0.0,0.0,0.0,0.0,0.0,0.0,2.5703,2.5703,2.5703,2.5703,2.5703,2.5703,2.5703,2.5703,2.5703,0.0,0.0,2.9336,2.9766,3.0547,3.1836,3.0423,3.002,3.0713,3.0554,3.2974,3.7647,3.7884,3.8925,4.0473,3.8869,3.7196,3.5308,3.2077,3.0157,2.9201,2.8624,2.8354,2.8162,2.7387,2.7428,2.7816,2.7044,2.7777,2.9088,2.9088,2.9698,0.0,0.0,0.0,2.9624,3.1506,3.2122,3.2811,3.5577,4.1504,4.7928,5.2274,5.4549,5.5939,5.6786,5.6983,5.7286,5.8242,5.9127,5.9896,6.0666,6.0787,6.0787,6.0787,6.0787,6.0787,6.0787,6.0787,6.0787,6.0787,6.0787,6.0787,6.0787,6.0787,6.0787,6.0787,6.0787,6.0787,6.0787,6.0089,5.9665,5.9665,5.889,5.8467,5.8467,5.7478,5.6983,5.6983,5.6132,5.5708,5.5708,5.5708,5.5708,5.5708,5.5708,5.5708,5.5708,5.5708,5.5896,5.6194,5.6194,5.6371,5.6601,5.6601,5.6601,5.6601,0.0,0.0,0.0,0.0,0.0,0.0,0.0,0.0,0.0,0.0,0.0,2.5703,2.5703,2.5703,2.5703,2.5703,2.5703,2.5703,2.5703,2.6523,2.7344,2.8125,2.8594,2.8984,2.9212,2.8461,2.8624,2.9868,2.9358,3.2666,3.9452,3.9426,4.1089,4.4008,4.1816,3.9662,3.7353,3.3465,3.0775,2.9088,2.8703,2.9432,3.039,2.7659,2.8044,2.966,2.6887,2.6656,2.7777,2.8277,2.897,2.9775,3.0231,0.0,0.0,0.0,3.0929,3.2888,3.8273,4.2543,4.6701,5.189,5.3741,5.4664,5.5978,5.6285,5.6516,5.7401,5.7863,5.8511,5.9819,6.0473,6.0787,6.0787,6.0787,6.0787,6.0787,6.0787,6.0787,6.0787,6.0787,6.0787,6.0787,6.0787,6.0589,6.0127,6.0089,5.9858,5.9435,5.905,5.8813,5.8813,5.8011,5.7555,5.7555,5.6709,5.6285,5.6285,5.5862,5.5708,5.5708,5.5708,5.5708,5.5708,5.5708,5.5708,5.5708,5.5708,5.5896,5.6194,5.6194,5.6371,5.6601,5.6601,5.6601,5.6601,0.0,0.0,0.0,0.0,0.0,0.0,0.0,0.0,0.0,0.0,0.0,2.5703,2.5703,0.0,0.0,0.0,2.5703,2.5703,2.5703,2.6328,2.6758,2.6992,2.7422,2.742,2.6892,2.6688,2.7216,2.8563,2.8384,3.237,4.0208,4.0858,4.3551,4.774,4.5201,4.2277,3.905,3.5199,3.2352,3.0396,3.0163,3.1201,3.2699,3.0621,3.1275,3.2814,2.8926,2.7964,2.8506,2.8277,2.8739,2.9509,2.9926,2.9467,0.0,0.0,0.0,3.2199,3.9008,4.1897,4.4393,5.0159,5.2236,5.3313,5.5011,5.5401,5.5631,5.6478,5.6868,5.7363,5.8627,5.9588,6.0242,6.0441,6.0473,6.055,6.0781,6.0594,6.0473,6.0473,6.0281,6.0165,6.0165,6.0165,5.9896,5.9242,5.9204,5.8929,5.8313,5.8088,5.7973,5.7973,5.7132,5.667,5.667,5.6016,5.5708,5.5708,5.5708,5.5708,5.5708,5.5708,5.5708,5.5708,5.5708,5.5708,5.5708,5.5708,5.5896,5.6194,5.6194,5.6371,5.6601,5.6601,5.6601,5.6601,0.0,0.0,0.0,0.0,0.0,0.0,0.0,0.0,0.0,0.0,0.0,2.5703,2.5703,2.5703,2.5703,2.5703,2.5703,2.5703,2.5703,2.5742,0.0,0.0,2.625,0.0,2.6892,2.6032,2.6,2.6827,2.8306,3.2596,3.9434,4.1816,4.5667,5.0399,4.7855,4.397,3.9127,3.6465,3.4811,3.3856,3.3045,3.2776,3.3314,3.7165,3.8242,3.7315,3.4664,3.3782,0.0,0.0,0.0,3.0192,2.9393,2.8624,2.797,0.0,0.0,0.0,3.3471,3.7049,4.0781,4.5928,4.962,5.2428,5.4164,5.4549,5.478,5.5593,5.6401,5.7016,5.7099,5.7857,5.8665,5.9435,5.9588,5.9858,6.0671,6.0089,5.9588,5.9588,5.8896,5.8429,5.8429,5.8429,5.839,5.8352,5.8352,5.8352,5.8313,5.7517,5.7055,5.7055,5.6209,5.5785,5.5785,5.5708,5.5708,5.5708,5.5708,5.5708,5.5708,5.5708,5.5708,5.5708,5.5708,5.5708,5.5708,5.5708,5.5896,5.6194,5.6194,5.6371,5.6601,5.6601,5.6601,5.6601,0.0,0.0,0.0,0.0,0.0,0.0,0.0,0.0,0.0,0.0,0.0,0.0,0.0,2.5703,2.5703,2.5703,2.5703,2.5703,2.5703,2.5703,0.0,0.0,2.6355,2.6293,2.5936,2.6168,2.6372,2.6646,2.7221,3.0698,3.6927,3.9469,4.22,4.5047,4.6312,4.5586,4.3051,3.8892,3.693,3.6546,3.5699,3.7315,4.0046,3.8277,3.9815,4.2243,3.7507,0.0,0.0,0.0,0.0,0.0,3.1198,2.9816,2.847,2.739,2.7816,2.9357,3.2509,3.5468,3.8738,4.3316,4.6966,4.9928,5.1669,5.3746,5.5208,5.4972,5.5593,5.617,5.617,5.7357,5.839,5.8665,5.8742,5.8858,5.9165,5.8934,5.8742,5.8742,5.8467,5.8313,5.8313,5.8313,5.8088,5.7517,5.7478,5.7209,5.6665,5.6324,5.617,5.617,5.5862,5.5708,5.5708,5.5708,5.5708,5.5708,5.5708,5.5708,5.5708,5.5708,5.5708,5.5708,5.5708,5.5708,5.5708,5.5708,5.5896,5.6194,5.6194,5.6371,5.6601,5.6601,5.6601,5.6601,0.0,0.0,0.0,2.5703,0.0,2.5703,2.5703,2.5703,2.582,2.6094,0.0,0.0,0.0,0.0,2.6445,2.6172,2.6133,2.6016,2.5703,2.5663,2.5774,2.6029,2.6559,2.6662,2.6298,2.6831,2.697,2.6618,2.7159,2.9929,3.4696,3.7238,3.9623,4.1889,4.3581,4.4662,4.4936,4.1277,3.97,3.97,3.97,4.1546,4.4201,4.3393,4.4855,4.6783,0.0,0.0,0.0,0.0,0.0,0.0,0.0,3.0586,2.8047,2.6928,2.7777,2.9547,3.1506,3.4119,3.7388,4.197,4.4316,4.6509,5.024,5.2164,5.3318,5.3933,5.4703,5.5401,5.567,5.6665,5.7511,5.7819,5.7857,5.7973,5.8275,5.805,5.7857,5.7857,5.7627,5.7434,5.7434,5.7434,5.7203,5.6593,5.6555,5.6324,5.5747,5.5708,5.5708,5.5708,5.5708,5.5708,5.5708,5.5708,5.5708,5.5708,5.5708,5.5708,5.5708,5.5708,5.5708,5.5708,5.5708,5.5708,5.5708,5.5708,5.5896,5.6194,5.6194,5.6371,5.6601,5.6601,5.6601,5.6601,2.5742,2.5742,2.5781,2.5781,2.5781,2.5781,2.5781,2.5781,2.6094,2.6914,0.0,0.0,0.0,0.0,0.0,2.7187,2.7109,2.6719,2.5781,2.5694,2.6028,2.6842,2.6872,2.7188,2.7984,2.8021,2.7584,2.6656,2.8277,3.0393,3.2891,3.5427,3.8427,4.1542,3.9973,4.1089,4.4085,4.3278,4.3047,4.3355,4.4898,4.5128,4.5355,5.2708,5.3554,0.0,5.0745,4.9163,0.0,4.3196,0.0,0.0,0.0,3.0778,2.6733,2.6695,2.7893,2.9432,0.0,0.0,0.0,4.1623,4.1627,4.2397,4.9889,4.9697,4.8928,5.239,5.3741,5.4587,5.5478,5.567,5.5939,5.6786,5.6945,5.7247,5.8088,5.7517,5.6945,5.6945,5.6209,5.5708,5.5708,5.5708,5.5708,5.5708,5.5708,5.5708,5.5708,5.5708,5.5708,5.5708,5.5708,5.5708,5.5708,5.5708,5.5708,5.5708,5.5708,5.5708,5.5708,5.5708,5.5708,5.5708,5.5708,5.5714,5.5719,5.5719,5.59,5.6194,5.6197,5.6373,5.6601,5.6601,5.6601,5.6601,2.6641,2.7148,2.7578,2.7578,2.7578,2.7578,2.7578,2.7578,2.7656,0.0,0.0,0.0,2.8359,2.9414,3.0078,2.9844,2.9721,2.882,2.6758,2.659,2.6636,2.6829,2.7428,2.7817,2.7911,2.8484,2.8389,2.7546,2.8588,2.9778,3.1154,3.3699,3.5738,3.7269,3.8046,3.9204,4.0589,3.9084,4.1312,4.5735,4.4355,4.6586,5.0779,5.1048,0.0,0.0,0.0,5.1505,5.112,0.0,4.6436,4.3128,0.0,0.0,3.0044,2.8778,3.047,3.2432,3.0846,0.0,0.0,0.0,0.0,0.0,4.3051,4.4085,4.5624,4.9625,5.0125,5.0702,5.3395,5.4395,5.4895,5.517,5.567,5.6132,5.6395,5.6209,5.6055,5.6055,5.5862,5.5708,5.5708,5.5708,5.5708,5.5708,5.5708,5.5708,5.5708,5.5708,5.5708,5.5708,5.5708,5.5708,5.5708,5.5708,5.5708,5.5708,5.5708,5.5708,5.5708,5.5708,5.5708,5.5708,5.5708,5.5778,5.5827,5.5827,5.5993,5.6202,5.6328,5.6453,5.6601,5.6601,5.6601,5.6601,2.7539,2.8242,2.8945,2.9336,2.9687,3.0039,3.0391,3.0156,3.0195,0.0,0.0,0.0,3.1484,3.2734,3.3125,3.2031,3.1559,3.0383,2.8198,2.7624,2.753,2.7797,2.8605,2.9185,2.9473,2.9932,2.9775,2.8929,2.9047,2.9355,2.9888,3.1737,3.3083,3.3965,3.4926,3.6238,3.7584,3.585,3.9042,4.5389,4.6389,4.8735,5.1702,5.2741,5.3741,0.0,0.0,0.0,5.3587,5.2631,4.9322,0.0,0.0,3.6657,3.393,3.1855,3.3667,3.5857,3.3619,3.535,3.7815,3.7896,0.0,0.0,4.2393,4.2589,4.3201,4.7471,4.824,4.8812,5.1164,5.2587,5.3549,5.3895,5.4664,5.5324,5.567,5.5708,5.5708,5.5708,5.5708,5.5708,5.5708,5.5708,5.5708,5.5708,5.5708,5.5708,5.5708,5.5708,5.5708,5.5708,5.5708,5.5708,5.5708,5.5708,5.5708,5.5708,5.5708,5.5708,5.5708,5.5708,5.5708,5.5708,5.5708,5.5779,5.5924,5.5973,5.6149,5.6277,5.6373,5.6465,5.6601,5.6601,5.6601,5.6601,0.0,2.9375,3.0195,3.1133,3.2031,3.2891,3.3711,3.3242,3.3359,0.0,3.4531,3.4844,3.6797,3.7422,3.6836,3.457,3.3358,3.1946,3.0003,2.8935,2.8623,2.9186,2.9967,3.0787,3.1542,3.1734,3.1349,3.0385,2.9737,2.9357,2.9278,3.0041,3.0808,3.1542,3.1542,3.2926,3.5115,3.3965,3.7199,4.3547,4.8812,5.0428,0.0,0.0,5.6005,5.3895,5.6093,5.5978,5.4741,5.4434,5.0822,0.0,0.0,4.1508,3.8584,3.5857,3.7395,0.0,3.7773,3.8584,4.0435,0.0,4.0085,0.0,4.4504,4.297,4.1512,4.5504,4.6812,4.7625,4.8779,5.0351,5.1736,5.2505,5.351,5.4549,5.5555,5.5708,5.5708,5.5708,5.5708,5.5708,5.5708,5.5708,5.5708,5.5708,5.5708,5.5708,5.5708,5.5708,5.5708,5.5708,5.5708,5.5708,5.5708,5.5708,5.5708,5.5708,5.5708,5.5708,5.5708,5.5708,5.5724,5.5712,5.5712,5.5798,5.5962,5.6161,5.6279,5.639,5.6437,5.6508,5.6601,5.6601,5.6601,5.6601,3.1172,3.1562,3.2187,3.3672,3.4687,3.5547,3.6406,3.6406,3.668,3.7695,3.8281,3.9805,4.2891,4.1562,4.0466,4.0558,3.7795,3.5028,3.2568,3.0896,2.9784,2.9221,3.0008,3.0531,3.0657,3.1965,3.1926,3.0385,3.0926,3.0811,3.0154,3.0308,3.05,3.0654,3.0654,3.1695,3.3583,3.5968,3.9354,4.3201,4.4355,4.7466,5.162,5.3467,5.5049,5.6247,5.6016,5.6209,5.6209,5.4126,5.2664,5.1087,0.0,0.0,0.0,4.1466,0.0,4.3859,4.1466,4.2547,4.3666,4.0781,0.0,0.0,3.9311,3.9123,4.0165,4.235,4.2354,4.2897,4.5782,4.7702,4.8889,4.9082,5.0966,5.3197,5.5401,5.5708,5.5708,5.5708,5.5708,5.5708,5.5708,5.5708,5.5708,5.5708,5.5708,5.5708,5.5708,5.5708,5.5708,5.5708,5.5708,5.5708,5.5708,5.5708,5.5708,5.5708,5.5708,5.5708,5.5708,5.5708,5.575,5.5853,5.5853,5.6025,5.6301,5.6321,5.6377,5.6395,5.6514,5.6562,5.6601,5.6601,5.6601,5.6601,3.2617,3.3164,3.4101,3.6289,3.7383,3.8516,4.0234,4.0117,4.0469,4.2226,4.3594,4.4687,4.5457,4.4402,4.3448,4.2905,4.0024,3.7331,3.5156,3.3355,3.1823,3.0487,3.1678,3.2344,3.2314,3.3122,3.3125,3.2314,3.1891,3.1234,3.0385,3.0385,3.1308,3.2923,3.2042,3.3506,3.6741,3.7623,3.9738,4.2735,4.612,0.0,5.2774,5.4928,5.628,5.6983,5.7011,5.7016,5.6593,5.4049,5.2928,0.0,0.0,4.9356,4.9312,0.0,4.6735,4.8086,0.0,0.0,4.6355,4.4201,0.0,0.0,0.0,4.0816,4.0627,4.3162,4.1974,4.1401,4.4397,4.5624,4.6509,4.7351,4.9274,5.1087,5.2395,5.3664,5.4434,5.4434,5.4434,5.4626,5.5049,5.5093,5.5285,5.567,5.5708,5.5708,5.5708,5.5708,5.5708,5.5708,5.5708,5.5708,5.5708,5.5708,5.5708,5.5708,5.5708,5.5708,5.5714,5.5769,5.5852,5.5924,5.6029,5.6166,5.639,5.639,5.6449,5.6511,5.6561,5.6601,5.6601,5.6601,5.6601,5.6601,3.3906,3.4453,3.5703,3.8164,3.9609,4.1133,4.3359,4.3242,4.3906,4.668,4.8554,4.9131,4.7961,4.7514,4.6844,4.5699,4.2578,4.0162,3.8911,3.6574,3.4551,3.2971,3.3891,3.4433,3.4433,3.4433,3.4279,3.3933,3.2583,3.1503,3.0654,3.0654,3.2308,3.5196,3.4119,3.6276,4.0666,3.9315,4.0773,4.4466,4.9769,5.1928,5.239,5.6121,5.7126,5.667,5.7857,5.7934,5.7132,5.4741,5.3582,5.289,5.1587,5.1972,0.0,0.0,0.0,0.0,0.0,0.0,0.0,0.0,0.0,4.6201,0.0,0.0,0.0,4.4436,4.282,4.1627,4.3701,4.4085,4.4547,4.5928,4.7586,4.8629,4.8432,5.0471,0.0,5.2197,5.251,5.301,5.3703,5.3626,5.3972,5.5126,5.4939,5.4939,5.5439,5.5631,5.5708,5.5708,5.5708,5.5708,5.5708,5.5708,5.5708,5.5708,5.5708,5.5696,5.5753,5.5836,5.5924,5.6005,5.6181,5.6297,5.6448,5.6448,5.6588,5.6836,5.668,5.6601,5.6601,5.6797,5.6836,5.6875,3.5703,3.5781,3.6445,3.8281,4.0547,4.2461,4.3555,4.4258,4.5937,4.9297,5.1114,5.2601,5.3928,5.2596,5.2108,5.3305,4.8326,4.5269,4.574,4.1343,3.8299,3.7315,3.6042,3.5346,3.5346,3.5346,3.4619,3.3045,3.2852,3.2352,3.1542,3.1542,3.2545,3.4395,3.5696,3.8273,4.1658,4.1466,4.5466,5.189,5.189,5.0197,0.0,5.3049,5.4857,5.5088,5.7434,5.8704,5.8934,0.0,5.7011,5.7044,0.0,5.4511,5.5785,0.0,0.0,0.0,0.0,0.0,0.0,0.0,5.0741,0.0,0.0,0.0,4.5427,4.2773,0.0,0.0,0.0,0.0,0.0,4.3508,4.4936,0.0,4.4975,4.6471,4.7889,4.8582,5.0048,5.1015,5.113,5.0438,5.0933,5.3318,5.213,5.2246,5.4511,5.5324,5.5708,5.5708,5.5708,5.5708,5.5708,5.5708,5.5708,5.5708,5.5708,5.5755,5.5883,5.5907,5.6068,5.6324,5.6373,5.6455,5.6562,5.6562,5.7031,5.7695,5.6914,5.6601,5.668,5.7461,5.7734,5.7851,3.6016,3.6406,3.7305,3.9062,4.0664,4.2344,4.418,4.7734,5.0586,5.1523,5.441,5.6608,5.7128,5.5161,5.4207,5.52,0.0,4.7949,0.0,0.0,4.1397,3.9511,3.878,3.8161,3.7738,3.7196,3.6119,3.4426,3.3391,3.2506,3.1695,3.1695,3.366,3.7242,3.8927,4.2081,4.6163,4.5658,4.7043,4.9582,5.0197,4.9312,0.0,5.5472,5.8165,5.8248,5.8781,5.955,5.9781,0.0,5.6093,0.0,0.0,0.0,0.0,0.0,0.0,0.0,0.0,0.0,0.0,0.0,0.0,0.0,0.0,0.0,4.5278,0.0,0.0,0.0,0.0,0.0,0.0,0.0,4.3701,0.0,0.0,0.0,4.4812,4.712,0.0,4.9086,5.0553,4.9899,5.024,5.2274,5.0894,5.1048,5.3626,5.4549,5.5208,5.5708,5.5708,5.5708,5.5708,5.5708,5.5708,5.5708,5.5708,5.5769,5.5885,5.6005,5.6171,5.6393,5.6465,5.6832,5.7344,5.7344,5.7851,5.8633,5.8242,5.8125,5.8164,5.8515,5.8633,5.8711,3.7031,3.7383,3.8125,3.9648,4.1016,4.2891,4.5976,5.0312,5.3476,5.4062,5.7024,5.9323,6.0008,5.7972,0.0,0.0,5.5208,5.1977,0.0,0.0,4.5321,4.3705,4.2089,0.0,4.1397,3.9627,3.7969,3.6542,3.458,3.3545,3.343,3.2965,3.5199,3.9742,4.2124,4.5774,5.0087,4.9933,5.0317,5.1125,5.1625,5.1895,5.251,5.7747,6.021,6.0704,6.0089,6.0435,6.0594,5.7049,5.6242,0.0,5.5516,0.0,0.0,0.0,0.0,0.0,5.401,0.0,0.0,0.0,0.0,0.0,0.0,0.0,0.0,0.0,0.0,0.0,0.0,0.0,0.0,0.0,0.0,4.2739,0.0,4.1046,0.0,0.0,0.0,0.0,4.9476,4.8432,4.8548,5.0697,4.9086,4.9433,5.2659,5.3664,5.4626,5.567,5.5708,5.5708,5.5708,5.5708,5.5708,5.5708,5.5743,5.5834,5.5973,5.6183,5.6345,5.6457,5.6794,5.7305,5.793,5.8164,5.875,5.9531,5.9531,5.9687,5.9844,5.9609,5.9531,5.957,3.9609,3.9101,3.8828,3.9726,4.1953,4.5078,4.9375,5.0859,5.3008,5.7187,5.8318,5.9955,6.3294,0.0,0.0,0.0,0.0,5.8858,5.7967,0.0,5.0818,5.15,0.0,4.4162,0.0,4.2551,4.0015,3.9165,3.6657,3.6234,3.7777,3.6157,3.7199,4.0669,4.4855,4.862,5.1923,5.3587,5.7132,6.1402,5.8973,5.9473,6.1331,0.0,5.8632,6.0787,6.0781,0.0,0.0,5.9935,5.9358,0.0,0.0,0.0,0.0,0.0,0.0,0.0,0.0,0.0,0.0,5.0745,0.0,0.0,0.0,0.0,4.8552,0.0,0.0,0.0,0.0,0.0,0.0,0.0,0.0,0.0,0.0,0.0,0.0,0.0,0.0,0.0,0.0,4.4778,4.4662,4.7966,4.5893,4.6663,5.1654,5.2774,5.401,5.567,5.5708,5.5708,5.5708,5.5708,5.5708,5.5708,5.5843,5.6019,5.6191,5.6347,5.646,5.664,5.75,5.7851,5.7969,5.8828,5.9648,6.0351,6.0351,6.0898,6.1523,6.0664,6.0351,6.0469,4.0703,4.0937,4.1055,4.0781,4.1914,4.4492,4.9453,5.332,5.699,0.0,6.2724,0.0,0.0,6.6592,6.5798,0.0,0.0,6.182,5.9281,5.6439,0.0,0.0,0.0,4.8514,0.0,4.5782,4.3205,4.1816,3.87,3.7738,3.8819,3.7081,3.8119,4.1546,4.5812,4.9582,5.2928,5.5208,5.6824,5.7824,5.7555,5.9627,6.2704,0.0,6.0556,6.0787,6.0787,6.1364,0.0,6.0748,5.9973,5.9396,5.8819,5.7901,5.6945,5.6632,5.6786,0.0,0.0,0.0,5.7049,5.3626,0.0,0.0,0.0,0.0,0.0,0.0,0.0,0.0,0.0,0.0,0.0,0.0,0.0,0.0,0.0,0.0,0.0,0.0,0.0,0.0,0.0,0.0,4.4586,4.6321,4.6163,4.7509,5.0933,5.2972,5.4318,5.4895,5.5439,5.5708,5.5708,5.5708,5.5708,5.5708,5.5852,5.6026,5.6197,5.6353,5.6775,5.7461,5.7773,5.8515,5.957,5.9883,6.0508,6.125,6.125,6.1445,6.164,6.1367,6.125,6.1289,4.2539,4.2734,4.2695,4.2187,4.3555,4.6367,5.1289,5.6089,6.0209,0.0,6.5774,0.0,7.1317,0.0,6.8758,0.0,6.7891,6.482,6.1089,5.9858,0.0,5.7126,5.4708,0.0,0.0,0.0,4.7475,4.4893,4.2085,4.0819,4.105,3.9311,4.0004,4.285,4.7124,5.0587,5.3428,5.7209,5.8632,5.8434,5.9011,6.105,0.0,0.0,6.2018,6.121,0.0,6.1172,6.1556,6.0979,6.0435,5.9973,5.9973,5.9011,5.7901,5.7901,5.7709,5.7286,5.6401,5.7203,0.0,5.5126,5.4087,0.0,4.9663,0.0,0.0,0.0,0.0,0.0,0.0,0.0,0.0,0.0,0.0,0.0,0.0,3.8354,0.0,0.0,0.0,0.0,0.0,0.0,4.3397,4.5436,4.5278,4.674,5.0515,5.251,5.3972,5.4895,5.5439,5.5708,5.5708,5.5708,5.5717,5.5774,5.5932,5.6083,5.6303,5.6748,5.7295,5.793,5.8515,5.9414,6.043,6.0742,6.1172,6.1719,6.1719,6.1719,6.1719,6.1719,6.1719,6.1719,4.5117,4.4648,4.4219,4.4258,4.6875,5.0391,5.4687,5.8755,6.2325,0.0,6.7367,6.9771,7.2303,7.0991,7.0937,7.3353,7.1315,0.0,6.4006,6.3622,0.0,0.0,5.9011,5.8506,5.8506,0.0,0.0,0.0,4.6475,4.5128,4.4321,4.2658,4.2735,4.447,4.8706,5.1553,5.3664,5.9479,6.2551,6.3468,6.3429,6.3929,6.4628,6.3775,6.2935,6.2095,6.1248,6.0941,6.0941,6.0864,6.0864,6.0864,6.0825,6.0242,5.955,5.9511,5.8973,5.8165,5.7286,5.7703,5.778,5.5357,5.4664,0.0,0.0,0.0,5.0207,0.0,0.0,0.0,0.0,0.0,0.0,0.0,0.0,0.0,0.0,0.0,0.0,0.0,0.0,0.0,0.0,4.1243,4.1127,4.5056,4.3316,4.4547,5.0322,5.1467,5.3082,5.5516,5.5708,5.5747,5.5708,5.5719,5.5774,5.5881,5.6125,5.6306,5.651,5.7456,5.7969,5.8125,5.9726,6.043,6.0547,6.1367,6.1719,6.1719,6.1719,6.1719,6.1719,6.1719,6.1719,6.1719,4.6914,4.9336,5.1562,5.2226,5.0976,5.1287,5.5483,5.8607,6.2029,0.0,6.9503,7.2362,7.4814,7.4102,7.3661,7.4315,7.3238,0.0,0.0,0.0,0.0,6.6122,6.2897,6.1133,6.1133,5.6126,0.0,5.189,4.7009,4.4859,4.5244,4.3547,4.3316,4.4432,4.7432,5.0779,5.4434,5.8473,6.2474,6.6051,6.5474,6.5705,6.6365,0.0,6.4705,6.382,6.2974,6.266,6.2589,6.1979,6.1787,6.1633,6.1018,6.0666,6.0319,5.9704,5.9358,5.9011,5.8204,5.8588,5.905,5.8396,5.7275,5.589,0.0,0.0,0.0,0.0,0.0,0.0,0.0,0.0,0.0,0.0,0.0,0.0,0.0,0.0,0.0,4.0735,0.0,0.0,3.885,4.0777,4.2051,4.1824,4.4162,4.6812,4.9591,5.1741,5.3159,5.3818,5.567,5.6362,5.5708,5.5784,5.5861,5.5885,5.6188,5.6722,5.737,5.7729,5.8594,5.9765,6.0195,6.0781,6.1367,6.1601,6.1719,6.1719,6.1719,6.1719,6.1719,6.1719,6.1719,6.1719,4.9844,5.3906,5.7499,5.7919,5.7326,5.7469,5.9428,6.1473,6.3878,6.699,7.0258,0.0,7.3651,7.4668,7.5284,7.5284,7.4507,0.0,7.1745,0.0,0.0,6.8468,6.6821,6.5442,6.4326,5.9896,0.0,5.428,0.0,4.7124,4.6124,4.4821,4.4244,4.4432,4.7355,5.0202,5.3208,5.8781,6.3243,6.6558,6.6481,6.6712,0.0,6.6211,6.559,6.5089,6.4628,6.3929,6.3237,6.2781,6.2403,6.2018,6.1518,6.1095,6.0704,6.0204,6.0089,5.9973,5.9511,5.9704,6.0089,6.0089,5.9088,5.7582,5.5626,5.4895,5.3818,0.0,0.0,0.0,0.0,0.0,0.0,0.0,0.0,0.0,0.0,0.0,0.0,0.0,4.1239,0.0,3.7004,3.9235,4.0781,4.0516,4.2743,4.5163,4.7629,5.051,5.2433,5.3159,5.4972,5.5882,5.5803,5.5857,5.5969,5.6122,5.6696,5.7265,5.7796,5.8631,5.9492,6.043,6.0781,6.125,6.1719,6.1719,6.1719,6.1719,6.1719,6.1719,6.1719,6.1719,6.1719,6.1719,5.3475,5.8356,6.2368,6.2036,6.4257,6.5872,6.5367,6.6035,6.6907,6.7761,0.0,7.2399,7.1668,7.4207,7.6015,7.6015,0.0,7.3937,7.1706,7.2899,7.2315,6.9353,7.0398,6.9937,6.7481,6.4628,0.0,0.0,5.2967,4.9851,4.6543,4.5898,4.509,4.4278,4.7702,5.0168,5.2207,6.0006,6.4359,6.6134,6.6827,6.7096,6.7019,6.6211,6.5904,6.5904,6.5904,6.4936,6.3622,6.3506,6.3012,6.2403,6.2172,6.1595,6.0941,6.0819,6.0787,6.0787,6.0787,6.0787,6.0787,6.0787,6.0242,5.8896,5.5857,5.4472,5.3621,5.2736,5.201,5.2554,0.0,0.0,0.0,0.0,0.0,0.0,0.0,0.0,0.0,0.0,0.0,0.0,3.685,3.7623,3.8742,3.9781,4.0054,4.167,4.509,0.0,5.0822,5.2967,5.4008,5.4983,5.5877,5.5936,5.6155,5.6585,5.7376,5.7912,5.8281,5.9726,6.0469,6.0625,6.1367,6.1719,6.1719,6.1719,6.1719,6.1719,6.1719,6.1719,6.1719,6.1719,6.1719,6.1719,5.7541,6.2529,6.6109,6.4693,6.7627,7.0568,7.1795,7.0367,6.9446,7.0196,7.3241,7.5284,7.513,7.563,7.6015,7.6015,7.5861,0.0,0.0,0.0,0.0,7.3623,7.2552,7.1136,6.9283,6.4673,6.0479,0.0,5.213,4.8086,4.4778,4.5321,4.4782,4.347,4.6817,5.1548,5.7242,6.1506,6.4705,6.6904,6.7058,6.7096,6.7019,6.6211,6.5904,6.5904,6.5904,6.5705,6.532,6.4628,6.4282,6.3935,6.2557,6.1979,6.171,6.1018,6.0787,6.0787,6.0787,6.0787,6.0787,6.0787,6.071,6.0242,5.8934,5.8011,5.7165,5.6285,5.5978,5.5478,5.4126,0.0,0.0,0.0,0.0,0.0,0.0,0.0,0.0,0.0,0.0,4.2358,0.0,3.8354,3.905,3.6542,3.7661,3.9931,4.3355,0.0,4.7471,5.2005,5.3764,5.5078,0.0,5.6171,5.6714,5.7486,5.7724,5.8593,5.9961,6.0273,6.0781,6.1484,6.164,6.1719,6.1719,6.1719,6.1719,6.1719,6.1719,6.1719,6.1719,6.1719,6.1719,6.1719,6.4987,6.7651,6.9752,7.0145,7.2245,7.4248,7.5388,7.524,7.4325,7.2489,7.3668,7.4514,7.4091,7.5207,7.6015,7.6015,7.6015,7.6015,7.6015,7.563,7.5361,7.5361,7.4168,0.0,7.1699,6.7096,6.3057,5.9633,5.4087,4.9856,4.6932,4.6013,4.4936,4.3893,4.774,5.2741,5.8506,6.1891,6.4551,6.6558,6.7436,6.7782,6.7744,6.7359,6.6936,6.6519,6.6519,6.625,6.5827,6.5436,6.4974,6.4474,6.3666,6.3089,6.2551,6.171,6.1479,6.1364,6.0941,6.0787,6.0787,6.0787,6.0787,6.0556,5.9704,5.889,5.805,5.717,5.6632,5.5555,5.3005,5.1164,0.0,0.0,0.0,0.0,0.0,0.0,0.0,0.0,0.0,0.0,0.0,0.0,0.0,0.0,0.0,0.0,0.0,4.297,4.6009,0.0,0.0,0.0,5.6035,0.0,5.6876,5.78,5.8319,5.9219,6.043,6.0859,6.1289,6.1719,6.1719,6.1719,6.1719,6.1719,6.1719,6.1719,6.1719,6.1992,6.2383,6.2383,6.2656,6.293,7.0914,7.1792,7.2762,7.4602,7.5954,7.6958,7.749,7.8977,7.8738,7.5046,7.4546,7.4284,7.3598,7.5329,7.6515,7.6515,7.6361,7.6284,7.6284,7.6092,7.6015,7.6015,7.5361,7.4584,7.3776,6.9898,6.6096,0.0,5.6934,5.2626,4.9356,4.7552,4.6513,4.6355,5.0284,5.4664,5.9319,6.2314,6.4666,6.6551,6.7853,6.8391,6.8391,6.8391,6.7975,6.7366,6.7366,6.6859,6.6173,6.6173,6.559,6.4859,6.4666,6.4122,6.3429,6.2595,6.2364,6.2172,6.1325,6.1095,6.1018,6.0864,6.0787,6.0633,5.9935,5.9011,5.8127,5.744,5.6439,5.4934,5.239,5.1274,0.0,0.0,0.0,0.0,0.0,0.0,0.0,0.0,0.0,0.0,3.9319,0.0,0.0,0.0,0.0,0.0,3.9858,4.1281,4.4453,0.0,0.0,5.2837,5.5373,0.0,5.7211,5.8203,5.9062,5.9883,6.0703,6.1406,6.1719,6.1719,6.1719,6.1719,6.1719,6.1914,6.1992,6.1992,6.2187,6.2656,6.3281,6.3281,6.3711,6.4101,7.1033,7.2954,7.4483,7.4679,7.672,7.8329,7.8376,7.9862,8.0285,7.8292,7.8023,7.7984,7.7907,7.8138,7.8253,7.8253,7.7599,7.7176,7.7176,7.6438,7.6015,7.6015,7.5938,7.5476,7.4623,7.1937,6.8129,0.0,0.0,5.4934,4.9394,4.9976,5.0976,5.2505,5.5198,5.8396,0.0,6.3705,6.5897,6.8199,6.8353,6.8391,6.8391,6.8391,6.8353,6.8276,6.8276,6.7705,6.6981,6.6981,6.6442,6.5628,6.4859,6.4551,6.432,6.3429,6.3198,6.3006,6.221,6.1979,6.1787,6.1018,6.0787,6.0787,6.071,5.9435,5.828,5.8198,5.6857,5.4934,5.239,5.3664,5.3626,0.0,0.0,0.0,0.0,0.0,0.0,0.0,0.0,0.0,0.0,3.6811,0.0,0.0,3.5923,3.6388,3.8123,3.8392,4.1207,4.7178,4.9082,5.0924,5.282,5.6122,5.8203,5.9101,5.9883,6.0742,6.1562,6.164,6.1719,6.1719,6.1719,6.1719,6.1758,6.2539,6.289,6.2969,6.375,6.4101,6.418,6.418,6.4219,6.4297,7.5516,7.553,7.613,7.8169,7.8515,7.9177,8.1254,8.2139,8.2178,8.0939,7.99,7.9285,7.9285,7.883,7.8484,7.8484,7.8215,7.8023,7.8023,7.7253,7.6784,7.6784,7.6284,7.5822,7.5476,7.3514,7.0699,0.0,0.0,5.8588,5.4741,5.4016,5.517,5.7819,5.8819,6.1166,6.4442,6.5596,6.7282,6.9161,6.9161,6.9468,6.9898,6.9898,6.959,6.9161,6.9161,6.8622,6.7898,6.7898,6.7013,6.5827,6.5474,6.5397,6.5205,6.4359,6.4083,6.3897,6.3051,6.282,6.2627,6.1787,6.1595,6.1441,6.0941,5.9896,5.889,5.839,5.6896,5.5401,5.4357,5.378,5.3433,0.0,0.0,0.0,0.0,0.0,0.0,0.0,0.0,0.0,0.0,0.0,0.0,0.0,0.0,3.6657,3.9358,4.0469,4.3142,4.7643,0.0,5.2489,5.3262,5.6361,5.8359,5.9219,6.0039,6.0859,6.1719,6.1719,6.1719,6.1719,6.1719,6.1992,6.25,6.2851,6.332,6.3828,6.414,6.4609,6.5078,6.5078,6.539,6.5859,7.8754,7.7938,7.8092,8.1285,8.0831,8.0793,8.3216,8.3601,8.337,8.2747,8.1631,8.0746,8.0246,7.9631,7.9254,7.9254,7.9023,7.8861,7.8861,7.8099,7.7561,7.733,7.6707,0.0,7.6015,7.4584,7.2738,7.0437,6.6327,6.2897,6.0121,5.8896,5.9858,6.2672,6.3205,6.4897,6.7398,6.825,6.9475,7.0815,7.0815,7.1168,7.1629,7.136,7.0937,7.0398,7.0129,6.9513,6.8776,6.8776,6.7814,6.659,6.632,6.625,6.6096,6.5243,6.4974,6.4782,6.3929,6.366,6.3468,6.2672,6.2287,6.1941,6.1325,6.0319,5.9204,5.8127,5.6742,5.5708,5.5708,5.4241,5.3544,5.5247,0.0,0.0,0.0,0.0,0.0,0.0,0.0,4.3128,4.3855,0.0,0.0,0.0,0.0,3.9658,4.1512,4.2547,0.0,0.0,0.0,0.0,5.3808,5.6791,5.8711,5.957,6.039,6.1094,6.1719,6.1719,6.1719,6.1719,6.1953,6.2422,6.3047,6.3555,6.414,6.4726,6.4961,6.543,6.5976,6.5976,6.6367,6.6914,7.9277,7.9777,8.0554,8.3139,8.3563,8.3563,8.3601,8.3601,8.3601,8.3601,8.3563,8.2909,8.1246,8.1054,8.1054,8.1054,8.0285,7.9777,7.9777,7.8977,7.8138,0.0,0.0,7.6861,7.6015,7.513,7.386,7.2175,0.0,0.0,6.4512,6.4512,6.5397,6.7096,6.8821,7.0052,7.0898,7.179,7.2668,7.343,7.343,7.3469,7.3353,7.2514,7.2175,7.2059,7.1206,7.036,6.9667,6.9667,6.9084,6.8237,6.7359,6.7096,6.6942,6.6134,6.5859,6.5705,6.482,6.4589,6.4397,6.3506,6.2704,6.2095,6.2095,6.0748,5.9011,5.7363,5.6324,5.5708,5.5708,5.567,5.4857,5.2351,0.0,0.0,0.0,0.0,0.0,0.0,4.2431,4.0358,4.2854,0.0,0.0,0.0,0.0,4.6043,4.4355,4.3508,0.0,4.8205,5.0998,0.0,5.3808,5.7376,5.9609,6.039,6.1289,6.168,6.1719,6.1719,6.1719,6.1758,6.2617,6.3008,6.3125,6.4844,6.5586,6.5664,6.6523,6.6875,6.6875,6.6875,6.6875,6.6914,8.2208,8.2401,8.2639,8.3447,8.4093,8.4478,8.4478,8.4939,8.5093,8.4555,8.4478,8.4055,8.2939,8.2285,8.19,0.0,8.117,8.0708,0.0,7.9862,7.9285,7.9015,7.8438,7.7715,7.6899,7.6592,7.563,7.3899,0.0,0.0,6.8898,6.8321,6.9283,7.1475,7.1437,7.186,7.2699,7.2969,7.3238,7.3507,7.3507,7.3507,7.3469,7.3199,7.3091,7.2976,7.2091,7.1629,7.1321,7.0706,7.0321,6.9975,6.9129,6.8475,6.7821,6.6974,6.6712,6.6558,6.5705,6.5474,6.5282,6.4397,6.3974,6.3518,6.2364,6.0748,5.9204,5.8127,5.7209,5.6401,5.5824,5.5708,5.5439,5.4626,5.4703,0.0,0.0,0.0,0.0,0.0,0.0,4.4167,0.0,4.4436,0.0,0.0,0.0,0.0,0.0,0.0,0.0,0.0,5.3535,0.0,5.4838,5.8281,6.0156,6.039,6.1289,6.1719,6.1719,6.2305,6.2578,6.2617,6.3515,6.4219,6.4805,6.5351,6.5937,6.6523,6.6797,6.6914,6.6914,6.6914,6.6914,6.6914,8.4016,8.4093,8.417,8.4478,8.4978,8.5354,8.5354,8.5778,8.594,8.5431,8.5354,8.5132,8.4593,8.3785,8.3131,8.2832,8.2016,8.1554,8.1554,8.0746,8.0131,7.9815,7.9285,7.8592,7.7753,7.7753,0.0,7.5668,7.3976,7.3014,7.2783,7.1975,7.2591,7.4437,7.386,7.3937,7.443,7.443,7.443,7.443,7.443,7.443,7.4392,7.4084,7.3969,7.3853,7.2976,7.2706,7.2552,7.1668,7.1398,7.1245,7.0398,6.9783,6.9122,6.7936,6.759,6.7398,6.6596,6.6365,6.6134,6.5282,6.4859,6.4166,6.248,6.1018,5.9742,5.8934,5.7819,5.6824,5.6285,5.5939,5.5708,5.5708,5.5011,5.3895,5.2159,0.0,0.0,0.0,0.0,0.0,0.0,4.7091,4.7518,0.0,0.0,0.0,0.0,0.0,5.1946,5.2108,5.5643,5.7382,5.714,5.9296,6.0547,6.0898,6.1758,6.2187,6.2226,6.3086,6.3476,6.3555,6.4414,6.5117,6.5625,6.5937,6.6406,6.6914,6.6914,6.6914,6.6914,6.6914,6.6914,6.6914,8.4816,8.497,8.5209,8.5978,8.6094,8.6094,8.6094,8.6094,8.6094,8.6094,8.6094,8.6094,8.6094,8.5431,8.467,8.3832,8.2939,0.0,8.2401,8.1631,8.0823,8.0015,7.9931,7.9477,7.86,7.86,7.8176,7.7369,7.5707,7.5284,7.6053,7.5207,7.5207,7.6015,7.6015,7.6015,7.6015,7.6015,7.6015,7.6015,7.6015,7.6015,7.5899,7.5091,7.4776,7.4661,7.3853,7.3584,7.343,7.2591,7.229,7.2136,7.1321,7.1052,7.0667,6.8968,6.8507,6.8314,6.7443,6.7173,6.7019,6.6211,6.5282,6.4205,6.2633,6.1556,6.0627,5.9781,5.8286,5.7132,5.7022,5.6324,5.5785,5.5708,5.4972,5.3818,5.2159,0.0,0.0,0.0,0.0,0.0,4.6052,4.8937,5.0784,0.0,0.0,0.0,0.0,0.0,5.1837,5.5884,5.7165,5.8582,6.0189,6.0385,6.0937,6.1797,6.2617,6.3047,6.3125,6.3984,6.4375,6.4453,6.5312,6.5703,6.5742,6.6562,6.6914,6.6914,6.6914,6.6914,6.6914,6.6914,6.6914,6.6914,8.5786,8.5824,8.5901,8.6055,8.6094,8.6094,8.6094,8.6094,8.6094,8.6094,8.6094,8.6094,8.6094,8.594,8.5747,8.5517,8.4132,8.3293,8.3293,8.2477,8.19,8.1708,8.1131,8.04,7.9515,7.9477,7.9054,7.8215,7.7169,7.6784,7.6984,7.6092,7.5784,7.6015,7.6015,7.6015,7.6015,7.6015,7.6015,7.6015,7.6015,7.6015,7.5976,7.5784,7.5707,7.5592,7.47,7.443,7.4276,7.3469,7.3199,7.3168,7.293,7.2437,7.1552,6.9898,6.9398,6.9206,6.8314,6.8084,6.7898,6.7019,6.5705,6.4512,6.4089,6.2864,6.1556,6.0671,5.9665,5.8517,5.7247,5.6824,5.6478,5.5824,5.4472,5.3121,5.2038,5.1048,0.0,0.0,4.9928,5.0389,4.9553,5.1395,5.1818,0.0,0.0,5.2728,5.256,5.3261,5.4468,5.6266,5.7822,5.9189,6.0349,6.1054,6.1836,6.2695,6.289,6.3359,6.4023,6.4883,6.5273,6.5351,6.6211,6.6601,6.6601,6.6797,6.6914,6.6914,6.6914,6.6914,6.6914,6.6914,6.6914,6.6914,8.7286,8.6978,8.6824,8.7209,8.6978,8.6709,8.6709,8.6709,8.6555,8.617,8.6094,8.6094,8.6094,8.6094,8.6094,8.6094,8.4939,8.417,8.417,8.3362,8.2716,8.2324,8.1862,8.1246,8.04,8.04,7.9977,7.9092,7.8253,7.7869,7.783,7.6984,7.6592,7.6592,7.6169,7.6015,7.6015,7.6015,7.6015,7.6015,7.6015,7.6015,7.6015,7.6015,7.6015,7.5938,7.5476,7.5284,7.5168,7.4315,7.4046,7.3969,7.3623,7.3161,7.2629,7.1706,7.086,7.0052,6.9199,6.9007,6.8706,6.7398,6.6404,6.5551,6.4782,6.3897,6.2903,6.1633,6.071,5.9588,5.7901,5.7286,5.6593,5.5362,5.4395,5.3351,5.2082,5.1505,0.0,5.0582,5.1697,5.2313,5.1895,5.3356,5.3626,5.1856,5.2895,0.0,5.4298,5.5358,5.6406,5.7434,5.883,6.0032,6.0976,6.1875,6.2734,6.3594,6.3984,6.4453,6.4922,6.5781,6.6172,6.6211,6.668,6.6914,6.6914,6.6914,6.6914,6.6914,6.6914,6.6914,6.6914,6.6914,6.6914,6.6914,8.8718,8.8094,8.7825,8.8564,8.8094,8.7594,8.7594,8.7594,8.7286,8.6401,8.6286,8.6247,8.6094,8.6094,8.6094,8.6094,8.547,8.5085,8.5085,8.4286,8.3486,8.2708,8.2554,8.2093,8.1285,8.117,8.0746,8.0008,7.9131,7.8715,7.8677,7.7869,7.7407,7.7292,7.6515,7.613,7.6015,7.6015,7.6015,7.6015,7.6015,7.6015,7.6015,7.6015,7.6015,7.6015,7.6015,7.6015,7.5899,7.5168,7.4892,7.4776,7.4084,7.3776,7.3661,7.3661,7.2552,7.1129,7.0283,6.9898,6.936,6.7859,6.7289,6.675,6.5282,6.4782,6.4205,6.2787,6.1672,6.0517,5.8973,5.7857,5.6632,5.4977,5.4664,5.4087,5.2351,0.0,5.2467,5.2467,5.3236,5.3818,5.3967,5.5241,5.5818,5.5126,5.5703,5.6462,5.7323,5.7525,5.804,5.9049,6.0045,6.1054,6.207,6.2812,6.3633,6.4492,6.5234,6.5664,6.582,6.6562,6.6914,6.6914,6.6914,6.6914,6.6914,6.6914,6.6914,6.6914,6.6914,6.6992,6.7109,6.7109,6.7187,6.7305,8.8718,8.8603,8.8526,8.8679,8.8603,8.8487,8.8487,8.8487,8.8179,8.7325,8.7209,8.6901,8.617,8.6094,8.6094,8.6094,8.5978,8.5901,8.5901,8.517,8.4632,8.4516,8.3785,8.2986,8.2131,8.1439,8.1016,8.09,8.0015,7.9592,7.9592,7.8707,7.7946,7.7292,7.7176,7.6669,7.6015,7.6015,7.6015,7.6015,7.6015,7.6015,7.6015,7.6015,7.6015,7.6015,7.6015,7.6015,7.5976,7.5822,7.5784,7.5784,7.5668,7.513,7.4507,7.4507,7.3853,7.2892,7.2052,7.0783,6.9629,6.936,6.8205,6.7019,6.6789,6.5628,6.4551,6.4282,6.298,6.1595,6.0589,5.9127,5.755,5.5785,5.5516,5.4934,5.3236,0.0,5.5126,5.5126,5.5862,5.6709,5.7434,5.7736,5.7857,5.7703,5.7819,5.7951,5.811,5.8915,5.9871,6.0878,6.1164,6.2168,6.3867,6.4023,6.4531,6.539,6.5547,6.5976,6.6719,6.6836,6.6914,6.6914,6.6914,6.6914,6.6914,6.6914,6.6914,6.6914,6.6914,6.7344,6.8008,6.8008,6.8476,6.9101,9.0056,8.9556,8.9325,8.994,8.9556,8.9171,8.9325,8.9363,8.9056,8.8209,8.7671,8.7248,8.6824,8.6363,8.6094,8.6094,8.6094,8.6094,8.6094,8.5747,8.5354,8.4931,8.4516,8.3901,8.3024,8.217,8.1747,8.1747,8.09,8.0516,8.0477,7.9592,7.9015,7.8631,7.8169,7.7484,7.6707,7.6707,7.6438,7.6015,7.6015,7.6015,7.6015,7.6015,7.6015,7.6015,7.6015,7.6015,7.6015,7.6015,7.6015,7.6015,7.6015,7.5707,7.5399,7.5399,7.4507,7.3315,7.2444,7.1636,7.0821,6.9937,6.909,6.8398,6.7898,6.6821,6.582,6.5397,6.432,6.3051,6.1749,6.0473,5.9242,5.7934,5.6978,0.0,5.5362,5.5901,5.6401,5.6401,5.717,5.7857,5.8275,5.8313,5.8313,5.8313,5.8313,5.8704,5.9588,6.0106,6.1061,6.2615,6.2873,6.3666,6.5,6.5,6.543,6.6289,6.6289,6.6523,6.6914,6.6914,6.6914,6.6914,6.6914,6.7187,6.7617,6.7617,6.789,6.8281,6.8281,6.8515,6.8867,6.8906,6.914,6.9492,9.121,9.0517,9.0171,9.1056,9.0479,8.997,9.0163,9.0201,8.9893,8.9094,8.8402,8.7902,8.7709,8.6901,8.6401,8.6401,8.6209,8.6094,8.6094,8.6094,8.5824,8.5201,8.5008,8.4593,8.3909,8.3062,8.2593,8.2593,8.1785,8.1362,8.1362,8.0516,7.9969,7.9777,7.9092,7.8369,7.7599,7.7599,7.7092,7.6284,7.6284,7.6169,7.6015,7.6015,7.6015,7.6015,7.6015,7.6015,7.6015,7.6015,7.6015,7.6015,7.6015,7.6015,7.6015,7.6015,7.5091,7.3853,7.2783,7.236,7.1905,7.0591,6.9975,6.9513,6.8853,6.8013,6.7244,6.659,6.5628,6.4512,6.3211,6.1941,6.0748,5.9665,0.0,5.7676,5.7093,5.7522,5.7863,5.7863,5.8665,5.9281,5.9429,5.9467,5.9467,5.9467,5.9467,6.0012,6.132,6.1396,6.221,6.4043,6.4423,6.5039,6.5898,6.5898,6.625,6.6914,6.7109,6.7187,6.7226,6.7383,6.7461,6.7461,6.7461,6.7851,6.8476,6.8515,6.8906,6.9492,6.9492,6.957,6.9726,6.9765,6.9922,7.0078,9.121,9.1133,9.1095,9.121,9.1133,9.1095,9.1095,9.1086,9.0778,8.9932,8.9739,8.944,8.8679,8.7825,8.7286,8.7286,8.6555,8.6094,8.6094,8.6094,8.6055,8.6017,8.5277,8.4854,8.4816,8.3939,8.3486,8.3486,8.2631,8.2208,8.217,8.1362,8.0554,7.9815,7.9746,7.9208,7.8407,7.8407,7.7946,7.7215,7.7215,7.6707,7.6015,7.6015,7.6015,7.6015,7.6015,7.6015,7.6015,7.6015,7.6015,7.6015,7.6015,7.6015,7.6015,7.6015,7.5899,7.5476,7.3853,7.2822,7.2175,7.2059,7.086,6.9667,6.9629,6.893,6.8276,6.8237,6.6936,6.5782,6.5634,6.3634,6.1441,5.9781,0.0,0.0,5.733,5.9017,6.0517,6.0517,6.1287,6.2095,6.2852,6.2929,6.2929,6.2929,6.2929,6.3006,6.3121,6.3121,6.3717,6.4944,6.5322,6.5937,6.6797,6.6797,6.6836,6.6914,6.7734,6.8086,6.8125,6.8867,6.9219,6.9219,6.9219,6.9258,6.9336,6.9375,6.9414,6.9414,6.9492,6.9961,7.0586,7.0625,7.1133,7.1836,9.121,9.121,9.121,9.121,9.121,9.121,9.121,9.121,9.1095,9.074,9.0239,8.9778,8.9479,8.8709,8.8218,8.8218,8.7401,8.6901,8.6901,8.6401,8.6094,8.6094,8.5824,8.5632,8.5632,8.4824,8.4401,8.4401,8.3516,8.2832,8.2285,8.1977,8.14,8.0592,8.0592,8.0131,7.9323,7.9323,7.8823,7.8023,7.8023,7.7869,7.7484,7.7015,7.683,7.6746,7.6207,7.6015,7.6015,7.6015,7.6015,7.6015,7.6015,7.6015,7.6015,7.6015,7.6015,7.5861,7.5207,7.4399,7.363,7.3129,7.2129,7.1245,7.1245,7.0206,6.9206,6.9206,6.8276,6.7436,6.7436,6.582,6.4403,6.4243,0.0,6.1441,6.0973,6.1325,6.1595,6.1595,6.232,6.2968,6.3275,6.3314,6.3314,6.3314,6.3314,6.3545,6.4083,6.4831,6.5425,6.5881,6.6767,6.7109,6.6914,6.7422,6.7695,6.7734,6.8555,6.8984,6.9023,6.9297,6.9414,6.9414,6.9414,6.9726,7.0195,7.0234,7.0547,7.1015,7.1055,7.125,7.1523,7.1523,7.1719,7.1992,9.121,9.121,9.121,9.121,9.121,9.121,9.121,9.121,9.121,9.121,9.0663,9.0316,9.0316,8.9556,8.9094,8.9094,8.8055,8.7401,8.7401,8.6594,8.6094,8.6094,8.6094,8.6094,8.6094,8.5555,8.5286,8.5286,8.4401,8.3708,8.3093,8.2554,8.2016,8.1477,8.1208,8.0785,8.0208,8.0208,7.9708,7.8907,7.8907,7.8754,7.8446,7.7907,7.7676,7.7599,7.7015,7.6784,7.6746,7.6476,7.6399,7.6361,7.6092,7.6015,7.6015,7.6015,7.6015,7.6015,7.6015,7.5553,7.4892,7.4084,7.3245,7.2591,7.2591,7.1514,7.0475,7.0475,6.959,6.8814,6.8814,6.7628,6.6782,6.7058,6.5173,6.3672,6.3698,6.3474,6.3172,6.2903,6.3628,6.4122,6.4122,6.4122,6.4122,6.4122,6.4122,6.4474,6.5359,6.6215,6.6871,6.7165,6.8033,6.8278,6.7734,6.8281,6.8594,6.8594,6.9414,6.9844,6.9883,7.0117,7.0234,7.0234,7.0234,7.0547,7.1094,7.1094,7.1445,7.1992,7.1992,7.1992,7.1992,7.1992,7.1992,7.1992,9.121,9.121,9.121,9.121,9.121,9.121,9.121,9.121,9.121,9.121,9.121,9.121,9.121,9.0432,8.9893,8.9893,8.8402,8.7401,8.7401,8.6594,8.6094,8.6094,8.6094,8.6094,8.6094,8.6094,8.6094,8.6094,8.5277,8.4893,8.4854,8.3131,8.2324,8.2285,8.1477,8.1093,8.1093,8.1093,8.0592,7.9815,7.9815,7.9285,7.8523,7.8523,7.8523,7.8523,7.8484,7.8484,7.8369,7.7599,7.733,7.7176,7.6284,7.6015,7.6015,7.6015,7.6015,7.6015,7.6015,7.6015,7.5784,7.4938,7.4084,7.3507,7.3507,7.2822,7.2213,7.2213,7.086,6.9706,6.9706,6.9007,6.8122,6.725,6.7096,6.6519,6.4859,6.5359,6.559,6.4743,6.5397,6.5904,6.5904,6.5904,6.5904,6.5904,6.5904,6.6288,6.7058,6.7316,6.789,6.8874,6.9096,6.9303,6.9492,6.9453,6.9414,6.9414,7.0273,7.0703,7.0742,7.1601,7.1992,7.1992,7.1992,7.1992,7.1992,7.1992,7.1992,7.1992,7.1992,7.1992,7.1992,7.1992,7.1992,7.1992,9.121,9.121,9.121,9.121,9.121,9.121,9.121,9.121,9.121,9.121,9.121,9.121,9.121,9.0979,9.0816,9.0816,8.9778,8.8671,8.7478,8.7171,8.6748,8.6132,8.6094,8.6094,8.6094,8.6094,8.6094,8.6094,8.5863,8.544,8.4893,8.4362,8.3478,8.2285,8.2054,8.1631,8.1093,8.1093,8.0939,8.0708,8.0708,8.0554,8.0246,7.9669,7.94,7.9323,7.8715,7.8484,7.8446,7.8215,7.8138,7.7984,7.7176,7.6476,7.6015,7.6015,7.6015,7.6015,7.6015,7.6015,7.5938,7.5668,7.4976,7.4353,7.4353,7.3699,7.3129,7.3129,7.2245,7.1437,7.1437,7.0283,6.9244,6.8975,6.8398,6.7859,6.7353,6.7507,6.7545,6.7314,6.7507,6.766,6.766,6.766,6.766,6.766,6.766,6.7776,6.8007,6.8149,6.8424,6.8874,6.9683,7.0203,7.0351,7.0312,7.0312,7.0312,7.1211,7.1601,7.1601,7.1875,7.1992,7.1992,7.1992,7.1992,7.1992,7.1992,7.1992,7.1992,7.1992,7.1992,7.1992,7.1992,7.1992,7.1992,9.121,9.121,9.121,9.121,9.121,9.121,9.121,9.121,9.121,9.121,9.121,9.121,9.121,9.121,9.121,9.121,9.0393,8.9316,8.7979,8.7902,8.7517,8.6632,8.6594,8.644,8.6094,8.6094,8.6094,8.6094,8.6094,8.5863,8.5354,8.5055,8.4324,8.3324,8.2978,8.2362,8.1554,8.1554,8.14,8.1093,8.1093,8.1093,8.1054,8.0516,8.0323,8.0246,7.9708,7.9523,7.9485,7.9131,7.8792,7.8407,7.7946,7.7407,7.6938,7.6592,7.6515,7.6438,7.6092,7.6015,7.6015,7.6015,7.5592,7.5207,7.5207,7.4584,7.3969,7.3969,7.3283,7.2706,7.2706,7.1591,7.0706,7.0706,6.9975,6.9276,6.8968,6.8891,6.8776,6.843,6.8391,6.8391,6.8391,6.8391,6.8391,6.8391,6.8391,6.8545,6.8891,6.9004,6.9328,6.9921,7.0567,7.0993,7.1211,7.1211,7.1211,7.1211,7.1758,7.1992,7.1992,7.1992,7.1992,7.1992,7.1992,7.1992,7.1992,7.1992,7.1992,7.1992,7.1992,7.1992,7.1992,7.1992,7.1992,7.1992,9.121,9.121,9.121,9.121,9.121,9.121,9.121,9.121,9.121,9.121,9.121,9.121,9.121,9.121,9.121,9.121,9.047,8.9663,8.8872,8.8795,8.841,8.7555,8.7517,8.7094,8.6247,8.6132,8.6094,8.6094,8.6094,8.6094,8.6094,8.5354,8.497,8.4854,8.4055,8.3216,8.2401,8.2401,8.1977,8.1323,8.1246,8.1208,8.1208,8.1131,8.1093,8.1093,8.1093,8.1093,8.0977,8.0169,7.9323,7.8638,7.8638,7.8561,7.8369,7.7638,7.7407,7.7215,7.6361,7.613,7.6092,7.6015,7.6015,7.6015,7.6015,7.5399,7.4815,7.4815,7.4161,7.3623,7.3623,7.2899,7.2329,7.2329,7.1629,7.0898,7.0129,6.9975,6.9629,6.8814,6.866,6.8622,6.8622,6.8622,6.8622,6.8622,6.8622,6.8968,6.9744,6.9898,7.0434,7.1587,7.1676,7.1904,7.2226,7.2226,7.2148,7.1992,7.1992,7.2031,7.2109,7.2109,7.2109,7.2109,7.2109,7.207,7.1992,7.1992,7.1992,7.1992,7.1992,7.1992,7.1992,7.1992,7.1992,7.1992,9.121,9.121,9.121,9.121,9.121,9.121,9.121,9.121,9.121,9.121,9.121,9.121,9.121,9.121,9.121,9.121,9.1018,9.0556,8.971,8.9633,8.9286,8.8449,8.841,8.8025,8.7132,8.644,8.6094,8.6094,8.6094,8.6094,8.6094,8.594,8.5508,8.4893,8.4709,8.4132,8.3332,8.3332,8.3216,8.2986,8.2324,8.2054,8.1977,8.1323,8.1093,8.1093,8.1093,8.1093,8.1054,8.09,8.0246,7.9515,7.9515,7.9054,7.8484,7.8292,7.8253,7.8061,7.7253,7.7015,7.6861,7.6169,7.6015,7.6015,7.6015,7.5861,7.5707,7.5707,7.5053,7.443,7.443,7.3776,7.3206,7.3206,7.3046,7.2892,7.2699,7.2091,7.1598,7.1398,7.0783,7.036,7.036,7.036,7.036,7.036,7.036,7.0437,7.0629,7.1283,7.1908,7.2489,7.3119,7.3659,7.4023,7.4023,7.3359,7.1992,7.1992,7.2344,7.3008,7.3008,7.3008,7.3008,7.3008,7.2617,7.1992,7.1992,7.1992,7.1992,7.1992,7.1992,7.1992,7.1992,7.1992,7.1992,9.121,9.121,9.121,9.121,9.121,9.121,9.121,9.121,9.121,9.121,9.121,9.121,9.121,9.121,9.121,9.121,9.121,9.1018,9.0547,9.0509,9.0171,8.9325,8.9286,8.8863,8.8017,8.7555,8.694,8.6094,8.6094,8.6094,8.6094,8.6094,8.5901,8.547,8.547,8.5016,8.4209,8.4209,8.3978,8.3563,8.3101,8.2901,8.2862,8.2439,8.2285,8.2285,8.2285,8.2016,8.1593,8.1246,8.0785,8.0439,8.0439,8.0092,7.9669,7.9246,7.9131,7.8938,7.8099,7.7599,7.7176,7.6746,7.6322,7.6015,7.6015,7.6015,7.6015,7.6015,7.563,7.5322,7.5322,7.4623,7.4084,7.4084,7.3738,7.3507,7.3507,7.3129,7.2822,7.2822,7.2437,7.2129,7.2129,7.2129,7.2129,7.2129,7.2129,7.2129,7.2129,7.2591,7.295,7.3229,7.3729,7.4132,7.4434,7.4568,7.414,7.3242,7.3242,7.3476,7.3906,7.3906,7.3906,7.3906,7.3906,7.3672,7.3242,7.3242,7.3242,7.3242,7.3242,7.3242,7.3242,7.3242,7.2969,7.2578,9.121,9.121,9.121,9.121,9.121,9.121,9.121,9.121,9.121,9.121,9.121,9.121,9.121,9.121,9.121,9.121,9.121,9.121,9.121,9.121,9.0902,9.0163,9.0124,8.9739,8.8902,8.891,8.8055,8.6324,8.6324,8.6247,8.6094,8.6094,8.6094,8.6094,8.6094,8.5747,8.5132,8.5132,8.4709,8.4024,8.387,8.3832,8.3832,8.3678,8.3601,8.3601,8.3601,8.3139,8.2401,8.1593,8.1323,8.1285,8.1131,8.1093,8.0977,8.0239,8.0015,7.9823,7.8946,7.8253,7.7669,7.7561,7.6938,7.6399,7.6245,7.6092,7.6015,7.6015,7.6015,7.6015,7.6015,7.5399,7.4938,7.4938,7.4353,7.393,7.393,7.3815,7.3699,7.3699,7.3584,7.3507,7.3507,7.3507,7.3507,7.3507,7.3507,7.3507,7.3507,7.3623,7.3748,7.3916,7.4252,7.4521,7.4728,7.4952,7.5039,7.5039,7.5039,7.4961,7.4805,7.4805,7.4805,7.4805,7.4805,7.4726,7.4609,7.4609,7.4609,7.4609,7.4609,7.4609,7.4609,7.4609,7.414,7.3437,9.121,9.121,9.121,9.121,9.121,9.121,9.121,9.121,9.121,9.121,9.121,9.121,9.121,9.121,9.121,9.121,9.121,9.121,9.121,9.121,9.1171,9.1018,9.1018,9.0624,8.9739,8.9739,8.8902,8.7209,8.7209,8.6824,8.6094,8.6094,8.6094,8.6094,8.6094,8.6055,8.594,8.594,8.5863,8.5709,8.5016,8.4709,8.4632,8.3901,8.3601,8.3601,8.3601,8.3524,8.3293,8.2439,8.2131,8.2016,8.1323,8.1093,8.1093,8.0977,8.0939,8.0746,7.9862,7.9546,7.9285,7.8523,7.8253,7.7984,7.7292,7.6553,7.6015,7.6015,7.6015,7.6015,7.6015,7.5899,7.5822,7.5822,7.5745,7.5668,7.5668,7.5007,7.4546,7.4546,7.393,7.3507,7.3507,7.3507,7.3507,7.3507,7.3507,7.3507,7.3507,7.4161,7.4641,7.4818,7.5737,7.6358,7.6568,7.6749,7.6836,7.6836,7.6836,7.6445,7.5703,7.5703,7.5703,7.5703,7.5703,7.5312,7.4609,7.4609,7.4609,7.4609,7.4609,7.4609,7.4609,7.4609,7.4531,7.4414,9.121,9.121,9.121,9.121,9.121,9.121,9.121,9.121,9.121,9.121,9.121,9.121,9.121,9.121,9.121,9.121,9.121,9.121,9.121,9.121,9.121,9.121,9.121,9.1018,9.0624,9.0624,9.0017,8.8786,8.7863,8.7209,8.6824,8.6324,8.6094,8.6094,8.6094,8.6094,8.6094,8.6094,8.6094,8.6055,8.5701,8.5555,8.5517,8.5132,8.5016,8.4939,8.4478,8.4324,8.417,8.3324,8.3024,8.2947,8.2601,8.217,8.1785,8.1785,8.1439,8.1016,8.0631,8.0162,7.97,7.9323,7.8869,7.8407,7.8061,7.7676,7.713,7.6207,7.6015,7.6015,7.6015,7.6015,7.6015,7.6015,7.6015,7.6015,7.6015,7.5668,7.5438,7.5438,7.513,7.4899,7.4899,7.4899,7.4899,7.4899,7.4899,7.4899,7.4899,7.5245,7.5528,7.5703,7.6277,7.6709,7.6919,7.7101,7.7187,7.7187,7.7187,7.6992,7.664,7.664,7.664,7.664,7.664,7.6406,7.6055,7.6055,7.6055,7.6055,7.6055,7.6055,7.5976,7.5508,7.5312,7.5273]}]]